<?xml version="1.0" encoding="UTF-8" standalone="no" ?>
<gpx xmlns="http://www.topografix.com/GPX/1/1" xmlns:xsi="http://www.w3.org/2001/XMLSchema-instance" xsi:schemaLocation="http://www.topografix.com/GPX/1/1 http://www.topografix.com/GPX/1/1/gpx.xsd" version="1.1" creator="VisuGPX - https://www.visugpx.com">
  <metadata>
    <name>6/16 - Montréal du Gers / Eauze - 2019-04-15 08:52:28</name>
    <desc><![CDATA[File with points/tracks from Locus Map/3.37.2]]></desc>
  </metadata>
  <trk>
    <name><![CDATA[2019-04-15 08:52:28]]></name>
    <trkseg>
      <trkpt lat="43.9515" lon="0.20657">
        <ele>203.7</ele>
        <time>2019-04-15T06:52:38.000Z</time>
      </trkpt>
      <trkpt lat="43.95151" lon="0.20655">
        <ele>203.48</ele>
        <time>2019-04-15T06:52:57.000Z</time>
      </trkpt>
      <trkpt lat="43.95151" lon="0.20654">
        <ele>203.39</ele>
        <time>2019-04-15T06:53:07.000Z</time>
      </trkpt>
      <trkpt lat="43.95152" lon="0.20655">
        <ele>203.32</ele>
        <time>2019-04-15T06:53:17.000Z</time>
      </trkpt>
      <trkpt lat="43.95154" lon="0.20653">
        <ele>203.66</ele>
        <time>2019-04-15T06:53:27.000Z</time>
      </trkpt>
      <trkpt lat="43.95153" lon="0.20655">
        <ele>203.86</ele>
        <time>2019-04-15T06:53:38.000Z</time>
      </trkpt>
      <trkpt lat="43.95155" lon="0.2065">
        <ele>203.79</ele>
        <time>2019-04-15T06:53:48.000Z</time>
      </trkpt>
      <trkpt lat="43.95159" lon="0.20648">
        <ele>203.25</ele>
        <time>2019-04-15T06:53:58.000Z</time>
      </trkpt>
      <trkpt lat="43.95157" lon="0.20648">
        <ele>202.87</ele>
        <time>2019-04-15T06:54:32.000Z</time>
      </trkpt>
      <trkpt lat="43.95159" lon="0.20648">
        <ele>203.49</ele>
        <time>2019-04-15T06:54:42.000Z</time>
      </trkpt>
      <trkpt lat="43.95158" lon="0.20653">
        <ele>203.69</ele>
        <time>2019-04-15T06:54:52.000Z</time>
      </trkpt>
      <trkpt lat="43.95154" lon="0.20656">
        <ele>203.53</ele>
        <time>2019-04-15T06:55:02.000Z</time>
      </trkpt>
      <trkpt lat="43.95151" lon="0.20658">
        <ele>203.43</ele>
        <time>2019-04-15T06:55:12.000Z</time>
      </trkpt>
      <trkpt lat="43.95152" lon="0.20658">
        <ele>203.53</ele>
        <time>2019-04-15T06:55:22.000Z</time>
      </trkpt>
      <trkpt lat="43.9515" lon="0.20658">
        <ele>203.82</ele>
        <time>2019-04-15T06:55:36.000Z</time>
      </trkpt>
      <trkpt lat="43.95149" lon="0.20659">
        <ele>203.82</ele>
        <time>2019-04-15T06:55:46.000Z</time>
      </trkpt>
      <trkpt lat="43.95147" lon="0.20662">
        <ele>203.42</ele>
        <time>2019-04-15T06:55:56.000Z</time>
      </trkpt>
      <trkpt lat="43.95145" lon="0.20663">
        <ele>203.4</ele>
        <time>2019-04-15T06:56:06.000Z</time>
      </trkpt>
      <trkpt lat="43.95147" lon="0.20662">
        <ele>202.95</ele>
        <time>2019-04-15T06:56:16.000Z</time>
      </trkpt>
      <trkpt lat="43.95146" lon="0.20665">
        <ele>203.06</ele>
        <time>2019-04-15T06:56:26.000Z</time>
      </trkpt>
      <trkpt lat="43.95139" lon="0.20664">
        <ele>203.51</ele>
        <time>2019-04-15T06:56:36.000Z</time>
      </trkpt>
      <trkpt lat="43.95139" lon="0.20659">
        <ele>204.05</ele>
        <time>2019-04-15T06:56:46.000Z</time>
      </trkpt>
      <trkpt lat="43.95138" lon="0.20658">
        <ele>204.09</ele>
        <time>2019-04-15T06:56:56.000Z</time>
      </trkpt>
      <trkpt lat="43.95139" lon="0.20656">
        <ele>204.25</ele>
        <time>2019-04-15T06:57:06.000Z</time>
      </trkpt>
      <trkpt lat="43.95141" lon="0.20655">
        <ele>204.26</ele>
        <time>2019-04-15T06:57:31.000Z</time>
      </trkpt>
      <trkpt lat="43.95138" lon="0.20642">
        <ele>204.6</ele>
        <time>2019-04-15T06:57:41.000Z</time>
      </trkpt>
      <trkpt lat="43.95133" lon="0.20633">
        <ele>203.99</ele>
        <time>2019-04-15T06:57:51.000Z</time>
      </trkpt>
      <trkpt lat="43.95125" lon="0.20623">
        <ele>204</ele>
        <time>2019-04-15T06:58:01.000Z</time>
      </trkpt>
      <trkpt lat="43.95116" lon="0.20615">
        <ele>204.34</ele>
        <time>2019-04-15T06:58:11.000Z</time>
      </trkpt>
      <trkpt lat="43.95104" lon="0.20616">
        <ele>203.32</ele>
        <time>2019-04-15T06:58:21.000Z</time>
      </trkpt>
      <trkpt lat="43.95096" lon="0.20624">
        <ele>202.67</ele>
        <time>2019-04-15T06:58:31.000Z</time>
      </trkpt>
      <trkpt lat="43.95086" lon="0.20624">
        <ele>201.85</ele>
        <time>2019-04-15T06:58:41.000Z</time>
      </trkpt>
      <trkpt lat="43.95075" lon="0.20623">
        <ele>200.93</ele>
        <time>2019-04-15T06:58:51.000Z</time>
      </trkpt>
      <trkpt lat="43.95067" lon="0.20626">
        <ele>199.98</ele>
        <time>2019-04-15T06:59:01.000Z</time>
      </trkpt>
      <trkpt lat="43.95056" lon="0.20628">
        <ele>199.3</ele>
        <time>2019-04-15T06:59:11.000Z</time>
      </trkpt>
      <trkpt lat="43.95047" lon="0.2063">
        <ele>198.87</ele>
        <time>2019-04-15T06:59:21.000Z</time>
      </trkpt>
      <trkpt lat="43.95038" lon="0.20623">
        <ele>198.52</ele>
        <time>2019-04-15T06:59:31.000Z</time>
      </trkpt>
      <trkpt lat="43.95034" lon="0.20608">
        <ele>198.78</ele>
        <time>2019-04-15T06:59:41.000Z</time>
      </trkpt>
      <trkpt lat="43.95026" lon="0.20603">
        <ele>198.34</ele>
        <time>2019-04-15T06:59:51.000Z</time>
      </trkpt>
      <trkpt lat="43.95024" lon="0.20583">
        <ele>197.92</ele>
        <time>2019-04-15T07:00:01.000Z</time>
      </trkpt>
      <trkpt lat="43.95025" lon="0.20567">
        <ele>197.7</ele>
        <time>2019-04-15T07:00:11.000Z</time>
      </trkpt>
      <trkpt lat="43.95023" lon="0.20555">
        <ele>197.58</ele>
        <time>2019-04-15T07:00:21.000Z</time>
      </trkpt>
      <trkpt lat="43.95023" lon="0.20539">
        <ele>197.19</ele>
        <time>2019-04-15T07:00:31.000Z</time>
      </trkpt>
      <trkpt lat="43.95023" lon="0.20524">
        <ele>197.11</ele>
        <time>2019-04-15T07:00:41.000Z</time>
      </trkpt>
      <trkpt lat="43.95022" lon="0.20506">
        <ele>196.16</ele>
        <time>2019-04-15T07:00:51.000Z</time>
      </trkpt>
      <trkpt lat="43.95023" lon="0.20489">
        <ele>195.57</ele>
        <time>2019-04-15T07:01:01.000Z</time>
      </trkpt>
      <trkpt lat="43.95022" lon="0.20474">
        <ele>195.19</ele>
        <time>2019-04-15T07:01:11.000Z</time>
      </trkpt>
      <trkpt lat="43.95021" lon="0.20458">
        <ele>195.1</ele>
        <time>2019-04-15T07:01:21.000Z</time>
      </trkpt>
      <trkpt lat="43.95022" lon="0.20443">
        <ele>194.39</ele>
        <time>2019-04-15T07:01:31.000Z</time>
      </trkpt>
      <trkpt lat="43.95021" lon="0.20428">
        <ele>193.74</ele>
        <time>2019-04-15T07:01:41.000Z</time>
      </trkpt>
      <trkpt lat="43.9502" lon="0.20415">
        <ele>193.14</ele>
        <time>2019-04-15T07:01:51.000Z</time>
      </trkpt>
      <trkpt lat="43.9502" lon="0.20398">
        <ele>192.6</ele>
        <time>2019-04-15T07:02:01.000Z</time>
      </trkpt>
      <trkpt lat="43.9502" lon="0.20381">
        <ele>192.53</ele>
        <time>2019-04-15T07:02:11.000Z</time>
      </trkpt>
      <trkpt lat="43.95019" lon="0.20367">
        <ele>191.72</ele>
        <time>2019-04-15T07:02:21.000Z</time>
      </trkpt>
      <trkpt lat="43.9502" lon="0.20351">
        <ele>191.16</ele>
        <time>2019-04-15T07:02:31.000Z</time>
      </trkpt>
      <trkpt lat="43.9502" lon="0.20342">
        <ele>190.6</ele>
        <time>2019-04-15T07:02:41.000Z</time>
      </trkpt>
      <trkpt lat="43.95017" lon="0.20323">
        <ele>190.21</ele>
        <time>2019-04-15T07:02:51.000Z</time>
      </trkpt>
      <trkpt lat="43.95015" lon="0.20311">
        <ele>189.84</ele>
        <time>2019-04-15T07:03:01.000Z</time>
      </trkpt>
      <trkpt lat="43.95016" lon="0.20295">
        <ele>189.8</ele>
        <time>2019-04-15T07:03:11.000Z</time>
      </trkpt>
      <trkpt lat="43.95017" lon="0.20281">
        <ele>189.68</ele>
        <time>2019-04-15T07:03:21.000Z</time>
      </trkpt>
      <trkpt lat="43.95017" lon="0.20262">
        <ele>189.41</ele>
        <time>2019-04-15T07:03:31.000Z</time>
      </trkpt>
      <trkpt lat="43.95017" lon="0.20243">
        <ele>189.06</ele>
        <time>2019-04-15T07:03:41.000Z</time>
      </trkpt>
      <trkpt lat="43.95019" lon="0.20228">
        <ele>188.1</ele>
        <time>2019-04-15T07:03:51.000Z</time>
      </trkpt>
      <trkpt lat="43.95018" lon="0.20216">
        <ele>188.02</ele>
        <time>2019-04-15T07:04:01.000Z</time>
      </trkpt>
      <trkpt lat="43.95018" lon="0.20199">
        <ele>187.86</ele>
        <time>2019-04-15T07:04:11.000Z</time>
      </trkpt>
      <trkpt lat="43.95017" lon="0.20179">
        <ele>187.49</ele>
        <time>2019-04-15T07:04:21.000Z</time>
      </trkpt>
      <trkpt lat="43.95018" lon="0.20164">
        <ele>187.96</ele>
        <time>2019-04-15T07:04:31.000Z</time>
      </trkpt>
      <trkpt lat="43.95023" lon="0.20148">
        <ele>187.88</ele>
        <time>2019-04-15T07:04:41.000Z</time>
      </trkpt>
      <trkpt lat="43.9502" lon="0.20136">
        <ele>187.49</ele>
        <time>2019-04-15T07:04:51.000Z</time>
      </trkpt>
      <trkpt lat="43.95018" lon="0.20119">
        <ele>187.07</ele>
        <time>2019-04-15T07:05:01.000Z</time>
      </trkpt>
      <trkpt lat="43.95018" lon="0.20105">
        <ele>187.14</ele>
        <time>2019-04-15T07:05:11.000Z</time>
      </trkpt>
      <trkpt lat="43.95014" lon="0.20092">
        <ele>187.21</ele>
        <time>2019-04-15T07:05:21.000Z</time>
      </trkpt>
      <trkpt lat="43.95015" lon="0.20078">
        <ele>187.16</ele>
        <time>2019-04-15T07:05:31.000Z</time>
      </trkpt>
      <trkpt lat="43.95018" lon="0.20059">
        <ele>187.05</ele>
        <time>2019-04-15T07:05:41.000Z</time>
      </trkpt>
      <trkpt lat="43.95017" lon="0.20048">
        <ele>186.7</ele>
        <time>2019-04-15T07:05:51.000Z</time>
      </trkpt>
      <trkpt lat="43.95008" lon="0.20039">
        <ele>187.03</ele>
        <time>2019-04-15T07:06:01.000Z</time>
      </trkpt>
      <trkpt lat="43.95006" lon="0.20037">
        <ele>187.27</ele>
        <time>2019-04-15T07:06:11.000Z</time>
      </trkpt>
      <trkpt lat="43.95002" lon="0.20034">
        <ele>187.04</ele>
        <time>2019-04-15T07:06:21.000Z</time>
      </trkpt>
      <trkpt lat="43.94994" lon="0.20034">
        <ele>187.37</ele>
        <time>2019-04-15T07:06:31.000Z</time>
      </trkpt>
      <trkpt lat="43.9499" lon="0.20027">
        <ele>187.3</ele>
        <time>2019-04-15T07:06:41.000Z</time>
      </trkpt>
      <trkpt lat="43.94986" lon="0.20015">
        <ele>187.63</ele>
        <time>2019-04-15T07:06:51.000Z</time>
      </trkpt>
      <trkpt lat="43.94982" lon="0.2001">
        <ele>187.5</ele>
        <time>2019-04-15T07:07:01.000Z</time>
      </trkpt>
      <trkpt lat="43.94983" lon="0.20007">
        <ele>187.38</ele>
        <time>2019-04-15T07:07:11.000Z</time>
      </trkpt>
      <trkpt lat="43.94984" lon="0.20005">
        <ele>187.16</ele>
        <time>2019-04-15T07:07:21.000Z</time>
      </trkpt>
      <trkpt lat="43.94982" lon="0.20007">
        <ele>187.37</ele>
        <time>2019-04-15T07:07:31.000Z</time>
      </trkpt>
      <trkpt lat="43.94979" lon="0.19976">
        <ele>187.61</ele>
        <time>2019-04-15T07:07:43.000Z</time>
      </trkpt>
      <trkpt lat="43.94981" lon="0.19977">
        <ele>187.43</ele>
        <time>2019-04-15T07:08:09.000Z</time>
      </trkpt>
      <trkpt lat="43.94983" lon="0.19972">
        <ele>187.96</ele>
        <time>2019-04-15T07:09:05.000Z</time>
      </trkpt>
      <trkpt lat="43.94975" lon="0.19966">
        <ele>187.22</ele>
        <time>2019-04-15T07:09:15.000Z</time>
      </trkpt>
      <trkpt lat="43.94972" lon="0.19951">
        <ele>187.73</ele>
        <time>2019-04-15T07:09:25.000Z</time>
      </trkpt>
      <trkpt lat="43.94977" lon="0.1995">
        <ele>187.65</ele>
        <time>2019-04-15T07:09:35.000Z</time>
      </trkpt>
      <trkpt lat="43.94976" lon="0.19958">
        <ele>187.67</ele>
        <time>2019-04-15T07:09:45.000Z</time>
      </trkpt>
      <trkpt lat="43.94973" lon="0.19962">
        <ele>187.92</ele>
        <time>2019-04-15T07:09:55.000Z</time>
      </trkpt>
      <trkpt lat="43.95024" lon="0.19991">
        <ele>188.16</ele>
        <time>2019-04-15T07:13:05.000Z</time>
      </trkpt>
      <trkpt lat="43.94985" lon="0.1999">
        <ele>188.06</ele>
        <time>2019-04-15T07:14:00.000Z</time>
      </trkpt>
      <trkpt lat="43.94986" lon="0.20003">
        <ele>188.07</ele>
        <time>2019-04-15T07:14:11.000Z</time>
      </trkpt>
      <trkpt lat="43.94977" lon="0.2002">
        <ele>187.88</ele>
        <time>2019-04-15T07:14:21.000Z</time>
      </trkpt>
      <trkpt lat="43.94983" lon="0.20019">
        <ele>187.9</ele>
        <time>2019-04-15T07:14:31.000Z</time>
      </trkpt>
      <trkpt lat="43.94978" lon="0.20026">
        <ele>187.62</ele>
        <time>2019-04-15T07:14:41.000Z</time>
      </trkpt>
      <trkpt lat="43.94971" lon="0.20033">
        <ele>188.01</ele>
        <time>2019-04-15T07:14:51.000Z</time>
      </trkpt>
      <trkpt lat="43.94978" lon="0.20018">
        <ele>188</ele>
        <time>2019-04-15T07:15:01.000Z</time>
      </trkpt>
      <trkpt lat="43.94977" lon="0.2002">
        <ele>187.89</ele>
        <time>2019-04-15T07:15:15.000Z</time>
      </trkpt>
      <trkpt lat="43.94978" lon="0.20019">
        <ele>188.22</ele>
        <time>2019-04-15T07:15:27.000Z</time>
      </trkpt>
      <trkpt lat="43.94971" lon="0.20015">
        <ele>188.14</ele>
        <time>2019-04-15T07:15:37.000Z</time>
      </trkpt>
      <trkpt lat="43.94971" lon="0.20004">
        <ele>188.82</ele>
        <time>2019-04-15T07:15:47.000Z</time>
      </trkpt>
      <trkpt lat="43.9497" lon="0.19988">
        <ele>188.77</ele>
        <time>2019-04-15T07:15:57.000Z</time>
      </trkpt>
      <trkpt lat="43.9497" lon="0.19971">
        <ele>188.55</ele>
        <time>2019-04-15T07:16:07.000Z</time>
      </trkpt>
      <trkpt lat="43.94969" lon="0.19951">
        <ele>188.81</ele>
        <time>2019-04-15T07:16:17.000Z</time>
      </trkpt>
      <trkpt lat="43.94968" lon="0.19931">
        <ele>188.73</ele>
        <time>2019-04-15T07:16:27.000Z</time>
      </trkpt>
      <trkpt lat="43.94966" lon="0.19917">
        <ele>188.71</ele>
        <time>2019-04-15T07:16:37.000Z</time>
      </trkpt>
      <trkpt lat="43.94965" lon="0.19906">
        <ele>188.59</ele>
        <time>2019-04-15T07:16:47.000Z</time>
      </trkpt>
      <trkpt lat="43.94965" lon="0.19885">
        <ele>188.43</ele>
        <time>2019-04-15T07:16:57.000Z</time>
      </trkpt>
      <trkpt lat="43.94967" lon="0.1987">
        <ele>188.64</ele>
        <time>2019-04-15T07:17:07.000Z</time>
      </trkpt>
      <trkpt lat="43.94976" lon="0.1987">
        <ele>188</ele>
        <time>2019-04-15T07:17:17.000Z</time>
      </trkpt>
      <trkpt lat="43.94986" lon="0.19871">
        <ele>187.28</ele>
        <time>2019-04-15T07:17:27.000Z</time>
      </trkpt>
      <trkpt lat="43.94993" lon="0.19873">
        <ele>185.82</ele>
        <time>2019-04-15T07:17:37.000Z</time>
      </trkpt>
      <trkpt lat="43.95001" lon="0.19876">
        <ele>183.78</ele>
        <time>2019-04-15T07:17:47.000Z</time>
      </trkpt>
      <trkpt lat="43.95008" lon="0.19867">
        <ele>182.51</ele>
        <time>2019-04-15T07:17:57.000Z</time>
      </trkpt>
      <trkpt lat="43.95008" lon="0.19856">
        <ele>181.52</ele>
        <time>2019-04-15T07:18:07.000Z</time>
      </trkpt>
      <trkpt lat="43.95008" lon="0.1984">
        <ele>180.82</ele>
        <time>2019-04-15T07:18:17.000Z</time>
      </trkpt>
      <trkpt lat="43.95007" lon="0.1983">
        <ele>179.25</ele>
        <time>2019-04-15T07:18:27.000Z</time>
      </trkpt>
      <trkpt lat="43.95008" lon="0.19827">
        <ele>178.56</ele>
        <time>2019-04-15T07:18:37.000Z</time>
      </trkpt>
      <trkpt lat="43.95005" lon="0.19825">
        <ele>179.17</ele>
        <time>2019-04-15T07:18:47.000Z</time>
      </trkpt>
      <trkpt lat="43.94999" lon="0.19814">
        <ele>177.86</ele>
        <time>2019-04-15T07:18:57.000Z</time>
      </trkpt>
      <trkpt lat="43.94992" lon="0.19804">
        <ele>176.37</ele>
        <time>2019-04-15T07:19:07.000Z</time>
      </trkpt>
      <trkpt lat="43.94986" lon="0.19793">
        <ele>175.21</ele>
        <time>2019-04-15T07:19:17.000Z</time>
      </trkpt>
      <trkpt lat="43.9498" lon="0.19785">
        <ele>173.95</ele>
        <time>2019-04-15T07:19:27.000Z</time>
      </trkpt>
      <trkpt lat="43.94972" lon="0.19778">
        <ele>172.17</ele>
        <time>2019-04-15T07:19:37.000Z</time>
      </trkpt>
      <trkpt lat="43.94965" lon="0.1977">
        <ele>170.45</ele>
        <time>2019-04-15T07:19:47.000Z</time>
      </trkpt>
      <trkpt lat="43.94957" lon="0.19764">
        <ele>169.24</ele>
        <time>2019-04-15T07:19:57.000Z</time>
      </trkpt>
      <trkpt lat="43.94947" lon="0.19763">
        <ele>167.42</ele>
        <time>2019-04-15T07:20:07.000Z</time>
      </trkpt>
      <trkpt lat="43.94937" lon="0.19764">
        <ele>165.94</ele>
        <time>2019-04-15T07:20:17.000Z</time>
      </trkpt>
      <trkpt lat="43.94926" lon="0.19766">
        <ele>164.36</ele>
        <time>2019-04-15T07:20:27.000Z</time>
      </trkpt>
      <trkpt lat="43.94916" lon="0.1977">
        <ele>163.06</ele>
        <time>2019-04-15T07:20:37.000Z</time>
      </trkpt>
      <trkpt lat="43.94911" lon="0.19776">
        <ele>162.22</ele>
        <time>2019-04-15T07:20:47.000Z</time>
      </trkpt>
      <trkpt lat="43.94906" lon="0.19774">
        <ele>161.19</ele>
        <time>2019-04-15T07:20:57.000Z</time>
      </trkpt>
      <trkpt lat="43.94912" lon="0.19775">
        <ele>161.21</ele>
        <time>2019-04-15T07:21:07.000Z</time>
      </trkpt>
      <trkpt lat="43.94925" lon="0.19772">
        <ele>159.94</ele>
        <time>2019-04-15T07:21:17.000Z</time>
      </trkpt>
      <trkpt lat="43.94935" lon="0.19765">
        <ele>159.2</ele>
        <time>2019-04-15T07:21:27.000Z</time>
      </trkpt>
      <trkpt lat="43.94939" lon="0.19754">
        <ele>158.66</ele>
        <time>2019-04-15T07:21:37.000Z</time>
      </trkpt>
      <trkpt lat="43.94924" lon="0.19752">
        <ele>158.12</ele>
        <time>2019-04-15T07:21:47.000Z</time>
      </trkpt>
      <trkpt lat="43.94911" lon="0.19757">
        <ele>156.68</ele>
        <time>2019-04-15T07:21:57.000Z</time>
      </trkpt>
      <trkpt lat="43.94903" lon="0.19761">
        <ele>155.47</ele>
        <time>2019-04-15T07:22:07.000Z</time>
      </trkpt>
      <trkpt lat="43.94892" lon="0.19765">
        <ele>153.85</ele>
        <time>2019-04-15T07:22:17.000Z</time>
      </trkpt>
      <trkpt lat="43.94881" lon="0.19769">
        <ele>152.56</ele>
        <time>2019-04-15T07:22:27.000Z</time>
      </trkpt>
      <trkpt lat="43.94872" lon="0.19782">
        <ele>152.09</ele>
        <time>2019-04-15T07:22:37.000Z</time>
      </trkpt>
      <trkpt lat="43.94862" lon="0.19795">
        <ele>152.11</ele>
        <time>2019-04-15T07:22:47.000Z</time>
      </trkpt>
      <trkpt lat="43.94858" lon="0.19805">
        <ele>151.5</ele>
        <time>2019-04-15T07:22:57.000Z</time>
      </trkpt>
      <trkpt lat="43.94848" lon="0.19818">
        <ele>151.21</ele>
        <time>2019-04-15T07:23:07.000Z</time>
      </trkpt>
      <trkpt lat="43.94838" lon="0.19828">
        <ele>151.1</ele>
        <time>2019-04-15T07:23:17.000Z</time>
      </trkpt>
      <trkpt lat="43.94829" lon="0.19827">
        <ele>151.2</ele>
        <time>2019-04-15T07:23:27.000Z</time>
      </trkpt>
      <trkpt lat="43.94818" lon="0.19829">
        <ele>151.79</ele>
        <time>2019-04-15T07:23:37.000Z</time>
      </trkpt>
      <trkpt lat="43.94807" lon="0.19825">
        <ele>151.99</ele>
        <time>2019-04-15T07:23:47.000Z</time>
      </trkpt>
      <trkpt lat="43.94796" lon="0.19828">
        <ele>152.71</ele>
        <time>2019-04-15T07:23:57.000Z</time>
      </trkpt>
      <trkpt lat="43.94786" lon="0.19829">
        <ele>153.97</ele>
        <time>2019-04-15T07:24:07.000Z</time>
      </trkpt>
      <trkpt lat="43.94777" lon="0.19832">
        <ele>155.2</ele>
        <time>2019-04-15T07:24:17.000Z</time>
      </trkpt>
      <trkpt lat="43.94767" lon="0.19835">
        <ele>155.89</ele>
        <time>2019-04-15T07:24:27.000Z</time>
      </trkpt>
      <trkpt lat="43.94757" lon="0.19841">
        <ele>156.52</ele>
        <time>2019-04-15T07:24:37.000Z</time>
      </trkpt>
      <trkpt lat="43.94747" lon="0.19847">
        <ele>156.46</ele>
        <time>2019-04-15T07:24:47.000Z</time>
      </trkpt>
      <trkpt lat="43.94737" lon="0.19853">
        <ele>156.4</ele>
        <time>2019-04-15T07:24:57.000Z</time>
      </trkpt>
      <trkpt lat="43.94726" lon="0.19856">
        <ele>156.18</ele>
        <time>2019-04-15T07:25:07.000Z</time>
      </trkpt>
      <trkpt lat="43.94715" lon="0.19859">
        <ele>156.02</ele>
        <time>2019-04-15T07:25:17.000Z</time>
      </trkpt>
      <trkpt lat="43.94704" lon="0.19859">
        <ele>156.07</ele>
        <time>2019-04-15T07:25:27.000Z</time>
      </trkpt>
      <trkpt lat="43.94695" lon="0.19859">
        <ele>156.09</ele>
        <time>2019-04-15T07:25:37.000Z</time>
      </trkpt>
      <trkpt lat="43.94682" lon="0.1986">
        <ele>156.09</ele>
        <time>2019-04-15T07:25:47.000Z</time>
      </trkpt>
      <trkpt lat="43.94669" lon="0.19863">
        <ele>154.92</ele>
        <time>2019-04-15T07:25:57.000Z</time>
      </trkpt>
      <trkpt lat="43.94659" lon="0.19864">
        <ele>154.57</ele>
        <time>2019-04-15T07:26:07.000Z</time>
      </trkpt>
      <trkpt lat="43.94649" lon="0.19867">
        <ele>154.41</ele>
        <time>2019-04-15T07:26:17.000Z</time>
      </trkpt>
      <trkpt lat="43.94636" lon="0.19873">
        <ele>154.28</ele>
        <time>2019-04-15T07:26:27.000Z</time>
      </trkpt>
      <trkpt lat="43.94626" lon="0.19872">
        <ele>154.35</ele>
        <time>2019-04-15T07:26:37.000Z</time>
      </trkpt>
      <trkpt lat="43.94617" lon="0.19875">
        <ele>154.86</ele>
        <time>2019-04-15T07:26:47.000Z</time>
      </trkpt>
      <trkpt lat="43.94605" lon="0.19877">
        <ele>154.48</ele>
        <time>2019-04-15T07:26:57.000Z</time>
      </trkpt>
      <trkpt lat="43.94592" lon="0.1988">
        <ele>154.43</ele>
        <time>2019-04-15T07:27:07.000Z</time>
      </trkpt>
      <trkpt lat="43.94581" lon="0.19883">
        <ele>154.31</ele>
        <time>2019-04-15T07:27:17.000Z</time>
      </trkpt>
      <trkpt lat="43.94569" lon="0.19886">
        <ele>154.45</ele>
        <time>2019-04-15T07:27:27.000Z</time>
      </trkpt>
      <trkpt lat="43.94557" lon="0.19887">
        <ele>154.64</ele>
        <time>2019-04-15T07:27:37.000Z</time>
      </trkpt>
      <trkpt lat="43.94544" lon="0.19891">
        <ele>154.78</ele>
        <time>2019-04-15T07:27:47.000Z</time>
      </trkpt>
      <trkpt lat="43.94532" lon="0.19895">
        <ele>154.77</ele>
        <time>2019-04-15T07:27:57.000Z</time>
      </trkpt>
      <trkpt lat="43.94521" lon="0.19899">
        <ele>154.89</ele>
        <time>2019-04-15T07:28:07.000Z</time>
      </trkpt>
      <trkpt lat="43.94509" lon="0.19902">
        <ele>155.04</ele>
        <time>2019-04-15T07:28:17.000Z</time>
      </trkpt>
      <trkpt lat="43.94496" lon="0.19905">
        <ele>155.14</ele>
        <time>2019-04-15T07:28:27.000Z</time>
      </trkpt>
      <trkpt lat="43.94483" lon="0.19909">
        <ele>154.83</ele>
        <time>2019-04-15T07:28:37.000Z</time>
      </trkpt>
      <trkpt lat="43.94473" lon="0.19913">
        <ele>154.8</ele>
        <time>2019-04-15T07:28:47.000Z</time>
      </trkpt>
      <trkpt lat="43.9446" lon="0.19921">
        <ele>154.56</ele>
        <time>2019-04-15T07:28:57.000Z</time>
      </trkpt>
      <trkpt lat="43.94452" lon="0.19926">
        <ele>154.19</ele>
        <time>2019-04-15T07:29:07.000Z</time>
      </trkpt>
      <trkpt lat="43.94441" lon="0.19929">
        <ele>154.31</ele>
        <time>2019-04-15T07:29:17.000Z</time>
      </trkpt>
      <trkpt lat="43.94428" lon="0.19928">
        <ele>154.51</ele>
        <time>2019-04-15T07:29:27.000Z</time>
      </trkpt>
      <trkpt lat="43.94418" lon="0.19928">
        <ele>154.92</ele>
        <time>2019-04-15T07:29:37.000Z</time>
      </trkpt>
      <trkpt lat="43.94406" lon="0.19925">
        <ele>155.47</ele>
        <time>2019-04-15T07:29:47.000Z</time>
      </trkpt>
      <trkpt lat="43.94394" lon="0.19923">
        <ele>155.71</ele>
        <time>2019-04-15T07:29:57.000Z</time>
      </trkpt>
      <trkpt lat="43.94383" lon="0.19919">
        <ele>156.18</ele>
        <time>2019-04-15T07:30:07.000Z</time>
      </trkpt>
      <trkpt lat="43.94373" lon="0.19916">
        <ele>156.62</ele>
        <time>2019-04-15T07:30:17.000Z</time>
      </trkpt>
      <trkpt lat="43.94361" lon="0.1991">
        <ele>156.95</ele>
        <time>2019-04-15T07:30:27.000Z</time>
      </trkpt>
      <trkpt lat="43.9435" lon="0.19906">
        <ele>157.36</ele>
        <time>2019-04-15T07:30:37.000Z</time>
      </trkpt>
      <trkpt lat="43.94339" lon="0.19901">
        <ele>157.77</ele>
        <time>2019-04-15T07:30:47.000Z</time>
      </trkpt>
      <trkpt lat="43.94328" lon="0.19894">
        <ele>158.44</ele>
        <time>2019-04-15T07:30:57.000Z</time>
      </trkpt>
      <trkpt lat="43.94317" lon="0.1989">
        <ele>159.24</ele>
        <time>2019-04-15T07:31:07.000Z</time>
      </trkpt>
      <trkpt lat="43.94306" lon="0.19887">
        <ele>160.1</ele>
        <time>2019-04-15T07:31:17.000Z</time>
      </trkpt>
      <trkpt lat="43.94296" lon="0.19886">
        <ele>160.47</ele>
        <time>2019-04-15T07:31:27.000Z</time>
      </trkpt>
      <trkpt lat="43.94284" lon="0.19884">
        <ele>160.64</ele>
        <time>2019-04-15T07:31:37.000Z</time>
      </trkpt>
      <trkpt lat="43.94274" lon="0.19881">
        <ele>160.79</ele>
        <time>2019-04-15T07:31:47.000Z</time>
      </trkpt>
      <trkpt lat="43.94262" lon="0.19877">
        <ele>160.34</ele>
        <time>2019-04-15T07:31:57.000Z</time>
      </trkpt>
      <trkpt lat="43.9425" lon="0.19876">
        <ele>159.16</ele>
        <time>2019-04-15T07:32:07.000Z</time>
      </trkpt>
      <trkpt lat="43.94238" lon="0.19872">
        <ele>158.65</ele>
        <time>2019-04-15T07:32:17.000Z</time>
      </trkpt>
      <trkpt lat="43.94227" lon="0.1987">
        <ele>157.82</ele>
        <time>2019-04-15T07:32:27.000Z</time>
      </trkpt>
      <trkpt lat="43.94218" lon="0.19864">
        <ele>157.09</ele>
        <time>2019-04-15T07:32:37.000Z</time>
      </trkpt>
      <trkpt lat="43.94206" lon="0.19857">
        <ele>156.49</ele>
        <time>2019-04-15T07:32:47.000Z</time>
      </trkpt>
      <trkpt lat="43.94196" lon="0.19849">
        <ele>155.94</ele>
        <time>2019-04-15T07:32:57.000Z</time>
      </trkpt>
      <trkpt lat="43.94189" lon="0.19844">
        <ele>155.69</ele>
        <time>2019-04-15T07:33:07.000Z</time>
      </trkpt>
      <trkpt lat="43.94188" lon="0.19845">
        <ele>155.64</ele>
        <time>2019-04-15T07:33:17.000Z</time>
      </trkpt>
      <trkpt lat="43.94187" lon="0.19846">
        <ele>155.87</ele>
        <time>2019-04-15T07:33:27.000Z</time>
      </trkpt>
      <trkpt lat="43.94186" lon="0.19846">
        <ele>155.96</ele>
        <time>2019-04-15T07:34:16.000Z</time>
      </trkpt>
      <trkpt lat="43.94186" lon="0.19844">
        <ele>155.99</ele>
        <time>2019-04-15T07:34:35.000Z</time>
      </trkpt>
      <trkpt lat="43.94178" lon="0.19837">
        <ele>155.89</ele>
        <time>2019-04-15T07:34:45.000Z</time>
      </trkpt>
      <trkpt lat="43.94168" lon="0.19834">
        <ele>155.76</ele>
        <time>2019-04-15T07:34:55.000Z</time>
      </trkpt>
      <trkpt lat="43.94158" lon="0.19826">
        <ele>154.6</ele>
        <time>2019-04-15T07:35:05.000Z</time>
      </trkpt>
      <trkpt lat="43.94147" lon="0.19818">
        <ele>153.91</ele>
        <time>2019-04-15T07:35:15.000Z</time>
      </trkpt>
      <trkpt lat="43.94137" lon="0.1981">
        <ele>152.92</ele>
        <time>2019-04-15T07:35:25.000Z</time>
      </trkpt>
      <trkpt lat="43.94126" lon="0.19802">
        <ele>152.59</ele>
        <time>2019-04-15T07:35:35.000Z</time>
      </trkpt>
      <trkpt lat="43.94116" lon="0.19792">
        <ele>152.16</ele>
        <time>2019-04-15T07:35:45.000Z</time>
      </trkpt>
      <trkpt lat="43.94105" lon="0.19782">
        <ele>152.02</ele>
        <time>2019-04-15T07:35:55.000Z</time>
      </trkpt>
      <trkpt lat="43.94098" lon="0.19772">
        <ele>152.27</ele>
        <time>2019-04-15T07:36:05.000Z</time>
      </trkpt>
      <trkpt lat="43.94093" lon="0.19763">
        <ele>153.01</ele>
        <time>2019-04-15T07:36:15.000Z</time>
      </trkpt>
      <trkpt lat="43.94086" lon="0.19749">
        <ele>153.19</ele>
        <time>2019-04-15T07:36:25.000Z</time>
      </trkpt>
      <trkpt lat="43.94081" lon="0.19735">
        <ele>153.9</ele>
        <time>2019-04-15T07:36:35.000Z</time>
      </trkpt>
      <trkpt lat="43.94074" lon="0.19723">
        <ele>155.03</ele>
        <time>2019-04-15T07:36:45.000Z</time>
      </trkpt>
      <trkpt lat="43.94068" lon="0.19712">
        <ele>156.28</ele>
        <time>2019-04-15T07:36:55.000Z</time>
      </trkpt>
      <trkpt lat="43.9406" lon="0.19704">
        <ele>157.07</ele>
        <time>2019-04-15T07:37:05.000Z</time>
      </trkpt>
      <trkpt lat="43.94053" lon="0.19691">
        <ele>157.02</ele>
        <time>2019-04-15T07:37:15.000Z</time>
      </trkpt>
      <trkpt lat="43.94047" lon="0.1968">
        <ele>156.76</ele>
        <time>2019-04-15T07:37:25.000Z</time>
      </trkpt>
      <trkpt lat="43.94038" lon="0.19671">
        <ele>155.89</ele>
        <time>2019-04-15T07:37:35.000Z</time>
      </trkpt>
      <trkpt lat="43.94028" lon="0.19662">
        <ele>155.23</ele>
        <time>2019-04-15T07:37:45.000Z</time>
      </trkpt>
      <trkpt lat="43.94015" lon="0.19654">
        <ele>154.91</ele>
        <time>2019-04-15T07:37:55.000Z</time>
      </trkpt>
      <trkpt lat="43.94003" lon="0.19651">
        <ele>154.96</ele>
        <time>2019-04-15T07:38:05.000Z</time>
      </trkpt>
      <trkpt lat="43.93991" lon="0.1965">
        <ele>155.1</ele>
        <time>2019-04-15T07:38:15.000Z</time>
      </trkpt>
      <trkpt lat="43.93981" lon="0.19648">
        <ele>155.39</ele>
        <time>2019-04-15T07:38:25.000Z</time>
      </trkpt>
      <trkpt lat="43.93969" lon="0.19645">
        <ele>155.46</ele>
        <time>2019-04-15T07:38:35.000Z</time>
      </trkpt>
      <trkpt lat="43.93958" lon="0.19643">
        <ele>155.81</ele>
        <time>2019-04-15T07:38:45.000Z</time>
      </trkpt>
      <trkpt lat="43.93945" lon="0.1964">
        <ele>156.07</ele>
        <time>2019-04-15T07:38:55.000Z</time>
      </trkpt>
      <trkpt lat="43.93935" lon="0.19638">
        <ele>156.46</ele>
        <time>2019-04-15T07:39:05.000Z</time>
      </trkpt>
      <trkpt lat="43.93924" lon="0.19637">
        <ele>156.67</ele>
        <time>2019-04-15T07:39:15.000Z</time>
      </trkpt>
      <trkpt lat="43.93912" lon="0.19634">
        <ele>156.39</ele>
        <time>2019-04-15T07:39:25.000Z</time>
      </trkpt>
      <trkpt lat="43.93901" lon="0.19633">
        <ele>156.42</ele>
        <time>2019-04-15T07:39:35.000Z</time>
      </trkpt>
      <trkpt lat="43.93891" lon="0.19631">
        <ele>156.44</ele>
        <time>2019-04-15T07:39:45.000Z</time>
      </trkpt>
      <trkpt lat="43.93881" lon="0.19627">
        <ele>156.39</ele>
        <time>2019-04-15T07:39:55.000Z</time>
      </trkpt>
      <trkpt lat="43.93869" lon="0.19624">
        <ele>156.67</ele>
        <time>2019-04-15T07:40:05.000Z</time>
      </trkpt>
      <trkpt lat="43.93859" lon="0.19622">
        <ele>156.54</ele>
        <time>2019-04-15T07:40:15.000Z</time>
      </trkpt>
      <trkpt lat="43.93849" lon="0.19617">
        <ele>156.29</ele>
        <time>2019-04-15T07:40:25.000Z</time>
      </trkpt>
      <trkpt lat="43.9384" lon="0.19609">
        <ele>156.37</ele>
        <time>2019-04-15T07:40:35.000Z</time>
      </trkpt>
      <trkpt lat="43.93829" lon="0.19605">
        <ele>157.29</ele>
        <time>2019-04-15T07:40:45.000Z</time>
      </trkpt>
      <trkpt lat="43.93819" lon="0.196">
        <ele>158.08</ele>
        <time>2019-04-15T07:40:55.000Z</time>
      </trkpt>
      <trkpt lat="43.93811" lon="0.19597">
        <ele>158.46</ele>
        <time>2019-04-15T07:41:05.000Z</time>
      </trkpt>
      <trkpt lat="43.93799" lon="0.19592">
        <ele>158.91</ele>
        <time>2019-04-15T07:41:15.000Z</time>
      </trkpt>
      <trkpt lat="43.93788" lon="0.1959">
        <ele>158.94</ele>
        <time>2019-04-15T07:41:25.000Z</time>
      </trkpt>
      <trkpt lat="43.93776" lon="0.19585">
        <ele>158.72</ele>
        <time>2019-04-15T07:41:35.000Z</time>
      </trkpt>
      <trkpt lat="43.93764" lon="0.1958">
        <ele>158.66</ele>
        <time>2019-04-15T07:41:45.000Z</time>
      </trkpt>
      <trkpt lat="43.93752" lon="0.19577">
        <ele>158.44</ele>
        <time>2019-04-15T07:41:55.000Z</time>
      </trkpt>
      <trkpt lat="43.93742" lon="0.19573">
        <ele>157.9</ele>
        <time>2019-04-15T07:42:05.000Z</time>
      </trkpt>
      <trkpt lat="43.93731" lon="0.19572">
        <ele>158.3</ele>
        <time>2019-04-15T07:42:15.000Z</time>
      </trkpt>
      <trkpt lat="43.93719" lon="0.19571">
        <ele>157.75</ele>
        <time>2019-04-15T07:42:25.000Z</time>
      </trkpt>
      <trkpt lat="43.93708" lon="0.1957">
        <ele>157.28</ele>
        <time>2019-04-15T07:42:35.000Z</time>
      </trkpt>
      <trkpt lat="43.937" lon="0.19563">
        <ele>156.67</ele>
        <time>2019-04-15T07:42:45.000Z</time>
      </trkpt>
      <trkpt lat="43.93689" lon="0.19561">
        <ele>156.9</ele>
        <time>2019-04-15T07:42:55.000Z</time>
      </trkpt>
      <trkpt lat="43.93676" lon="0.1956">
        <ele>157.01</ele>
        <time>2019-04-15T07:43:05.000Z</time>
      </trkpt>
      <trkpt lat="43.93663" lon="0.19558">
        <ele>156.96</ele>
        <time>2019-04-15T07:43:15.000Z</time>
      </trkpt>
      <trkpt lat="43.93653" lon="0.19559">
        <ele>156.64</ele>
        <time>2019-04-15T07:43:25.000Z</time>
      </trkpt>
      <trkpt lat="43.93642" lon="0.19561">
        <ele>157.35</ele>
        <time>2019-04-15T07:43:35.000Z</time>
      </trkpt>
      <trkpt lat="43.93631" lon="0.19561">
        <ele>157.07</ele>
        <time>2019-04-15T07:43:45.000Z</time>
      </trkpt>
      <trkpt lat="43.93619" lon="0.19564">
        <ele>157.19</ele>
        <time>2019-04-15T07:43:55.000Z</time>
      </trkpt>
      <trkpt lat="43.93606" lon="0.19565">
        <ele>157.43</ele>
        <time>2019-04-15T07:44:05.000Z</time>
      </trkpt>
      <trkpt lat="43.93595" lon="0.19565">
        <ele>157.56</ele>
        <time>2019-04-15T07:44:15.000Z</time>
      </trkpt>
      <trkpt lat="43.93584" lon="0.19565">
        <ele>157.25</ele>
        <time>2019-04-15T07:44:25.000Z</time>
      </trkpt>
      <trkpt lat="43.93574" lon="0.19566">
        <ele>157.02</ele>
        <time>2019-04-15T07:44:35.000Z</time>
      </trkpt>
      <trkpt lat="43.93561" lon="0.19569">
        <ele>156.94</ele>
        <time>2019-04-15T07:44:45.000Z</time>
      </trkpt>
      <trkpt lat="43.9355" lon="0.19571">
        <ele>156.68</ele>
        <time>2019-04-15T07:44:55.000Z</time>
      </trkpt>
      <trkpt lat="43.93538" lon="0.19571">
        <ele>156.54</ele>
        <time>2019-04-15T07:45:05.000Z</time>
      </trkpt>
      <trkpt lat="43.9353" lon="0.19575">
        <ele>156.54</ele>
        <time>2019-04-15T07:45:15.000Z</time>
      </trkpt>
      <trkpt lat="43.93517" lon="0.1958">
        <ele>157.19</ele>
        <time>2019-04-15T07:45:25.000Z</time>
      </trkpt>
      <trkpt lat="43.93506" lon="0.19581">
        <ele>157.66</ele>
        <time>2019-04-15T07:45:35.000Z</time>
      </trkpt>
      <trkpt lat="43.93498" lon="0.19589">
        <ele>158.33</ele>
        <time>2019-04-15T07:45:45.000Z</time>
      </trkpt>
      <trkpt lat="43.93484" lon="0.19591">
        <ele>158.22</ele>
        <time>2019-04-15T07:45:55.000Z</time>
      </trkpt>
      <trkpt lat="43.93472" lon="0.19592">
        <ele>158.05</ele>
        <time>2019-04-15T07:46:05.000Z</time>
      </trkpt>
      <trkpt lat="43.93461" lon="0.19594">
        <ele>157.88</ele>
        <time>2019-04-15T07:46:15.000Z</time>
      </trkpt>
      <trkpt lat="43.9345" lon="0.19593">
        <ele>157.4</ele>
        <time>2019-04-15T07:46:25.000Z</time>
      </trkpt>
      <trkpt lat="43.93438" lon="0.19594">
        <ele>156.83</ele>
        <time>2019-04-15T07:46:35.000Z</time>
      </trkpt>
      <trkpt lat="43.93424" lon="0.19593">
        <ele>156.45</ele>
        <time>2019-04-15T07:46:45.000Z</time>
      </trkpt>
      <trkpt lat="43.93414" lon="0.19592">
        <ele>156.09</ele>
        <time>2019-04-15T07:46:55.000Z</time>
      </trkpt>
      <trkpt lat="43.93402" lon="0.19592">
        <ele>156.01</ele>
        <time>2019-04-15T07:47:05.000Z</time>
      </trkpt>
      <trkpt lat="43.93389" lon="0.19594">
        <ele>156.18</ele>
        <time>2019-04-15T07:47:15.000Z</time>
      </trkpt>
      <trkpt lat="43.93378" lon="0.19597">
        <ele>156.84</ele>
        <time>2019-04-15T07:47:25.000Z</time>
      </trkpt>
      <trkpt lat="43.93368" lon="0.19606">
        <ele>157.5</ele>
        <time>2019-04-15T07:47:35.000Z</time>
      </trkpt>
      <trkpt lat="43.93359" lon="0.19612">
        <ele>158.65</ele>
        <time>2019-04-15T07:47:45.000Z</time>
      </trkpt>
      <trkpt lat="43.93349" lon="0.19615">
        <ele>158.92</ele>
        <time>2019-04-15T07:47:55.000Z</time>
      </trkpt>
      <trkpt lat="43.93339" lon="0.19617">
        <ele>159.2</ele>
        <time>2019-04-15T07:48:05.000Z</time>
      </trkpt>
      <trkpt lat="43.93327" lon="0.19617">
        <ele>159.27</ele>
        <time>2019-04-15T07:48:15.000Z</time>
      </trkpt>
      <trkpt lat="43.93316" lon="0.19617">
        <ele>159.12</ele>
        <time>2019-04-15T07:48:25.000Z</time>
      </trkpt>
      <trkpt lat="43.93305" lon="0.19616">
        <ele>158.41</ele>
        <time>2019-04-15T07:48:35.000Z</time>
      </trkpt>
      <trkpt lat="43.93294" lon="0.19616">
        <ele>157.73</ele>
        <time>2019-04-15T07:48:45.000Z</time>
      </trkpt>
      <trkpt lat="43.93283" lon="0.19613">
        <ele>157.33</ele>
        <time>2019-04-15T07:48:55.000Z</time>
      </trkpt>
      <trkpt lat="43.93271" lon="0.1961">
        <ele>157.53</ele>
        <time>2019-04-15T07:49:05.000Z</time>
      </trkpt>
      <trkpt lat="43.93258" lon="0.1961">
        <ele>157.87</ele>
        <time>2019-04-15T07:49:15.000Z</time>
      </trkpt>
      <trkpt lat="43.93247" lon="0.19608">
        <ele>157.96</ele>
        <time>2019-04-15T07:49:25.000Z</time>
      </trkpt>
      <trkpt lat="43.93237" lon="0.19606">
        <ele>158.19</ele>
        <time>2019-04-15T07:49:35.000Z</time>
      </trkpt>
      <trkpt lat="43.93226" lon="0.19604">
        <ele>158.4</ele>
        <time>2019-04-15T07:49:45.000Z</time>
      </trkpt>
      <trkpt lat="43.93213" lon="0.19603">
        <ele>159.03</ele>
        <time>2019-04-15T07:49:55.000Z</time>
      </trkpt>
      <trkpt lat="43.93201" lon="0.19602">
        <ele>159.34</ele>
        <time>2019-04-15T07:50:05.000Z</time>
      </trkpt>
      <trkpt lat="43.9319" lon="0.19602">
        <ele>159.92</ele>
        <time>2019-04-15T07:50:15.000Z</time>
      </trkpt>
      <trkpt lat="43.93181" lon="0.196">
        <ele>160.27</ele>
        <time>2019-04-15T07:50:25.000Z</time>
      </trkpt>
      <trkpt lat="43.93167" lon="0.19599">
        <ele>160.36</ele>
        <time>2019-04-15T07:50:35.000Z</time>
      </trkpt>
      <trkpt lat="43.93157" lon="0.19595">
        <ele>161.29</ele>
        <time>2019-04-15T07:50:45.000Z</time>
      </trkpt>
      <trkpt lat="43.93144" lon="0.19593">
        <ele>161.87</ele>
        <time>2019-04-15T07:50:55.000Z</time>
      </trkpt>
      <trkpt lat="43.93136" lon="0.19588">
        <ele>161.83</ele>
        <time>2019-04-15T07:51:05.000Z</time>
      </trkpt>
      <trkpt lat="43.93125" lon="0.19578">
        <ele>161.11</ele>
        <time>2019-04-15T07:51:15.000Z</time>
      </trkpt>
      <trkpt lat="43.93115" lon="0.19568">
        <ele>160.25</ele>
        <time>2019-04-15T07:51:25.000Z</time>
      </trkpt>
      <trkpt lat="43.93108" lon="0.19563">
        <ele>159.84</ele>
        <time>2019-04-15T07:51:35.000Z</time>
      </trkpt>
      <trkpt lat="43.931" lon="0.19554">
        <ele>158.96</ele>
        <time>2019-04-15T07:51:45.000Z</time>
      </trkpt>
      <trkpt lat="43.93092" lon="0.19548">
        <ele>157.87</ele>
        <time>2019-04-15T07:51:55.000Z</time>
      </trkpt>
      <trkpt lat="43.93082" lon="0.19536">
        <ele>156.99</ele>
        <time>2019-04-15T07:52:05.000Z</time>
      </trkpt>
      <trkpt lat="43.93068" lon="0.1953">
        <ele>157.22</ele>
        <time>2019-04-15T07:52:15.000Z</time>
      </trkpt>
      <trkpt lat="43.93055" lon="0.1953">
        <ele>158.06</ele>
        <time>2019-04-15T07:52:25.000Z</time>
      </trkpt>
      <trkpt lat="43.93043" lon="0.19534">
        <ele>158.98</ele>
        <time>2019-04-15T07:52:35.000Z</time>
      </trkpt>
      <trkpt lat="43.93031" lon="0.19536">
        <ele>159.67</ele>
        <time>2019-04-15T07:52:45.000Z</time>
      </trkpt>
      <trkpt lat="43.93019" lon="0.19538">
        <ele>160.49</ele>
        <time>2019-04-15T07:52:55.000Z</time>
      </trkpt>
      <trkpt lat="43.93007" lon="0.1954">
        <ele>161.06</ele>
        <time>2019-04-15T07:53:05.000Z</time>
      </trkpt>
      <trkpt lat="43.92996" lon="0.19541">
        <ele>161.38</ele>
        <time>2019-04-15T07:53:15.000Z</time>
      </trkpt>
      <trkpt lat="43.92984" lon="0.19542">
        <ele>162.02</ele>
        <time>2019-04-15T07:53:25.000Z</time>
      </trkpt>
      <trkpt lat="43.92972" lon="0.19543">
        <ele>163.36</ele>
        <time>2019-04-15T07:53:35.000Z</time>
      </trkpt>
      <trkpt lat="43.92961" lon="0.19545">
        <ele>163.6</ele>
        <time>2019-04-15T07:53:45.000Z</time>
      </trkpt>
      <trkpt lat="43.9295" lon="0.19546">
        <ele>164.7</ele>
        <time>2019-04-15T07:53:55.000Z</time>
      </trkpt>
      <trkpt lat="43.92939" lon="0.19549">
        <ele>165.36</ele>
        <time>2019-04-15T07:54:05.000Z</time>
      </trkpt>
      <trkpt lat="43.92927" lon="0.19554">
        <ele>166.59</ele>
        <time>2019-04-15T07:54:15.000Z</time>
      </trkpt>
      <trkpt lat="43.92916" lon="0.19554">
        <ele>167.2</ele>
        <time>2019-04-15T07:54:25.000Z</time>
      </trkpt>
      <trkpt lat="43.92905" lon="0.19557">
        <ele>167.17</ele>
        <time>2019-04-15T07:54:35.000Z</time>
      </trkpt>
      <trkpt lat="43.92893" lon="0.1956">
        <ele>167.62</ele>
        <time>2019-04-15T07:54:45.000Z</time>
      </trkpt>
      <trkpt lat="43.92882" lon="0.19559">
        <ele>168.29</ele>
        <time>2019-04-15T07:54:55.000Z</time>
      </trkpt>
      <trkpt lat="43.92871" lon="0.19558">
        <ele>168.22</ele>
        <time>2019-04-15T07:55:05.000Z</time>
      </trkpt>
      <trkpt lat="43.9286" lon="0.19556">
        <ele>169.21</ele>
        <time>2019-04-15T07:55:15.000Z</time>
      </trkpt>
      <trkpt lat="43.92849" lon="0.19554">
        <ele>170.17</ele>
        <time>2019-04-15T07:55:25.000Z</time>
      </trkpt>
      <trkpt lat="43.92838" lon="0.19553">
        <ele>171.02</ele>
        <time>2019-04-15T07:55:35.000Z</time>
      </trkpt>
      <trkpt lat="43.92828" lon="0.1955">
        <ele>171.98</ele>
        <time>2019-04-15T07:55:45.000Z</time>
      </trkpt>
      <trkpt lat="43.92817" lon="0.19546">
        <ele>173.65</ele>
        <time>2019-04-15T07:55:55.000Z</time>
      </trkpt>
      <trkpt lat="43.92806" lon="0.19544">
        <ele>174.53</ele>
        <time>2019-04-15T07:56:05.000Z</time>
      </trkpt>
      <trkpt lat="43.92793" lon="0.19544">
        <ele>175.41</ele>
        <time>2019-04-15T07:56:15.000Z</time>
      </trkpt>
      <trkpt lat="43.92781" lon="0.19545">
        <ele>175.68</ele>
        <time>2019-04-15T07:56:25.000Z</time>
      </trkpt>
      <trkpt lat="43.92769" lon="0.19546">
        <ele>175.66</ele>
        <time>2019-04-15T07:56:35.000Z</time>
      </trkpt>
      <trkpt lat="43.92758" lon="0.19541">
        <ele>176.08</ele>
        <time>2019-04-15T07:56:45.000Z</time>
      </trkpt>
      <trkpt lat="43.92747" lon="0.19537">
        <ele>177.14</ele>
        <time>2019-04-15T07:56:55.000Z</time>
      </trkpt>
      <trkpt lat="43.92737" lon="0.19536">
        <ele>178.52</ele>
        <time>2019-04-15T07:57:05.000Z</time>
      </trkpt>
      <trkpt lat="43.92725" lon="0.19537">
        <ele>179.16</ele>
        <time>2019-04-15T07:57:15.000Z</time>
      </trkpt>
      <trkpt lat="43.92715" lon="0.1954">
        <ele>179.2</ele>
        <time>2019-04-15T07:57:25.000Z</time>
      </trkpt>
      <trkpt lat="43.92714" lon="0.19545">
        <ele>179.75</ele>
        <time>2019-04-15T07:57:35.000Z</time>
      </trkpt>
      <trkpt lat="43.92711" lon="0.19545">
        <ele>180.1</ele>
        <time>2019-04-15T07:57:45.000Z</time>
      </trkpt>
      <trkpt lat="43.92703" lon="0.19554">
        <ele>180.41</ele>
        <time>2019-04-15T07:57:55.000Z</time>
      </trkpt>
      <trkpt lat="43.92696" lon="0.19566">
        <ele>180.86</ele>
        <time>2019-04-15T07:58:05.000Z</time>
      </trkpt>
      <trkpt lat="43.92687" lon="0.19576">
        <ele>181.6</ele>
        <time>2019-04-15T07:58:15.000Z</time>
      </trkpt>
      <trkpt lat="43.92677" lon="0.19583">
        <ele>181.86</ele>
        <time>2019-04-15T07:58:25.000Z</time>
      </trkpt>
      <trkpt lat="43.92667" lon="0.19588">
        <ele>180.86</ele>
        <time>2019-04-15T07:58:35.000Z</time>
      </trkpt>
      <trkpt lat="43.92658" lon="0.19593">
        <ele>180.22</ele>
        <time>2019-04-15T07:58:45.000Z</time>
      </trkpt>
      <trkpt lat="43.9265" lon="0.19597">
        <ele>178.43</ele>
        <time>2019-04-15T07:58:55.000Z</time>
      </trkpt>
      <trkpt lat="43.92642" lon="0.19603">
        <ele>177.05</ele>
        <time>2019-04-15T07:59:05.000Z</time>
      </trkpt>
      <trkpt lat="43.92634" lon="0.19608">
        <ele>175.73</ele>
        <time>2019-04-15T07:59:15.000Z</time>
      </trkpt>
      <trkpt lat="43.92625" lon="0.19609">
        <ele>174.63</ele>
        <time>2019-04-15T07:59:25.000Z</time>
      </trkpt>
      <trkpt lat="43.92617" lon="0.1961">
        <ele>173.82</ele>
        <time>2019-04-15T07:59:35.000Z</time>
      </trkpt>
      <trkpt lat="43.92605" lon="0.19613">
        <ele>173.48</ele>
        <time>2019-04-15T07:59:45.000Z</time>
      </trkpt>
      <trkpt lat="43.92594" lon="0.19615">
        <ele>173.47</ele>
        <time>2019-04-15T07:59:55.000Z</time>
      </trkpt>
      <trkpt lat="43.92583" lon="0.1962">
        <ele>173.23</ele>
        <time>2019-04-15T08:00:05.000Z</time>
      </trkpt>
      <trkpt lat="43.92569" lon="0.19626">
        <ele>173.17</ele>
        <time>2019-04-15T08:00:15.000Z</time>
      </trkpt>
      <trkpt lat="43.92559" lon="0.19633">
        <ele>173.21</ele>
        <time>2019-04-15T08:00:25.000Z</time>
      </trkpt>
      <trkpt lat="43.92548" lon="0.19638">
        <ele>172.85</ele>
        <time>2019-04-15T08:00:35.000Z</time>
      </trkpt>
      <trkpt lat="43.92537" lon="0.19645">
        <ele>173.02</ele>
        <time>2019-04-15T08:00:45.000Z</time>
      </trkpt>
      <trkpt lat="43.92528" lon="0.19651">
        <ele>173.21</ele>
        <time>2019-04-15T08:00:55.000Z</time>
      </trkpt>
      <trkpt lat="43.92517" lon="0.19656">
        <ele>173.09</ele>
        <time>2019-04-15T08:01:05.000Z</time>
      </trkpt>
      <trkpt lat="43.92507" lon="0.19662">
        <ele>173.07</ele>
        <time>2019-04-15T08:01:15.000Z</time>
      </trkpt>
      <trkpt lat="43.92497" lon="0.19665">
        <ele>173.09</ele>
        <time>2019-04-15T08:01:25.000Z</time>
      </trkpt>
      <trkpt lat="43.92481" lon="0.19668">
        <ele>172.96</ele>
        <time>2019-04-15T08:01:35.000Z</time>
      </trkpt>
      <trkpt lat="43.92466" lon="0.19676">
        <ele>172.96</ele>
        <time>2019-04-15T08:01:45.000Z</time>
      </trkpt>
      <trkpt lat="43.92456" lon="0.19681">
        <ele>173.31</ele>
        <time>2019-04-15T08:01:55.000Z</time>
      </trkpt>
      <trkpt lat="43.92444" lon="0.19689">
        <ele>173.18</ele>
        <time>2019-04-15T08:02:05.000Z</time>
      </trkpt>
      <trkpt lat="43.92431" lon="0.19696">
        <ele>173.08</ele>
        <time>2019-04-15T08:02:15.000Z</time>
      </trkpt>
      <trkpt lat="43.9242" lon="0.19703">
        <ele>173.05</ele>
        <time>2019-04-15T08:02:25.000Z</time>
      </trkpt>
      <trkpt lat="43.92408" lon="0.19706">
        <ele>173.12</ele>
        <time>2019-04-15T08:02:35.000Z</time>
      </trkpt>
      <trkpt lat="43.92396" lon="0.19712">
        <ele>173.11</ele>
        <time>2019-04-15T08:02:45.000Z</time>
      </trkpt>
      <trkpt lat="43.92384" lon="0.19717">
        <ele>173.27</ele>
        <time>2019-04-15T08:02:55.000Z</time>
      </trkpt>
      <trkpt lat="43.92373" lon="0.19727">
        <ele>173.3</ele>
        <time>2019-04-15T08:03:05.000Z</time>
      </trkpt>
      <trkpt lat="43.92362" lon="0.19736">
        <ele>173.26</ele>
        <time>2019-04-15T08:03:15.000Z</time>
      </trkpt>
      <trkpt lat="43.92352" lon="0.19745">
        <ele>173.73</ele>
        <time>2019-04-15T08:03:25.000Z</time>
      </trkpt>
      <trkpt lat="43.92341" lon="0.19754">
        <ele>173.91</ele>
        <time>2019-04-15T08:03:35.000Z</time>
      </trkpt>
      <trkpt lat="43.92332" lon="0.19764">
        <ele>173.99</ele>
        <time>2019-04-15T08:03:45.000Z</time>
      </trkpt>
      <trkpt lat="43.9232" lon="0.19773">
        <ele>173.52</ele>
        <time>2019-04-15T08:03:55.000Z</time>
      </trkpt>
      <trkpt lat="43.92311" lon="0.19785">
        <ele>173.42</ele>
        <time>2019-04-15T08:04:05.000Z</time>
      </trkpt>
      <trkpt lat="43.92302" lon="0.19799">
        <ele>173.64</ele>
        <time>2019-04-15T08:04:15.000Z</time>
      </trkpt>
      <trkpt lat="43.92292" lon="0.19806">
        <ele>173.56</ele>
        <time>2019-04-15T08:04:25.000Z</time>
      </trkpt>
      <trkpt lat="43.92284" lon="0.19821">
        <ele>173.53</ele>
        <time>2019-04-15T08:04:35.000Z</time>
      </trkpt>
      <trkpt lat="43.92277" lon="0.19834">
        <ele>174.29</ele>
        <time>2019-04-15T08:04:45.000Z</time>
      </trkpt>
      <trkpt lat="43.9227" lon="0.19847">
        <ele>174.08</ele>
        <time>2019-04-15T08:04:55.000Z</time>
      </trkpt>
      <trkpt lat="43.92263" lon="0.1986">
        <ele>174.13</ele>
        <time>2019-04-15T08:05:05.000Z</time>
      </trkpt>
      <trkpt lat="43.92253" lon="0.19875">
        <ele>174.01</ele>
        <time>2019-04-15T08:05:15.000Z</time>
      </trkpt>
      <trkpt lat="43.92246" lon="0.19889">
        <ele>174</ele>
        <time>2019-04-15T08:05:25.000Z</time>
      </trkpt>
      <trkpt lat="43.92239" lon="0.19903">
        <ele>174.1</ele>
        <time>2019-04-15T08:05:35.000Z</time>
      </trkpt>
      <trkpt lat="43.92233" lon="0.19915">
        <ele>173.87</ele>
        <time>2019-04-15T08:05:45.000Z</time>
      </trkpt>
      <trkpt lat="43.92228" lon="0.19933">
        <ele>173.61</ele>
        <time>2019-04-15T08:05:55.000Z</time>
      </trkpt>
      <trkpt lat="43.9222" lon="0.19942">
        <ele>173.97</ele>
        <time>2019-04-15T08:06:05.000Z</time>
      </trkpt>
      <trkpt lat="43.92211" lon="0.19956">
        <ele>173.89</ele>
        <time>2019-04-15T08:06:15.000Z</time>
      </trkpt>
      <trkpt lat="43.92204" lon="0.19972">
        <ele>173.8</ele>
        <time>2019-04-15T08:06:25.000Z</time>
      </trkpt>
      <trkpt lat="43.92197" lon="0.19987">
        <ele>173.43</ele>
        <time>2019-04-15T08:06:35.000Z</time>
      </trkpt>
      <trkpt lat="43.92189" lon="0.20002">
        <ele>173.34</ele>
        <time>2019-04-15T08:06:45.000Z</time>
      </trkpt>
      <trkpt lat="43.92184" lon="0.20016">
        <ele>173.37</ele>
        <time>2019-04-15T08:06:55.000Z</time>
      </trkpt>
      <trkpt lat="43.9218" lon="0.2003">
        <ele>173.51</ele>
        <time>2019-04-15T08:07:05.000Z</time>
      </trkpt>
      <trkpt lat="43.92175" lon="0.20044">
        <ele>173.64</ele>
        <time>2019-04-15T08:07:15.000Z</time>
      </trkpt>
      <trkpt lat="43.92168" lon="0.20063">
        <ele>173.81</ele>
        <time>2019-04-15T08:07:25.000Z</time>
      </trkpt>
      <trkpt lat="43.92163" lon="0.20078">
        <ele>173.66</ele>
        <time>2019-04-15T08:07:35.000Z</time>
      </trkpt>
      <trkpt lat="43.92157" lon="0.20092">
        <ele>173.82</ele>
        <time>2019-04-15T08:07:45.000Z</time>
      </trkpt>
      <trkpt lat="43.92151" lon="0.20109">
        <ele>173.45</ele>
        <time>2019-04-15T08:07:55.000Z</time>
      </trkpt>
      <trkpt lat="43.92143" lon="0.20125">
        <ele>173.57</ele>
        <time>2019-04-15T08:08:05.000Z</time>
      </trkpt>
      <trkpt lat="43.92135" lon="0.20139">
        <ele>173.49</ele>
        <time>2019-04-15T08:08:15.000Z</time>
      </trkpt>
      <trkpt lat="43.92128" lon="0.20152">
        <ele>173.71</ele>
        <time>2019-04-15T08:08:25.000Z</time>
      </trkpt>
      <trkpt lat="43.92123" lon="0.20158">
        <ele>174.01</ele>
        <time>2019-04-15T08:08:35.000Z</time>
      </trkpt>
      <trkpt lat="43.92116" lon="0.20168">
        <ele>173.96</ele>
        <time>2019-04-15T08:08:45.000Z</time>
      </trkpt>
      <trkpt lat="43.9211" lon="0.20175">
        <ele>174.12</ele>
        <time>2019-04-15T08:08:55.000Z</time>
      </trkpt>
      <trkpt lat="43.92103" lon="0.20185">
        <ele>174.34</ele>
        <time>2019-04-15T08:09:05.000Z</time>
      </trkpt>
      <trkpt lat="43.92098" lon="0.20195">
        <ele>174.38</ele>
        <time>2019-04-15T08:09:15.000Z</time>
      </trkpt>
      <trkpt lat="43.92093" lon="0.20202">
        <ele>174.02</ele>
        <time>2019-04-15T08:09:25.000Z</time>
      </trkpt>
      <trkpt lat="43.92089" lon="0.20208">
        <ele>174.23</ele>
        <time>2019-04-15T08:09:35.000Z</time>
      </trkpt>
      <trkpt lat="43.92082" lon="0.20216">
        <ele>174.25</ele>
        <time>2019-04-15T08:09:45.000Z</time>
      </trkpt>
      <trkpt lat="43.92077" lon="0.20221">
        <ele>174.7</ele>
        <time>2019-04-15T08:09:55.000Z</time>
      </trkpt>
      <trkpt lat="43.92069" lon="0.20227">
        <ele>174.21</ele>
        <time>2019-04-15T08:10:05.000Z</time>
      </trkpt>
      <trkpt lat="43.92064" lon="0.20236">
        <ele>174.44</ele>
        <time>2019-04-15T08:10:15.000Z</time>
      </trkpt>
      <trkpt lat="43.92063" lon="0.20239">
        <ele>174.42</ele>
        <time>2019-04-15T08:10:25.000Z</time>
      </trkpt>
      <trkpt lat="43.92062" lon="0.2024">
        <ele>174.47</ele>
        <time>2019-04-15T08:10:37.000Z</time>
      </trkpt>
      <trkpt lat="43.92063" lon="0.20237">
        <ele>174.63</ele>
        <time>2019-04-15T08:10:50.000Z</time>
      </trkpt>
      <trkpt lat="43.92064" lon="0.20239">
        <ele>174.88</ele>
        <time>2019-04-15T08:11:00.000Z</time>
      </trkpt>
      <trkpt lat="43.92065" lon="0.20241">
        <ele>176.3</ele>
        <time>2019-04-15T08:11:33.000Z</time>
      </trkpt>
      <trkpt lat="43.92065" lon="0.20242">
        <ele>175.84</ele>
        <time>2019-04-15T08:11:43.000Z</time>
      </trkpt>
      <trkpt lat="43.92065" lon="0.20244">
        <ele>175.62</ele>
        <time>2019-04-15T08:11:55.000Z</time>
      </trkpt>
      <trkpt lat="43.92063" lon="0.20247">
        <ele>176.17</ele>
        <time>2019-04-15T08:12:05.000Z</time>
      </trkpt>
      <trkpt lat="43.92057" lon="0.20251">
        <ele>176.01</ele>
        <time>2019-04-15T08:12:15.000Z</time>
      </trkpt>
      <trkpt lat="43.92049" lon="0.20262">
        <ele>175.09</ele>
        <time>2019-04-15T08:12:25.000Z</time>
      </trkpt>
      <trkpt lat="43.9204" lon="0.20271">
        <ele>174.68</ele>
        <time>2019-04-15T08:12:35.000Z</time>
      </trkpt>
      <trkpt lat="43.92031" lon="0.2028">
        <ele>175.18</ele>
        <time>2019-04-15T08:12:45.000Z</time>
      </trkpt>
      <trkpt lat="43.92036" lon="0.20293">
        <ele>174.53</ele>
        <time>2019-04-15T08:12:55.000Z</time>
      </trkpt>
      <trkpt lat="43.92044" lon="0.20298">
        <ele>173.41</ele>
        <time>2019-04-15T08:13:05.000Z</time>
      </trkpt>
      <trkpt lat="43.92053" lon="0.20294">
        <ele>172.65</ele>
        <time>2019-04-15T08:13:15.000Z</time>
      </trkpt>
      <trkpt lat="43.92058" lon="0.20277">
        <ele>171.47</ele>
        <time>2019-04-15T08:13:25.000Z</time>
      </trkpt>
      <trkpt lat="43.92064" lon="0.20265">
        <ele>170.86</ele>
        <time>2019-04-15T08:13:35.000Z</time>
      </trkpt>
      <trkpt lat="43.92064" lon="0.20249">
        <ele>169.88</ele>
        <time>2019-04-15T08:13:45.000Z</time>
      </trkpt>
      <trkpt lat="43.92068" lon="0.20233">
        <ele>168.76</ele>
        <time>2019-04-15T08:13:55.000Z</time>
      </trkpt>
      <trkpt lat="43.92067" lon="0.20218">
        <ele>167.67</ele>
        <time>2019-04-15T08:14:05.000Z</time>
      </trkpt>
      <trkpt lat="43.92069" lon="0.20202">
        <ele>166.26</ele>
        <time>2019-04-15T08:14:15.000Z</time>
      </trkpt>
      <trkpt lat="43.92071" lon="0.20185">
        <ele>165.69</ele>
        <time>2019-04-15T08:14:25.000Z</time>
      </trkpt>
      <trkpt lat="43.92072" lon="0.20172">
        <ele>164.51</ele>
        <time>2019-04-15T08:14:35.000Z</time>
      </trkpt>
      <trkpt lat="43.92073" lon="0.20152">
        <ele>164.15</ele>
        <time>2019-04-15T08:14:45.000Z</time>
      </trkpt>
      <trkpt lat="43.92077" lon="0.20136">
        <ele>163.88</ele>
        <time>2019-04-15T08:14:55.000Z</time>
      </trkpt>
      <trkpt lat="43.92077" lon="0.20117">
        <ele>163.5</ele>
        <time>2019-04-15T08:15:05.000Z</time>
      </trkpt>
      <trkpt lat="43.9208" lon="0.20099">
        <ele>163.05</ele>
        <time>2019-04-15T08:15:15.000Z</time>
      </trkpt>
      <trkpt lat="43.92082" lon="0.20083">
        <ele>162.74</ele>
        <time>2019-04-15T08:15:25.000Z</time>
      </trkpt>
      <trkpt lat="43.92081" lon="0.20064">
        <ele>162.78</ele>
        <time>2019-04-15T08:15:35.000Z</time>
      </trkpt>
      <trkpt lat="43.92082" lon="0.20047">
        <ele>162.69</ele>
        <time>2019-04-15T08:15:45.000Z</time>
      </trkpt>
      <trkpt lat="43.92083" lon="0.20031">
        <ele>162.46</ele>
        <time>2019-04-15T08:15:55.000Z</time>
      </trkpt>
      <trkpt lat="43.92083" lon="0.20013">
        <ele>162.5</ele>
        <time>2019-04-15T08:16:05.000Z</time>
      </trkpt>
      <trkpt lat="43.92087" lon="0.19996">
        <ele>162.44</ele>
        <time>2019-04-15T08:16:15.000Z</time>
      </trkpt>
      <trkpt lat="43.92088" lon="0.19978">
        <ele>162.31</ele>
        <time>2019-04-15T08:16:25.000Z</time>
      </trkpt>
      <trkpt lat="43.92089" lon="0.19963">
        <ele>162.27</ele>
        <time>2019-04-15T08:16:35.000Z</time>
      </trkpt>
      <trkpt lat="43.9209" lon="0.19945">
        <ele>162.17</ele>
        <time>2019-04-15T08:16:45.000Z</time>
      </trkpt>
      <trkpt lat="43.92092" lon="0.19927">
        <ele>162.26</ele>
        <time>2019-04-15T08:16:55.000Z</time>
      </trkpt>
      <trkpt lat="43.92094" lon="0.19909">
        <ele>162.29</ele>
        <time>2019-04-15T08:17:05.000Z</time>
      </trkpt>
      <trkpt lat="43.92095" lon="0.19893">
        <ele>161.92</ele>
        <time>2019-04-15T08:17:15.000Z</time>
      </trkpt>
      <trkpt lat="43.92097" lon="0.19876">
        <ele>162.13</ele>
        <time>2019-04-15T08:17:25.000Z</time>
      </trkpt>
      <trkpt lat="43.92097" lon="0.19859">
        <ele>162.16</ele>
        <time>2019-04-15T08:17:35.000Z</time>
      </trkpt>
      <trkpt lat="43.92099" lon="0.19841">
        <ele>162.47</ele>
        <time>2019-04-15T08:17:45.000Z</time>
      </trkpt>
      <trkpt lat="43.92101" lon="0.19824">
        <ele>162.5</ele>
        <time>2019-04-15T08:17:55.000Z</time>
      </trkpt>
      <trkpt lat="43.92102" lon="0.19807">
        <ele>162.31</ele>
        <time>2019-04-15T08:18:05.000Z</time>
      </trkpt>
      <trkpt lat="43.92103" lon="0.19791">
        <ele>162.4</ele>
        <time>2019-04-15T08:18:15.000Z</time>
      </trkpt>
      <trkpt lat="43.92104" lon="0.19774">
        <ele>162.34</ele>
        <time>2019-04-15T08:18:25.000Z</time>
      </trkpt>
      <trkpt lat="43.92105" lon="0.19755">
        <ele>162.28</ele>
        <time>2019-04-15T08:18:35.000Z</time>
      </trkpt>
      <trkpt lat="43.92106" lon="0.19738">
        <ele>162.11</ele>
        <time>2019-04-15T08:18:45.000Z</time>
      </trkpt>
      <trkpt lat="43.92108" lon="0.1972">
        <ele>162</ele>
        <time>2019-04-15T08:18:55.000Z</time>
      </trkpt>
      <trkpt lat="43.9211" lon="0.19703">
        <ele>161.77</ele>
        <time>2019-04-15T08:19:05.000Z</time>
      </trkpt>
      <trkpt lat="43.9211" lon="0.19686">
        <ele>161.65</ele>
        <time>2019-04-15T08:19:15.000Z</time>
      </trkpt>
      <trkpt lat="43.92112" lon="0.19669">
        <ele>162.13</ele>
        <time>2019-04-15T08:19:25.000Z</time>
      </trkpt>
      <trkpt lat="43.92113" lon="0.19652">
        <ele>161.98</ele>
        <time>2019-04-15T08:19:35.000Z</time>
      </trkpt>
      <trkpt lat="43.92114" lon="0.19637">
        <ele>161.73</ele>
        <time>2019-04-15T08:19:45.000Z</time>
      </trkpt>
      <trkpt lat="43.92114" lon="0.1962">
        <ele>161.84</ele>
        <time>2019-04-15T08:19:55.000Z</time>
      </trkpt>
      <trkpt lat="43.92116" lon="0.19604">
        <ele>161.8</ele>
        <time>2019-04-15T08:20:05.000Z</time>
      </trkpt>
      <trkpt lat="43.92119" lon="0.19585">
        <ele>162.17</ele>
        <time>2019-04-15T08:20:15.000Z</time>
      </trkpt>
      <trkpt lat="43.92119" lon="0.19567">
        <ele>161.9</ele>
        <time>2019-04-15T08:20:25.000Z</time>
      </trkpt>
      <trkpt lat="43.9212" lon="0.19557">
        <ele>162.31</ele>
        <time>2019-04-15T08:20:35.000Z</time>
      </trkpt>
      <trkpt lat="43.92121" lon="0.19555">
        <ele>162.42</ele>
        <time>2019-04-15T08:20:45.000Z</time>
      </trkpt>
      <trkpt lat="43.92121" lon="0.19554">
        <ele>162.35</ele>
        <time>2019-04-15T08:21:38.000Z</time>
      </trkpt>
      <trkpt lat="43.92121" lon="0.19553">
        <ele>162.21</ele>
        <time>2019-04-15T08:21:48.000Z</time>
      </trkpt>
      <trkpt lat="43.9212" lon="0.19549">
        <ele>162.21</ele>
        <time>2019-04-15T08:21:58.000Z</time>
      </trkpt>
      <trkpt lat="43.92118" lon="0.19543">
        <ele>162.55</ele>
        <time>2019-04-15T08:22:08.000Z</time>
      </trkpt>
      <trkpt lat="43.92111" lon="0.19531">
        <ele>163.08</ele>
        <time>2019-04-15T08:22:18.000Z</time>
      </trkpt>
      <trkpt lat="43.92101" lon="0.19522">
        <ele>163.9</ele>
        <time>2019-04-15T08:22:28.000Z</time>
      </trkpt>
      <trkpt lat="43.9209" lon="0.19514">
        <ele>165.01</ele>
        <time>2019-04-15T08:22:38.000Z</time>
      </trkpt>
      <trkpt lat="43.92083" lon="0.19506">
        <ele>165.92</ele>
        <time>2019-04-15T08:22:48.000Z</time>
      </trkpt>
      <trkpt lat="43.92076" lon="0.19498">
        <ele>166.72</ele>
        <time>2019-04-15T08:22:58.000Z</time>
      </trkpt>
      <trkpt lat="43.92068" lon="0.19489">
        <ele>167.59</ele>
        <time>2019-04-15T08:23:08.000Z</time>
      </trkpt>
      <trkpt lat="43.9206" lon="0.1948">
        <ele>168.68</ele>
        <time>2019-04-15T08:23:18.000Z</time>
      </trkpt>
      <trkpt lat="43.92052" lon="0.19472">
        <ele>169.59</ele>
        <time>2019-04-15T08:23:28.000Z</time>
      </trkpt>
      <trkpt lat="43.92046" lon="0.19465">
        <ele>170.35</ele>
        <time>2019-04-15T08:23:38.000Z</time>
      </trkpt>
      <trkpt lat="43.92039" lon="0.19457">
        <ele>172.27</ele>
        <time>2019-04-15T08:23:48.000Z</time>
      </trkpt>
      <trkpt lat="43.92032" lon="0.19449">
        <ele>173.43</ele>
        <time>2019-04-15T08:23:58.000Z</time>
      </trkpt>
      <trkpt lat="43.92025" lon="0.19441">
        <ele>174.63</ele>
        <time>2019-04-15T08:24:08.000Z</time>
      </trkpt>
      <trkpt lat="43.92019" lon="0.19435">
        <ele>175.57</ele>
        <time>2019-04-15T08:24:18.000Z</time>
      </trkpt>
      <trkpt lat="43.92013" lon="0.19427">
        <ele>176.61</ele>
        <time>2019-04-15T08:24:28.000Z</time>
      </trkpt>
      <trkpt lat="43.92008" lon="0.19418">
        <ele>177.82</ele>
        <time>2019-04-15T08:24:38.000Z</time>
      </trkpt>
      <trkpt lat="43.92003" lon="0.19408">
        <ele>178.98</ele>
        <time>2019-04-15T08:24:48.000Z</time>
      </trkpt>
      <trkpt lat="43.91997" lon="0.194">
        <ele>180.31</ele>
        <time>2019-04-15T08:24:58.000Z</time>
      </trkpt>
      <trkpt lat="43.91992" lon="0.1939">
        <ele>180.92</ele>
        <time>2019-04-15T08:25:08.000Z</time>
      </trkpt>
      <trkpt lat="43.9199" lon="0.19379">
        <ele>182.1</ele>
        <time>2019-04-15T08:25:18.000Z</time>
      </trkpt>
      <trkpt lat="43.91985" lon="0.19375">
        <ele>183.18</ele>
        <time>2019-04-15T08:25:28.000Z</time>
      </trkpt>
      <trkpt lat="43.91978" lon="0.1937">
        <ele>183.6</ele>
        <time>2019-04-15T08:25:38.000Z</time>
      </trkpt>
      <trkpt lat="43.91975" lon="0.19361">
        <ele>183.93</ele>
        <time>2019-04-15T08:25:48.000Z</time>
      </trkpt>
      <trkpt lat="43.91969" lon="0.19354">
        <ele>184.43</ele>
        <time>2019-04-15T08:25:58.000Z</time>
      </trkpt>
      <trkpt lat="43.91958" lon="0.19358">
        <ele>184.58</ele>
        <time>2019-04-15T08:26:08.000Z</time>
      </trkpt>
      <trkpt lat="43.91948" lon="0.19359">
        <ele>184.45</ele>
        <time>2019-04-15T08:26:18.000Z</time>
      </trkpt>
      <trkpt lat="43.91937" lon="0.19361">
        <ele>184.75</ele>
        <time>2019-04-15T08:26:28.000Z</time>
      </trkpt>
      <trkpt lat="43.91924" lon="0.19363">
        <ele>183.52</ele>
        <time>2019-04-15T08:26:38.000Z</time>
      </trkpt>
      <trkpt lat="43.91914" lon="0.19363">
        <ele>182.55</ele>
        <time>2019-04-15T08:26:48.000Z</time>
      </trkpt>
      <trkpt lat="43.91902" lon="0.19364">
        <ele>182.16</ele>
        <time>2019-04-15T08:26:58.000Z</time>
      </trkpt>
      <trkpt lat="43.91889" lon="0.19363">
        <ele>182.15</ele>
        <time>2019-04-15T08:27:08.000Z</time>
      </trkpt>
      <trkpt lat="43.91879" lon="0.19362">
        <ele>182.03</ele>
        <time>2019-04-15T08:27:18.000Z</time>
      </trkpt>
      <trkpt lat="43.9187" lon="0.19362">
        <ele>182.03</ele>
        <time>2019-04-15T08:27:28.000Z</time>
      </trkpt>
      <trkpt lat="43.91857" lon="0.19363">
        <ele>181.56</ele>
        <time>2019-04-15T08:27:38.000Z</time>
      </trkpt>
      <trkpt lat="43.91848" lon="0.1936">
        <ele>181.83</ele>
        <time>2019-04-15T08:27:48.000Z</time>
      </trkpt>
      <trkpt lat="43.91842" lon="0.19347">
        <ele>181.45</ele>
        <time>2019-04-15T08:27:58.000Z</time>
      </trkpt>
      <trkpt lat="43.91842" lon="0.19333">
        <ele>181.78</ele>
        <time>2019-04-15T08:28:08.000Z</time>
      </trkpt>
      <trkpt lat="43.91841" lon="0.19318">
        <ele>182.2</ele>
        <time>2019-04-15T08:28:18.000Z</time>
      </trkpt>
      <trkpt lat="43.91839" lon="0.19301">
        <ele>183.1</ele>
        <time>2019-04-15T08:28:28.000Z</time>
      </trkpt>
      <trkpt lat="43.91835" lon="0.19289">
        <ele>183.84</ele>
        <time>2019-04-15T08:28:38.000Z</time>
      </trkpt>
      <trkpt lat="43.91833" lon="0.19274">
        <ele>184.13</ele>
        <time>2019-04-15T08:28:48.000Z</time>
      </trkpt>
      <trkpt lat="43.91832" lon="0.19256">
        <ele>184.82</ele>
        <time>2019-04-15T08:28:58.000Z</time>
      </trkpt>
      <trkpt lat="43.9183" lon="0.19248">
        <ele>185.15</ele>
        <time>2019-04-15T08:29:08.000Z</time>
      </trkpt>
      <trkpt lat="43.91824" lon="0.19243">
        <ele>185.81</ele>
        <time>2019-04-15T08:29:18.000Z</time>
      </trkpt>
      <trkpt lat="43.91814" lon="0.1924">
        <ele>186.8</ele>
        <time>2019-04-15T08:29:28.000Z</time>
      </trkpt>
      <trkpt lat="43.91809" lon="0.19229">
        <ele>188.19</ele>
        <time>2019-04-15T08:29:38.000Z</time>
      </trkpt>
      <trkpt lat="43.91809" lon="0.19216">
        <ele>189.02</ele>
        <time>2019-04-15T08:29:48.000Z</time>
      </trkpt>
      <trkpt lat="43.91809" lon="0.19202">
        <ele>189.88</ele>
        <time>2019-04-15T08:29:58.000Z</time>
      </trkpt>
      <trkpt lat="43.91808" lon="0.19188">
        <ele>190</ele>
        <time>2019-04-15T08:30:08.000Z</time>
      </trkpt>
      <trkpt lat="43.91806" lon="0.19172">
        <ele>190.34</ele>
        <time>2019-04-15T08:30:18.000Z</time>
      </trkpt>
      <trkpt lat="43.91804" lon="0.19157">
        <ele>190.8</ele>
        <time>2019-04-15T08:30:28.000Z</time>
      </trkpt>
      <trkpt lat="43.91804" lon="0.19142">
        <ele>191.13</ele>
        <time>2019-04-15T08:30:38.000Z</time>
      </trkpt>
      <trkpt lat="43.91804" lon="0.19125">
        <ele>191.59</ele>
        <time>2019-04-15T08:30:48.000Z</time>
      </trkpt>
      <trkpt lat="43.91807" lon="0.1911">
        <ele>192.16</ele>
        <time>2019-04-15T08:30:58.000Z</time>
      </trkpt>
      <trkpt lat="43.91806" lon="0.19096">
        <ele>192.59</ele>
        <time>2019-04-15T08:31:08.000Z</time>
      </trkpt>
      <trkpt lat="43.91803" lon="0.19097">
        <ele>192.66</ele>
        <time>2019-04-15T08:31:18.000Z</time>
      </trkpt>
      <trkpt lat="43.91804" lon="0.19096">
        <ele>193.24</ele>
        <time>2019-04-15T08:31:38.000Z</time>
      </trkpt>
      <trkpt lat="43.91803" lon="0.19089">
        <ele>193.4</ele>
        <time>2019-04-15T08:31:48.000Z</time>
      </trkpt>
      <trkpt lat="43.91803" lon="0.19078">
        <ele>193.75</ele>
        <time>2019-04-15T08:31:58.000Z</time>
      </trkpt>
      <trkpt lat="43.91804" lon="0.19075">
        <ele>193.98</ele>
        <time>2019-04-15T08:32:11.000Z</time>
      </trkpt>
      <trkpt lat="43.91814" lon="0.1907">
        <ele>193.39</ele>
        <time>2019-04-15T08:32:21.000Z</time>
      </trkpt>
      <trkpt lat="43.91817" lon="0.19066">
        <ele>193.91</ele>
        <time>2019-04-15T08:32:31.000Z</time>
      </trkpt>
      <trkpt lat="43.91821" lon="0.19054">
        <ele>194.29</ele>
        <time>2019-04-15T08:32:41.000Z</time>
      </trkpt>
      <trkpt lat="43.91822" lon="0.1904">
        <ele>194.43</ele>
        <time>2019-04-15T08:32:51.000Z</time>
      </trkpt>
      <trkpt lat="43.91822" lon="0.19024">
        <ele>194.55</ele>
        <time>2019-04-15T08:33:01.000Z</time>
      </trkpt>
      <trkpt lat="43.91821" lon="0.19007">
        <ele>194.5</ele>
        <time>2019-04-15T08:33:11.000Z</time>
      </trkpt>
      <trkpt lat="43.91822" lon="0.18992">
        <ele>195.34</ele>
        <time>2019-04-15T08:33:21.000Z</time>
      </trkpt>
      <trkpt lat="43.91822" lon="0.18975">
        <ele>195.87</ele>
        <time>2019-04-15T08:33:31.000Z</time>
      </trkpt>
      <trkpt lat="43.91819" lon="0.18961">
        <ele>196.59</ele>
        <time>2019-04-15T08:33:41.000Z</time>
      </trkpt>
      <trkpt lat="43.91817" lon="0.18945">
        <ele>197.41</ele>
        <time>2019-04-15T08:33:51.000Z</time>
      </trkpt>
      <trkpt lat="43.91814" lon="0.1893">
        <ele>197.83</ele>
        <time>2019-04-15T08:34:01.000Z</time>
      </trkpt>
      <trkpt lat="43.91813" lon="0.18915">
        <ele>198.29</ele>
        <time>2019-04-15T08:34:11.000Z</time>
      </trkpt>
      <trkpt lat="43.91812" lon="0.189">
        <ele>198.09</ele>
        <time>2019-04-15T08:34:21.000Z</time>
      </trkpt>
      <trkpt lat="43.91811" lon="0.18883">
        <ele>198.72</ele>
        <time>2019-04-15T08:34:31.000Z</time>
      </trkpt>
      <trkpt lat="43.91809" lon="0.18868">
        <ele>199.23</ele>
        <time>2019-04-15T08:34:41.000Z</time>
      </trkpt>
      <trkpt lat="43.9181" lon="0.18852">
        <ele>200.1</ele>
        <time>2019-04-15T08:34:51.000Z</time>
      </trkpt>
      <trkpt lat="43.91809" lon="0.18835">
        <ele>200.59</ele>
        <time>2019-04-15T08:35:01.000Z</time>
      </trkpt>
      <trkpt lat="43.91807" lon="0.18821">
        <ele>201.28</ele>
        <time>2019-04-15T08:35:11.000Z</time>
      </trkpt>
      <trkpt lat="43.91804" lon="0.18806">
        <ele>202.19</ele>
        <time>2019-04-15T08:35:21.000Z</time>
      </trkpt>
      <trkpt lat="43.91801" lon="0.18791">
        <ele>202.63</ele>
        <time>2019-04-15T08:35:31.000Z</time>
      </trkpt>
      <trkpt lat="43.91799" lon="0.18775">
        <ele>202.69</ele>
        <time>2019-04-15T08:35:41.000Z</time>
      </trkpt>
      <trkpt lat="43.91795" lon="0.1876">
        <ele>203.21</ele>
        <time>2019-04-15T08:35:51.000Z</time>
      </trkpt>
      <trkpt lat="43.91794" lon="0.18746">
        <ele>202.92</ele>
        <time>2019-04-15T08:36:01.000Z</time>
      </trkpt>
      <trkpt lat="43.91794" lon="0.18732">
        <ele>202.46</ele>
        <time>2019-04-15T08:36:11.000Z</time>
      </trkpt>
      <trkpt lat="43.91797" lon="0.18718">
        <ele>203.11</ele>
        <time>2019-04-15T08:36:21.000Z</time>
      </trkpt>
      <trkpt lat="43.91799" lon="0.18703">
        <ele>203.13</ele>
        <time>2019-04-15T08:36:31.000Z</time>
      </trkpt>
      <trkpt lat="43.91803" lon="0.18686">
        <ele>203.12</ele>
        <time>2019-04-15T08:36:41.000Z</time>
      </trkpt>
      <trkpt lat="43.91805" lon="0.18671">
        <ele>202.96</ele>
        <time>2019-04-15T08:36:51.000Z</time>
      </trkpt>
      <trkpt lat="43.91807" lon="0.18656">
        <ele>203.28</ele>
        <time>2019-04-15T08:37:01.000Z</time>
      </trkpt>
      <trkpt lat="43.9181" lon="0.18641">
        <ele>203.34</ele>
        <time>2019-04-15T08:37:11.000Z</time>
      </trkpt>
      <trkpt lat="43.91813" lon="0.18625">
        <ele>203.42</ele>
        <time>2019-04-15T08:37:21.000Z</time>
      </trkpt>
      <trkpt lat="43.91815" lon="0.18609">
        <ele>203.36</ele>
        <time>2019-04-15T08:37:31.000Z</time>
      </trkpt>
      <trkpt lat="43.91818" lon="0.18593">
        <ele>204.28</ele>
        <time>2019-04-15T08:37:41.000Z</time>
      </trkpt>
      <trkpt lat="43.9182" lon="0.18577">
        <ele>204.65</ele>
        <time>2019-04-15T08:37:51.000Z</time>
      </trkpt>
      <trkpt lat="43.91823" lon="0.18562">
        <ele>204.98</ele>
        <time>2019-04-15T08:38:01.000Z</time>
      </trkpt>
      <trkpt lat="43.91823" lon="0.18546">
        <ele>205.47</ele>
        <time>2019-04-15T08:38:11.000Z</time>
      </trkpt>
      <trkpt lat="43.91818" lon="0.18541">
        <ele>205.88</ele>
        <time>2019-04-15T08:38:21.000Z</time>
      </trkpt>
      <trkpt lat="43.91813" lon="0.18537">
        <ele>206.22</ele>
        <time>2019-04-15T08:38:31.000Z</time>
      </trkpt>
      <trkpt lat="43.91805" lon="0.18527">
        <ele>205.58</ele>
        <time>2019-04-15T08:38:41.000Z</time>
      </trkpt>
      <trkpt lat="43.91799" lon="0.18517">
        <ele>205.54</ele>
        <time>2019-04-15T08:38:51.000Z</time>
      </trkpt>
      <trkpt lat="43.91792" lon="0.18505">
        <ele>205.74</ele>
        <time>2019-04-15T08:39:01.000Z</time>
      </trkpt>
      <trkpt lat="43.91784" lon="0.18495">
        <ele>205.87</ele>
        <time>2019-04-15T08:39:11.000Z</time>
      </trkpt>
      <trkpt lat="43.91775" lon="0.18483">
        <ele>206.16</ele>
        <time>2019-04-15T08:39:21.000Z</time>
      </trkpt>
      <trkpt lat="43.91766" lon="0.18471">
        <ele>206.57</ele>
        <time>2019-04-15T08:39:31.000Z</time>
      </trkpt>
      <trkpt lat="43.91759" lon="0.1846">
        <ele>207</ele>
        <time>2019-04-15T08:39:41.000Z</time>
      </trkpt>
      <trkpt lat="43.9175" lon="0.1845">
        <ele>207.48</ele>
        <time>2019-04-15T08:39:51.000Z</time>
      </trkpt>
      <trkpt lat="43.91742" lon="0.18437">
        <ele>207.55</ele>
        <time>2019-04-15T08:40:01.000Z</time>
      </trkpt>
      <trkpt lat="43.91734" lon="0.18426">
        <ele>207.96</ele>
        <time>2019-04-15T08:40:11.000Z</time>
      </trkpt>
      <trkpt lat="43.91728" lon="0.18415">
        <ele>208.2</ele>
        <time>2019-04-15T08:40:21.000Z</time>
      </trkpt>
      <trkpt lat="43.9172" lon="0.18407">
        <ele>208.63</ele>
        <time>2019-04-15T08:40:31.000Z</time>
      </trkpt>
      <trkpt lat="43.91712" lon="0.18395">
        <ele>209.11</ele>
        <time>2019-04-15T08:40:41.000Z</time>
      </trkpt>
      <trkpt lat="43.91704" lon="0.18383">
        <ele>209.46</ele>
        <time>2019-04-15T08:40:51.000Z</time>
      </trkpt>
      <trkpt lat="43.91696" lon="0.18372">
        <ele>209.22</ele>
        <time>2019-04-15T08:41:01.000Z</time>
      </trkpt>
      <trkpt lat="43.91688" lon="0.18362">
        <ele>209.99</ele>
        <time>2019-04-15T08:41:11.000Z</time>
      </trkpt>
      <trkpt lat="43.91678" lon="0.1835">
        <ele>210.46</ele>
        <time>2019-04-15T08:41:21.000Z</time>
      </trkpt>
      <trkpt lat="43.91671" lon="0.1834">
        <ele>210.92</ele>
        <time>2019-04-15T08:41:31.000Z</time>
      </trkpt>
      <trkpt lat="43.91664" lon="0.18329">
        <ele>211.23</ele>
        <time>2019-04-15T08:41:41.000Z</time>
      </trkpt>
      <trkpt lat="43.91656" lon="0.18316">
        <ele>211.36</ele>
        <time>2019-04-15T08:41:51.000Z</time>
      </trkpt>
      <trkpt lat="43.91648" lon="0.18307">
        <ele>211.96</ele>
        <time>2019-04-15T08:42:01.000Z</time>
      </trkpt>
      <trkpt lat="43.9164" lon="0.18297">
        <ele>213.3</ele>
        <time>2019-04-15T08:42:11.000Z</time>
      </trkpt>
      <trkpt lat="43.91631" lon="0.18292">
        <ele>214.61</ele>
        <time>2019-04-15T08:42:21.000Z</time>
      </trkpt>
      <trkpt lat="43.91621" lon="0.18288">
        <ele>215.53</ele>
        <time>2019-04-15T08:42:31.000Z</time>
      </trkpt>
      <trkpt lat="43.91613" lon="0.18281">
        <ele>216.51</ele>
        <time>2019-04-15T08:42:41.000Z</time>
      </trkpt>
      <trkpt lat="43.91602" lon="0.18272">
        <ele>217.02</ele>
        <time>2019-04-15T08:42:51.000Z</time>
      </trkpt>
      <trkpt lat="43.91593" lon="0.18266">
        <ele>217.75</ele>
        <time>2019-04-15T08:43:01.000Z</time>
      </trkpt>
      <trkpt lat="43.91584" lon="0.18257">
        <ele>218.32</ele>
        <time>2019-04-15T08:43:11.000Z</time>
      </trkpt>
      <trkpt lat="43.91574" lon="0.18252">
        <ele>218.64</ele>
        <time>2019-04-15T08:43:21.000Z</time>
      </trkpt>
      <trkpt lat="43.91564" lon="0.18248">
        <ele>218.89</ele>
        <time>2019-04-15T08:43:31.000Z</time>
      </trkpt>
      <trkpt lat="43.91556" lon="0.18251">
        <ele>218.78</ele>
        <time>2019-04-15T08:43:41.000Z</time>
      </trkpt>
      <trkpt lat="43.9155" lon="0.18253">
        <ele>219.59</ele>
        <time>2019-04-15T08:43:51.000Z</time>
      </trkpt>
      <trkpt lat="43.91544" lon="0.18245">
        <ele>219.77</ele>
        <time>2019-04-15T08:44:01.000Z</time>
      </trkpt>
      <trkpt lat="43.91537" lon="0.18235">
        <ele>220.42</ele>
        <time>2019-04-15T08:44:11.000Z</time>
      </trkpt>
      <trkpt lat="43.91531" lon="0.18224">
        <ele>220.05</ele>
        <time>2019-04-15T08:44:21.000Z</time>
      </trkpt>
      <trkpt lat="43.91528" lon="0.18219">
        <ele>219.33</ele>
        <time>2019-04-15T08:44:31.000Z</time>
      </trkpt>
      <trkpt lat="43.91522" lon="0.18209">
        <ele>218.9</ele>
        <time>2019-04-15T08:44:41.000Z</time>
      </trkpt>
      <trkpt lat="43.9152" lon="0.18194">
        <ele>218.35</ele>
        <time>2019-04-15T08:44:51.000Z</time>
      </trkpt>
      <trkpt lat="43.91516" lon="0.1818">
        <ele>217.76</ele>
        <time>2019-04-15T08:45:01.000Z</time>
      </trkpt>
      <trkpt lat="43.91511" lon="0.18169">
        <ele>217.63</ele>
        <time>2019-04-15T08:45:11.000Z</time>
      </trkpt>
      <trkpt lat="43.91505" lon="0.18154">
        <ele>217.25</ele>
        <time>2019-04-15T08:45:21.000Z</time>
      </trkpt>
      <trkpt lat="43.91499" lon="0.18141">
        <ele>217.33</ele>
        <time>2019-04-15T08:45:31.000Z</time>
      </trkpt>
      <trkpt lat="43.91493" lon="0.18127">
        <ele>216.67</ele>
        <time>2019-04-15T08:45:41.000Z</time>
      </trkpt>
      <trkpt lat="43.91487" lon="0.18112">
        <ele>216.42</ele>
        <time>2019-04-15T08:45:51.000Z</time>
      </trkpt>
      <trkpt lat="43.91481" lon="0.18098">
        <ele>216.3</ele>
        <time>2019-04-15T08:46:01.000Z</time>
      </trkpt>
      <trkpt lat="43.91476" lon="0.18085">
        <ele>215.88</ele>
        <time>2019-04-15T08:46:11.000Z</time>
      </trkpt>
      <trkpt lat="43.91472" lon="0.1807">
        <ele>215.96</ele>
        <time>2019-04-15T08:46:21.000Z</time>
      </trkpt>
      <trkpt lat="43.91467" lon="0.18056">
        <ele>216.24</ele>
        <time>2019-04-15T08:46:31.000Z</time>
      </trkpt>
      <trkpt lat="43.9146" lon="0.18043">
        <ele>216.11</ele>
        <time>2019-04-15T08:46:41.000Z</time>
      </trkpt>
      <trkpt lat="43.91455" lon="0.18028">
        <ele>216.22</ele>
        <time>2019-04-15T08:46:51.000Z</time>
      </trkpt>
      <trkpt lat="43.91449" lon="0.18015">
        <ele>216.57</ele>
        <time>2019-04-15T08:47:01.000Z</time>
      </trkpt>
      <trkpt lat="43.91443" lon="0.18002">
        <ele>216.8</ele>
        <time>2019-04-15T08:47:11.000Z</time>
      </trkpt>
      <trkpt lat="43.91436" lon="0.17988">
        <ele>217.41</ele>
        <time>2019-04-15T08:47:21.000Z</time>
      </trkpt>
      <trkpt lat="43.91429" lon="0.17974">
        <ele>217.96</ele>
        <time>2019-04-15T08:47:31.000Z</time>
      </trkpt>
      <trkpt lat="43.91421" lon="0.17965">
        <ele>218.14</ele>
        <time>2019-04-15T08:47:41.000Z</time>
      </trkpt>
      <trkpt lat="43.91413" lon="0.17954">
        <ele>218.32</ele>
        <time>2019-04-15T08:47:51.000Z</time>
      </trkpt>
      <trkpt lat="43.91404" lon="0.17942">
        <ele>218.77</ele>
        <time>2019-04-15T08:48:01.000Z</time>
      </trkpt>
      <trkpt lat="43.91394" lon="0.1793">
        <ele>219.04</ele>
        <time>2019-04-15T08:48:11.000Z</time>
      </trkpt>
      <trkpt lat="43.91387" lon="0.17918">
        <ele>219.38</ele>
        <time>2019-04-15T08:48:21.000Z</time>
      </trkpt>
      <trkpt lat="43.91377" lon="0.17909">
        <ele>219.23</ele>
        <time>2019-04-15T08:48:31.000Z</time>
      </trkpt>
      <trkpt lat="43.91369" lon="0.179">
        <ele>219.45</ele>
        <time>2019-04-15T08:48:41.000Z</time>
      </trkpt>
      <trkpt lat="43.91361" lon="0.17892">
        <ele>219.87</ele>
        <time>2019-04-15T08:48:51.000Z</time>
      </trkpt>
      <trkpt lat="43.91352" lon="0.17883">
        <ele>220.93</ele>
        <time>2019-04-15T08:49:01.000Z</time>
      </trkpt>
      <trkpt lat="43.91343" lon="0.17871">
        <ele>221.57</ele>
        <time>2019-04-15T08:49:11.000Z</time>
      </trkpt>
      <trkpt lat="43.91336" lon="0.17861">
        <ele>222.16</ele>
        <time>2019-04-15T08:49:21.000Z</time>
      </trkpt>
      <trkpt lat="43.91328" lon="0.17852">
        <ele>221.95</ele>
        <time>2019-04-15T08:49:31.000Z</time>
      </trkpt>
      <trkpt lat="43.9132" lon="0.17846">
        <ele>222.91</ele>
        <time>2019-04-15T08:49:41.000Z</time>
      </trkpt>
      <trkpt lat="43.91313" lon="0.17835">
        <ele>223.56</ele>
        <time>2019-04-15T08:49:51.000Z</time>
      </trkpt>
      <trkpt lat="43.91302" lon="0.17825">
        <ele>223.7</ele>
        <time>2019-04-15T08:50:01.000Z</time>
      </trkpt>
      <trkpt lat="43.91292" lon="0.17812">
        <ele>224.03</ele>
        <time>2019-04-15T08:50:11.000Z</time>
      </trkpt>
      <trkpt lat="43.91284" lon="0.17803">
        <ele>224.26</ele>
        <time>2019-04-15T08:50:21.000Z</time>
      </trkpt>
      <trkpt lat="43.91274" lon="0.17794">
        <ele>224.58</ele>
        <time>2019-04-15T08:50:31.000Z</time>
      </trkpt>
      <trkpt lat="43.91266" lon="0.17783">
        <ele>225.56</ele>
        <time>2019-04-15T08:50:41.000Z</time>
      </trkpt>
      <trkpt lat="43.91257" lon="0.17773">
        <ele>225.59</ele>
        <time>2019-04-15T08:50:51.000Z</time>
      </trkpt>
      <trkpt lat="43.91249" lon="0.17762">
        <ele>225.48</ele>
        <time>2019-04-15T08:51:01.000Z</time>
      </trkpt>
      <trkpt lat="43.91242" lon="0.17753">
        <ele>225.46</ele>
        <time>2019-04-15T08:51:11.000Z</time>
      </trkpt>
      <trkpt lat="43.91232" lon="0.17741">
        <ele>225.01</ele>
        <time>2019-04-15T08:51:21.000Z</time>
      </trkpt>
      <trkpt lat="43.91223" lon="0.1773">
        <ele>224.81</ele>
        <time>2019-04-15T08:51:31.000Z</time>
      </trkpt>
      <trkpt lat="43.91214" lon="0.17718">
        <ele>224.76</ele>
        <time>2019-04-15T08:51:41.000Z</time>
      </trkpt>
      <trkpt lat="43.91206" lon="0.17709">
        <ele>224.32</ele>
        <time>2019-04-15T08:51:51.000Z</time>
      </trkpt>
      <trkpt lat="43.912" lon="0.17698">
        <ele>224.1</ele>
        <time>2019-04-15T08:52:01.000Z</time>
      </trkpt>
      <trkpt lat="43.91196" lon="0.17682">
        <ele>223.74</ele>
        <time>2019-04-15T08:52:11.000Z</time>
      </trkpt>
      <trkpt lat="43.91193" lon="0.17669">
        <ele>223.76</ele>
        <time>2019-04-15T08:52:21.000Z</time>
      </trkpt>
      <trkpt lat="43.91189" lon="0.17655">
        <ele>223.55</ele>
        <time>2019-04-15T08:52:31.000Z</time>
      </trkpt>
      <trkpt lat="43.91186" lon="0.1764">
        <ele>223.21</ele>
        <time>2019-04-15T08:52:41.000Z</time>
      </trkpt>
      <trkpt lat="43.91184" lon="0.17624">
        <ele>223.28</ele>
        <time>2019-04-15T08:52:51.000Z</time>
      </trkpt>
      <trkpt lat="43.91184" lon="0.17609">
        <ele>223.5</ele>
        <time>2019-04-15T08:53:01.000Z</time>
      </trkpt>
      <trkpt lat="43.91188" lon="0.17594">
        <ele>224.05</ele>
        <time>2019-04-15T08:53:11.000Z</time>
      </trkpt>
      <trkpt lat="43.91189" lon="0.17578">
        <ele>223.97</ele>
        <time>2019-04-15T08:53:21.000Z</time>
      </trkpt>
      <trkpt lat="43.91191" lon="0.17563">
        <ele>223.73</ele>
        <time>2019-04-15T08:53:31.000Z</time>
      </trkpt>
      <trkpt lat="43.91191" lon="0.17546">
        <ele>223.9</ele>
        <time>2019-04-15T08:53:41.000Z</time>
      </trkpt>
      <trkpt lat="43.91192" lon="0.17532">
        <ele>224.02</ele>
        <time>2019-04-15T08:53:51.000Z</time>
      </trkpt>
      <trkpt lat="43.91193" lon="0.17517">
        <ele>224.1</ele>
        <time>2019-04-15T08:54:01.000Z</time>
      </trkpt>
      <trkpt lat="43.91193" lon="0.17501">
        <ele>224.43</ele>
        <time>2019-04-15T08:54:11.000Z</time>
      </trkpt>
      <trkpt lat="43.91192" lon="0.17486">
        <ele>224.34</ele>
        <time>2019-04-15T08:54:21.000Z</time>
      </trkpt>
      <trkpt lat="43.91193" lon="0.17471">
        <ele>223.96</ele>
        <time>2019-04-15T08:54:31.000Z</time>
      </trkpt>
      <trkpt lat="43.91194" lon="0.17454">
        <ele>223.14</ele>
        <time>2019-04-15T08:54:41.000Z</time>
      </trkpt>
      <trkpt lat="43.91192" lon="0.17437">
        <ele>223.31</ele>
        <time>2019-04-15T08:54:51.000Z</time>
      </trkpt>
      <trkpt lat="43.91193" lon="0.1742">
        <ele>222.73</ele>
        <time>2019-04-15T08:55:01.000Z</time>
      </trkpt>
      <trkpt lat="43.91192" lon="0.17406">
        <ele>222.23</ele>
        <time>2019-04-15T08:55:11.000Z</time>
      </trkpt>
      <trkpt lat="43.91191" lon="0.17391">
        <ele>222.32</ele>
        <time>2019-04-15T08:55:21.000Z</time>
      </trkpt>
      <trkpt lat="43.91191" lon="0.17373">
        <ele>222.55</ele>
        <time>2019-04-15T08:55:31.000Z</time>
      </trkpt>
      <trkpt lat="43.91189" lon="0.17357">
        <ele>222.58</ele>
        <time>2019-04-15T08:55:41.000Z</time>
      </trkpt>
      <trkpt lat="43.91189" lon="0.17342">
        <ele>222.21</ele>
        <time>2019-04-15T08:55:51.000Z</time>
      </trkpt>
      <trkpt lat="43.91188" lon="0.17325">
        <ele>222.15</ele>
        <time>2019-04-15T08:56:01.000Z</time>
      </trkpt>
      <trkpt lat="43.91187" lon="0.1731">
        <ele>222.4</ele>
        <time>2019-04-15T08:56:11.000Z</time>
      </trkpt>
      <trkpt lat="43.91186" lon="0.17295">
        <ele>222.58</ele>
        <time>2019-04-15T08:56:21.000Z</time>
      </trkpt>
      <trkpt lat="43.91186" lon="0.17279">
        <ele>222.98</ele>
        <time>2019-04-15T08:56:31.000Z</time>
      </trkpt>
      <trkpt lat="43.91185" lon="0.17263">
        <ele>222.8</ele>
        <time>2019-04-15T08:56:41.000Z</time>
      </trkpt>
      <trkpt lat="43.91185" lon="0.17248">
        <ele>223.07</ele>
        <time>2019-04-15T08:56:51.000Z</time>
      </trkpt>
      <trkpt lat="43.91183" lon="0.17233">
        <ele>223.19</ele>
        <time>2019-04-15T08:57:01.000Z</time>
      </trkpt>
      <trkpt lat="43.91179" lon="0.17219">
        <ele>223.88</ele>
        <time>2019-04-15T08:57:11.000Z</time>
      </trkpt>
      <trkpt lat="43.91175" lon="0.17204">
        <ele>223.75</ele>
        <time>2019-04-15T08:57:21.000Z</time>
      </trkpt>
      <trkpt lat="43.91172" lon="0.1719">
        <ele>224.11</ele>
        <time>2019-04-15T08:57:31.000Z</time>
      </trkpt>
      <trkpt lat="43.91167" lon="0.17177">
        <ele>224.45</ele>
        <time>2019-04-15T08:57:41.000Z</time>
      </trkpt>
      <trkpt lat="43.91162" lon="0.17163">
        <ele>224.82</ele>
        <time>2019-04-15T08:57:51.000Z</time>
      </trkpt>
      <trkpt lat="43.91158" lon="0.17148">
        <ele>225.26</ele>
        <time>2019-04-15T08:58:01.000Z</time>
      </trkpt>
      <trkpt lat="43.91155" lon="0.17136">
        <ele>225.99</ele>
        <time>2019-04-15T08:58:11.000Z</time>
      </trkpt>
      <trkpt lat="43.91151" lon="0.17122">
        <ele>226.69</ele>
        <time>2019-04-15T08:58:21.000Z</time>
      </trkpt>
      <trkpt lat="43.91149" lon="0.17109">
        <ele>227.53</ele>
        <time>2019-04-15T08:58:31.000Z</time>
      </trkpt>
      <trkpt lat="43.91147" lon="0.17096">
        <ele>228.1</ele>
        <time>2019-04-15T08:58:41.000Z</time>
      </trkpt>
      <trkpt lat="43.91142" lon="0.1708">
        <ele>228.79</ele>
        <time>2019-04-15T08:58:51.000Z</time>
      </trkpt>
      <trkpt lat="43.91139" lon="0.17067">
        <ele>228.68</ele>
        <time>2019-04-15T08:59:01.000Z</time>
      </trkpt>
      <trkpt lat="43.91137" lon="0.17053">
        <ele>228.76</ele>
        <time>2019-04-15T08:59:11.000Z</time>
      </trkpt>
      <trkpt lat="43.91132" lon="0.1704">
        <ele>228.57</ele>
        <time>2019-04-15T08:59:21.000Z</time>
      </trkpt>
      <trkpt lat="43.91129" lon="0.17024">
        <ele>228.52</ele>
        <time>2019-04-15T08:59:31.000Z</time>
      </trkpt>
      <trkpt lat="43.91127" lon="0.1701">
        <ele>228.88</ele>
        <time>2019-04-15T08:59:41.000Z</time>
      </trkpt>
      <trkpt lat="43.91124" lon="0.16996">
        <ele>229.32</ele>
        <time>2019-04-15T08:59:51.000Z</time>
      </trkpt>
      <trkpt lat="43.91121" lon="0.16983">
        <ele>229.5</ele>
        <time>2019-04-15T09:00:01.000Z</time>
      </trkpt>
      <trkpt lat="43.91121" lon="0.16968">
        <ele>229.85</ele>
        <time>2019-04-15T09:00:11.000Z</time>
      </trkpt>
      <trkpt lat="43.91119" lon="0.16951">
        <ele>230.16</ele>
        <time>2019-04-15T09:00:21.000Z</time>
      </trkpt>
      <trkpt lat="43.91117" lon="0.16936">
        <ele>230.32</ele>
        <time>2019-04-15T09:00:31.000Z</time>
      </trkpt>
      <trkpt lat="43.91115" lon="0.16923">
        <ele>230.3</ele>
        <time>2019-04-15T09:00:41.000Z</time>
      </trkpt>
      <trkpt lat="43.91115" lon="0.16909">
        <ele>230.32</ele>
        <time>2019-04-15T09:00:51.000Z</time>
      </trkpt>
      <trkpt lat="43.91119" lon="0.16898">
        <ele>230.06</ele>
        <time>2019-04-15T09:01:01.000Z</time>
      </trkpt>
      <trkpt lat="43.91117" lon="0.16885">
        <ele>230.31</ele>
        <time>2019-04-15T09:01:11.000Z</time>
      </trkpt>
      <trkpt lat="43.91116" lon="0.16882">
        <ele>230.93</ele>
        <time>2019-04-15T09:01:21.000Z</time>
      </trkpt>
      <trkpt lat="43.91117" lon="0.16879">
        <ele>230.96</ele>
        <time>2019-04-15T09:01:31.000Z</time>
      </trkpt>
      <trkpt lat="43.91118" lon="0.16866">
        <ele>231.2</ele>
        <time>2019-04-15T09:01:41.000Z</time>
      </trkpt>
      <trkpt lat="43.91115" lon="0.16855">
        <ele>232.16</ele>
        <time>2019-04-15T09:01:51.000Z</time>
      </trkpt>
      <trkpt lat="43.91111" lon="0.16841">
        <ele>233.27</ele>
        <time>2019-04-15T09:02:01.000Z</time>
      </trkpt>
      <trkpt lat="43.91101" lon="0.16836">
        <ele>234.03</ele>
        <time>2019-04-15T09:02:11.000Z</time>
      </trkpt>
      <trkpt lat="43.91093" lon="0.16825">
        <ele>233.25</ele>
        <time>2019-04-15T09:02:21.000Z</time>
      </trkpt>
      <trkpt lat="43.91085" lon="0.16816">
        <ele>232.67</ele>
        <time>2019-04-15T09:02:31.000Z</time>
      </trkpt>
      <trkpt lat="43.91078" lon="0.16805">
        <ele>232.76</ele>
        <time>2019-04-15T09:02:41.000Z</time>
      </trkpt>
      <trkpt lat="43.91073" lon="0.16792">
        <ele>232.68</ele>
        <time>2019-04-15T09:02:51.000Z</time>
      </trkpt>
      <trkpt lat="43.91066" lon="0.1678">
        <ele>232.41</ele>
        <time>2019-04-15T09:03:01.000Z</time>
      </trkpt>
      <trkpt lat="43.9106" lon="0.16769">
        <ele>232.29</ele>
        <time>2019-04-15T09:03:11.000Z</time>
      </trkpt>
      <trkpt lat="43.91054" lon="0.16758">
        <ele>232.32</ele>
        <time>2019-04-15T09:03:21.000Z</time>
      </trkpt>
      <trkpt lat="43.91048" lon="0.16747">
        <ele>232.69</ele>
        <time>2019-04-15T09:03:31.000Z</time>
      </trkpt>
      <trkpt lat="43.91042" lon="0.16735">
        <ele>232.88</ele>
        <time>2019-04-15T09:03:41.000Z</time>
      </trkpt>
      <trkpt lat="43.91036" lon="0.16725">
        <ele>233.31</ele>
        <time>2019-04-15T09:03:51.000Z</time>
      </trkpt>
      <trkpt lat="43.91029" lon="0.16713">
        <ele>233.79</ele>
        <time>2019-04-15T09:04:01.000Z</time>
      </trkpt>
      <trkpt lat="43.91023" lon="0.16702">
        <ele>234.22</ele>
        <time>2019-04-15T09:04:11.000Z</time>
      </trkpt>
      <trkpt lat="43.91016" lon="0.16691">
        <ele>234.12</ele>
        <time>2019-04-15T09:04:21.000Z</time>
      </trkpt>
      <trkpt lat="43.9101" lon="0.16677">
        <ele>233.85</ele>
        <time>2019-04-15T09:04:31.000Z</time>
      </trkpt>
      <trkpt lat="43.91003" lon="0.16666">
        <ele>233.52</ele>
        <time>2019-04-15T09:04:41.000Z</time>
      </trkpt>
      <trkpt lat="43.90997" lon="0.16653">
        <ele>233.18</ele>
        <time>2019-04-15T09:04:51.000Z</time>
      </trkpt>
      <trkpt lat="43.90991" lon="0.16641">
        <ele>233.48</ele>
        <time>2019-04-15T09:05:01.000Z</time>
      </trkpt>
      <trkpt lat="43.90984" lon="0.16629">
        <ele>233.75</ele>
        <time>2019-04-15T09:05:11.000Z</time>
      </trkpt>
      <trkpt lat="43.90979" lon="0.16617">
        <ele>234.02</ele>
        <time>2019-04-15T09:05:21.000Z</time>
      </trkpt>
      <trkpt lat="43.90977" lon="0.16604">
        <ele>234.06</ele>
        <time>2019-04-15T09:05:31.000Z</time>
      </trkpt>
      <trkpt lat="43.90977" lon="0.16592">
        <ele>234.35</ele>
        <time>2019-04-15T09:05:41.000Z</time>
      </trkpt>
      <trkpt lat="43.90981" lon="0.16582">
        <ele>235.98</ele>
        <time>2019-04-15T09:05:51.000Z</time>
      </trkpt>
      <trkpt lat="43.90986" lon="0.16572">
        <ele>236.65</ele>
        <time>2019-04-15T09:06:01.000Z</time>
      </trkpt>
      <trkpt lat="43.90996" lon="0.16571">
        <ele>237.34</ele>
        <time>2019-04-15T09:06:11.000Z</time>
      </trkpt>
      <trkpt lat="43.91006" lon="0.16574">
        <ele>237.8</ele>
        <time>2019-04-15T09:06:21.000Z</time>
      </trkpt>
      <trkpt lat="43.91017" lon="0.16579">
        <ele>238.23</ele>
        <time>2019-04-15T09:06:31.000Z</time>
      </trkpt>
      <trkpt lat="43.91027" lon="0.16579">
        <ele>238.04</ele>
        <time>2019-04-15T09:06:41.000Z</time>
      </trkpt>
      <trkpt lat="43.9104" lon="0.16582">
        <ele>238.38</ele>
        <time>2019-04-15T09:06:51.000Z</time>
      </trkpt>
      <trkpt lat="43.91052" lon="0.16581">
        <ele>237.87</ele>
        <time>2019-04-15T09:07:01.000Z</time>
      </trkpt>
      <trkpt lat="43.91064" lon="0.1658">
        <ele>237.82</ele>
        <time>2019-04-15T09:07:11.000Z</time>
      </trkpt>
      <trkpt lat="43.91076" lon="0.16583">
        <ele>237.73</ele>
        <time>2019-04-15T09:07:21.000Z</time>
      </trkpt>
      <trkpt lat="43.91087" lon="0.16584">
        <ele>237.29</ele>
        <time>2019-04-15T09:07:31.000Z</time>
      </trkpt>
      <trkpt lat="43.91097" lon="0.16573">
        <ele>236.85</ele>
        <time>2019-04-15T09:07:41.000Z</time>
      </trkpt>
      <trkpt lat="43.91101" lon="0.16558">
        <ele>236.74</ele>
        <time>2019-04-15T09:07:51.000Z</time>
      </trkpt>
      <trkpt lat="43.91101" lon="0.16544">
        <ele>236.56</ele>
        <time>2019-04-15T09:08:01.000Z</time>
      </trkpt>
      <trkpt lat="43.91104" lon="0.16527">
        <ele>237.02</ele>
        <time>2019-04-15T09:08:11.000Z</time>
      </trkpt>
      <trkpt lat="43.91105" lon="0.16512">
        <ele>236.8</ele>
        <time>2019-04-15T09:08:21.000Z</time>
      </trkpt>
      <trkpt lat="43.91105" lon="0.16495">
        <ele>236.87</ele>
        <time>2019-04-15T09:08:31.000Z</time>
      </trkpt>
      <trkpt lat="43.91107" lon="0.16478">
        <ele>237.07</ele>
        <time>2019-04-15T09:08:41.000Z</time>
      </trkpt>
      <trkpt lat="43.91108" lon="0.16462">
        <ele>237.11</ele>
        <time>2019-04-15T09:08:51.000Z</time>
      </trkpt>
      <trkpt lat="43.91109" lon="0.16446">
        <ele>236.84</ele>
        <time>2019-04-15T09:09:01.000Z</time>
      </trkpt>
      <trkpt lat="43.9111" lon="0.16431">
        <ele>236.92</ele>
        <time>2019-04-15T09:09:11.000Z</time>
      </trkpt>
      <trkpt lat="43.91113" lon="0.16415">
        <ele>236.62</ele>
        <time>2019-04-15T09:09:21.000Z</time>
      </trkpt>
      <trkpt lat="43.91114" lon="0.16398">
        <ele>236.29</ele>
        <time>2019-04-15T09:09:31.000Z</time>
      </trkpt>
      <trkpt lat="43.91119" lon="0.16382">
        <ele>236.41</ele>
        <time>2019-04-15T09:09:41.000Z</time>
      </trkpt>
      <trkpt lat="43.91123" lon="0.16369">
        <ele>236.18</ele>
        <time>2019-04-15T09:09:51.000Z</time>
      </trkpt>
      <trkpt lat="43.91128" lon="0.16354">
        <ele>235.47</ele>
        <time>2019-04-15T09:10:01.000Z</time>
      </trkpt>
      <trkpt lat="43.91133" lon="0.16341">
        <ele>235.44</ele>
        <time>2019-04-15T09:10:11.000Z</time>
      </trkpt>
      <trkpt lat="43.91138" lon="0.16326">
        <ele>235.43</ele>
        <time>2019-04-15T09:10:21.000Z</time>
      </trkpt>
      <trkpt lat="43.91144" lon="0.16312">
        <ele>234.89</ele>
        <time>2019-04-15T09:10:31.000Z</time>
      </trkpt>
      <trkpt lat="43.91149" lon="0.16297">
        <ele>234.6</ele>
        <time>2019-04-15T09:10:41.000Z</time>
      </trkpt>
      <trkpt lat="43.91141" lon="0.1629">
        <ele>235.54</ele>
        <time>2019-04-15T09:10:51.000Z</time>
      </trkpt>
      <trkpt lat="43.91131" lon="0.16285">
        <ele>235.15</ele>
        <time>2019-04-15T09:11:01.000Z</time>
      </trkpt>
      <trkpt lat="43.91132" lon="0.16273">
        <ele>233.8</ele>
        <time>2019-04-15T09:11:11.000Z</time>
      </trkpt>
      <trkpt lat="43.91132" lon="0.16258">
        <ele>232.32</ele>
        <time>2019-04-15T09:11:21.000Z</time>
      </trkpt>
      <trkpt lat="43.91135" lon="0.16243">
        <ele>231.02</ele>
        <time>2019-04-15T09:11:31.000Z</time>
      </trkpt>
      <trkpt lat="43.91135" lon="0.16228">
        <ele>230.28</ele>
        <time>2019-04-15T09:11:41.000Z</time>
      </trkpt>
      <trkpt lat="43.91138" lon="0.16214">
        <ele>228.95</ele>
        <time>2019-04-15T09:11:51.000Z</time>
      </trkpt>
      <trkpt lat="43.91138" lon="0.162">
        <ele>227.39</ele>
        <time>2019-04-15T09:12:01.000Z</time>
      </trkpt>
      <trkpt lat="43.91139" lon="0.16184">
        <ele>226.25</ele>
        <time>2019-04-15T09:12:11.000Z</time>
      </trkpt>
      <trkpt lat="43.91139" lon="0.1617">
        <ele>225.23</ele>
        <time>2019-04-15T09:12:21.000Z</time>
      </trkpt>
      <trkpt lat="43.91142" lon="0.16155">
        <ele>224.58</ele>
        <time>2019-04-15T09:12:31.000Z</time>
      </trkpt>
      <trkpt lat="43.91144" lon="0.16141">
        <ele>223.58</ele>
        <time>2019-04-15T09:12:41.000Z</time>
      </trkpt>
      <trkpt lat="43.91144" lon="0.16124">
        <ele>222.75</ele>
        <time>2019-04-15T09:12:51.000Z</time>
      </trkpt>
      <trkpt lat="43.91144" lon="0.16108">
        <ele>222</ele>
        <time>2019-04-15T09:13:01.000Z</time>
      </trkpt>
      <trkpt lat="43.91144" lon="0.16092">
        <ele>221.22</ele>
        <time>2019-04-15T09:13:11.000Z</time>
      </trkpt>
      <trkpt lat="43.91143" lon="0.16074">
        <ele>220.5</ele>
        <time>2019-04-15T09:13:21.000Z</time>
      </trkpt>
      <trkpt lat="43.9114" lon="0.16056">
        <ele>220.26</ele>
        <time>2019-04-15T09:13:31.000Z</time>
      </trkpt>
      <trkpt lat="43.9114" lon="0.16039">
        <ele>220.18</ele>
        <time>2019-04-15T09:13:41.000Z</time>
      </trkpt>
      <trkpt lat="43.91137" lon="0.16022">
        <ele>220.09</ele>
        <time>2019-04-15T09:13:51.000Z</time>
      </trkpt>
      <trkpt lat="43.91133" lon="0.16007">
        <ele>220.29</ele>
        <time>2019-04-15T09:14:01.000Z</time>
      </trkpt>
      <trkpt lat="43.91128" lon="0.15993">
        <ele>219.65</ele>
        <time>2019-04-15T09:14:11.000Z</time>
      </trkpt>
      <trkpt lat="43.91125" lon="0.15977">
        <ele>219.59</ele>
        <time>2019-04-15T09:14:21.000Z</time>
      </trkpt>
      <trkpt lat="43.91123" lon="0.15966">
        <ele>218.88</ele>
        <time>2019-04-15T09:14:31.000Z</time>
      </trkpt>
      <trkpt lat="43.91118" lon="0.15952">
        <ele>218.89</ele>
        <time>2019-04-15T09:14:41.000Z</time>
      </trkpt>
      <trkpt lat="43.91116" lon="0.15936">
        <ele>218.37</ele>
        <time>2019-04-15T09:14:51.000Z</time>
      </trkpt>
      <trkpt lat="43.91112" lon="0.15919">
        <ele>218.28</ele>
        <time>2019-04-15T09:15:01.000Z</time>
      </trkpt>
      <trkpt lat="43.91109" lon="0.15905">
        <ele>217.77</ele>
        <time>2019-04-15T09:15:11.000Z</time>
      </trkpt>
      <trkpt lat="43.91109" lon="0.1589">
        <ele>216.99</ele>
        <time>2019-04-15T09:15:21.000Z</time>
      </trkpt>
      <trkpt lat="43.9111" lon="0.15874">
        <ele>216.55</ele>
        <time>2019-04-15T09:15:31.000Z</time>
      </trkpt>
      <trkpt lat="43.91111" lon="0.15858">
        <ele>216.12</ele>
        <time>2019-04-15T09:15:41.000Z</time>
      </trkpt>
      <trkpt lat="43.91113" lon="0.15842">
        <ele>215.5</ele>
        <time>2019-04-15T09:15:51.000Z</time>
      </trkpt>
      <trkpt lat="43.91114" lon="0.15826">
        <ele>215.31</ele>
        <time>2019-04-15T09:16:01.000Z</time>
      </trkpt>
      <trkpt lat="43.91116" lon="0.15809">
        <ele>214.66</ele>
        <time>2019-04-15T09:16:11.000Z</time>
      </trkpt>
      <trkpt lat="43.91118" lon="0.15792">
        <ele>214.53</ele>
        <time>2019-04-15T09:16:21.000Z</time>
      </trkpt>
      <trkpt lat="43.91118" lon="0.15776">
        <ele>213.81</ele>
        <time>2019-04-15T09:16:31.000Z</time>
      </trkpt>
      <trkpt lat="43.91121" lon="0.1576">
        <ele>213.39</ele>
        <time>2019-04-15T09:16:41.000Z</time>
      </trkpt>
      <trkpt lat="43.91123" lon="0.15744">
        <ele>213.28</ele>
        <time>2019-04-15T09:16:51.000Z</time>
      </trkpt>
      <trkpt lat="43.91123" lon="0.15728">
        <ele>213.04</ele>
        <time>2019-04-15T09:17:01.000Z</time>
      </trkpt>
      <trkpt lat="43.91126" lon="0.15712">
        <ele>213.13</ele>
        <time>2019-04-15T09:17:11.000Z</time>
      </trkpt>
      <trkpt lat="43.91124" lon="0.15697">
        <ele>213.33</ele>
        <time>2019-04-15T09:17:21.000Z</time>
      </trkpt>
      <trkpt lat="43.91115" lon="0.15691">
        <ele>213.09</ele>
        <time>2019-04-15T09:17:31.000Z</time>
      </trkpt>
      <trkpt lat="43.91106" lon="0.15686">
        <ele>213.18</ele>
        <time>2019-04-15T09:17:41.000Z</time>
      </trkpt>
      <trkpt lat="43.91095" lon="0.15682">
        <ele>212.87</ele>
        <time>2019-04-15T09:17:51.000Z</time>
      </trkpt>
      <trkpt lat="43.91084" lon="0.15679">
        <ele>211.99</ele>
        <time>2019-04-15T09:18:01.000Z</time>
      </trkpt>
      <trkpt lat="43.91074" lon="0.15677">
        <ele>212.14</ele>
        <time>2019-04-15T09:18:11.000Z</time>
      </trkpt>
      <trkpt lat="43.91064" lon="0.15678">
        <ele>212.87</ele>
        <time>2019-04-15T09:18:21.000Z</time>
      </trkpt>
      <trkpt lat="43.91052" lon="0.15675">
        <ele>212.56</ele>
        <time>2019-04-15T09:18:31.000Z</time>
      </trkpt>
      <trkpt lat="43.91042" lon="0.15671">
        <ele>213.16</ele>
        <time>2019-04-15T09:18:41.000Z</time>
      </trkpt>
      <trkpt lat="43.91033" lon="0.15666">
        <ele>213.66</ele>
        <time>2019-04-15T09:18:51.000Z</time>
      </trkpt>
      <trkpt lat="43.91023" lon="0.15661">
        <ele>214.05</ele>
        <time>2019-04-15T09:19:01.000Z</time>
      </trkpt>
      <trkpt lat="43.91012" lon="0.15655">
        <ele>214.38</ele>
        <time>2019-04-15T09:19:11.000Z</time>
      </trkpt>
      <trkpt lat="43.91003" lon="0.15648">
        <ele>214.07</ele>
        <time>2019-04-15T09:19:21.000Z</time>
      </trkpt>
      <trkpt lat="43.90993" lon="0.15643">
        <ele>213.72</ele>
        <time>2019-04-15T09:19:31.000Z</time>
      </trkpt>
      <trkpt lat="43.90984" lon="0.1564">
        <ele>213.05</ele>
        <time>2019-04-15T09:19:41.000Z</time>
      </trkpt>
      <trkpt lat="43.90973" lon="0.15638">
        <ele>212.26</ele>
        <time>2019-04-15T09:19:51.000Z</time>
      </trkpt>
      <trkpt lat="43.9096" lon="0.15636">
        <ele>211.93</ele>
        <time>2019-04-15T09:20:01.000Z</time>
      </trkpt>
      <trkpt lat="43.90952" lon="0.15631">
        <ele>210.78</ele>
        <time>2019-04-15T09:20:11.000Z</time>
      </trkpt>
      <trkpt lat="43.90943" lon="0.15626">
        <ele>211.9</ele>
        <time>2019-04-15T09:20:21.000Z</time>
      </trkpt>
      <trkpt lat="43.90934" lon="0.15623">
        <ele>212.6</ele>
        <time>2019-04-15T09:20:31.000Z</time>
      </trkpt>
      <trkpt lat="43.90932" lon="0.15617">
        <ele>211.69</ele>
        <time>2019-04-15T09:20:41.000Z</time>
      </trkpt>
      <trkpt lat="43.90926" lon="0.15606">
        <ele>210.37</ele>
        <time>2019-04-15T09:20:51.000Z</time>
      </trkpt>
      <trkpt lat="43.90918" lon="0.15601">
        <ele>210.97</ele>
        <time>2019-04-15T09:21:01.000Z</time>
      </trkpt>
      <trkpt lat="43.90907" lon="0.15597">
        <ele>212.56</ele>
        <time>2019-04-15T09:21:11.000Z</time>
      </trkpt>
      <trkpt lat="43.90897" lon="0.15592">
        <ele>213.58</ele>
        <time>2019-04-15T09:21:21.000Z</time>
      </trkpt>
      <trkpt lat="43.90889" lon="0.15584">
        <ele>214.45</ele>
        <time>2019-04-15T09:21:31.000Z</time>
      </trkpt>
      <trkpt lat="43.90879" lon="0.15581">
        <ele>213.69</ele>
        <time>2019-04-15T09:21:41.000Z</time>
      </trkpt>
      <trkpt lat="43.90869" lon="0.15576">
        <ele>213.31</ele>
        <time>2019-04-15T09:21:51.000Z</time>
      </trkpt>
      <trkpt lat="43.90861" lon="0.15569">
        <ele>212.65</ele>
        <time>2019-04-15T09:22:01.000Z</time>
      </trkpt>
      <trkpt lat="43.90856" lon="0.15565">
        <ele>211.91</ele>
        <time>2019-04-15T09:22:11.000Z</time>
      </trkpt>
      <trkpt lat="43.90847" lon="0.15555">
        <ele>212.07</ele>
        <time>2019-04-15T09:22:21.000Z</time>
      </trkpt>
      <trkpt lat="43.9084" lon="0.15544">
        <ele>211.53</ele>
        <time>2019-04-15T09:22:31.000Z</time>
      </trkpt>
      <trkpt lat="43.90831" lon="0.15535">
        <ele>211.34</ele>
        <time>2019-04-15T09:22:41.000Z</time>
      </trkpt>
      <trkpt lat="43.90822" lon="0.15526">
        <ele>211.9</ele>
        <time>2019-04-15T09:22:51.000Z</time>
      </trkpt>
      <trkpt lat="43.90813" lon="0.15516">
        <ele>211.58</ele>
        <time>2019-04-15T09:23:01.000Z</time>
      </trkpt>
      <trkpt lat="43.90804" lon="0.15509">
        <ele>211.16</ele>
        <time>2019-04-15T09:23:11.000Z</time>
      </trkpt>
      <trkpt lat="43.90793" lon="0.15504">
        <ele>212.24</ele>
        <time>2019-04-15T09:23:21.000Z</time>
      </trkpt>
      <trkpt lat="43.90783" lon="0.15498">
        <ele>212.31</ele>
        <time>2019-04-15T09:23:31.000Z</time>
      </trkpt>
      <trkpt lat="43.90774" lon="0.15496">
        <ele>213.67</ele>
        <time>2019-04-15T09:23:41.000Z</time>
      </trkpt>
      <trkpt lat="43.90762" lon="0.15489">
        <ele>213.85</ele>
        <time>2019-04-15T09:23:51.000Z</time>
      </trkpt>
      <trkpt lat="43.90754" lon="0.15484">
        <ele>213.89</ele>
        <time>2019-04-15T09:24:01.000Z</time>
      </trkpt>
      <trkpt lat="43.90743" lon="0.1548">
        <ele>215.72</ele>
        <time>2019-04-15T09:24:11.000Z</time>
      </trkpt>
      <trkpt lat="43.90731" lon="0.15479">
        <ele>216.75</ele>
        <time>2019-04-15T09:24:21.000Z</time>
      </trkpt>
      <trkpt lat="43.90721" lon="0.15477">
        <ele>217.8</ele>
        <time>2019-04-15T09:24:31.000Z</time>
      </trkpt>
      <trkpt lat="43.90712" lon="0.15474">
        <ele>218.73</ele>
        <time>2019-04-15T09:24:41.000Z</time>
      </trkpt>
      <trkpt lat="43.90711" lon="0.15472">
        <ele>218.81</ele>
        <time>2019-04-15T09:24:51.000Z</time>
      </trkpt>
      <trkpt lat="43.90705" lon="0.15474">
        <ele>218.81</ele>
        <time>2019-04-15T09:25:01.000Z</time>
      </trkpt>
      <trkpt lat="43.90695" lon="0.15473">
        <ele>219.04</ele>
        <time>2019-04-15T09:25:11.000Z</time>
      </trkpt>
      <trkpt lat="43.90684" lon="0.1547">
        <ele>219.05</ele>
        <time>2019-04-15T09:25:21.000Z</time>
      </trkpt>
      <trkpt lat="43.90672" lon="0.15467">
        <ele>219.62</ele>
        <time>2019-04-15T09:25:31.000Z</time>
      </trkpt>
      <trkpt lat="43.9066" lon="0.15461">
        <ele>219.72</ele>
        <time>2019-04-15T09:25:41.000Z</time>
      </trkpt>
      <trkpt lat="43.90651" lon="0.15457">
        <ele>220.36</ele>
        <time>2019-04-15T09:25:51.000Z</time>
      </trkpt>
      <trkpt lat="43.9064" lon="0.15455">
        <ele>220.94</ele>
        <time>2019-04-15T09:26:01.000Z</time>
      </trkpt>
      <trkpt lat="43.90629" lon="0.1545">
        <ele>221.85</ele>
        <time>2019-04-15T09:26:11.000Z</time>
      </trkpt>
      <trkpt lat="43.90619" lon="0.15448">
        <ele>222.69</ele>
        <time>2019-04-15T09:26:21.000Z</time>
      </trkpt>
      <trkpt lat="43.90609" lon="0.15447">
        <ele>223.85</ele>
        <time>2019-04-15T09:26:31.000Z</time>
      </trkpt>
      <trkpt lat="43.906" lon="0.15444">
        <ele>224.7</ele>
        <time>2019-04-15T09:26:41.000Z</time>
      </trkpt>
      <trkpt lat="43.90591" lon="0.1544">
        <ele>225.52</ele>
        <time>2019-04-15T09:26:51.000Z</time>
      </trkpt>
      <trkpt lat="43.90581" lon="0.15438">
        <ele>226.74</ele>
        <time>2019-04-15T09:27:01.000Z</time>
      </trkpt>
      <trkpt lat="43.90571" lon="0.15433">
        <ele>227.62</ele>
        <time>2019-04-15T09:27:11.000Z</time>
      </trkpt>
      <trkpt lat="43.90562" lon="0.15427">
        <ele>228.78</ele>
        <time>2019-04-15T09:27:21.000Z</time>
      </trkpt>
      <trkpt lat="43.90556" lon="0.15423">
        <ele>230.19</ele>
        <time>2019-04-15T09:27:31.000Z</time>
      </trkpt>
      <trkpt lat="43.90546" lon="0.15418">
        <ele>230.61</ele>
        <time>2019-04-15T09:27:41.000Z</time>
      </trkpt>
      <trkpt lat="43.90538" lon="0.15415">
        <ele>231.91</ele>
        <time>2019-04-15T09:27:51.000Z</time>
      </trkpt>
      <trkpt lat="43.90529" lon="0.15412">
        <ele>233.86</ele>
        <time>2019-04-15T09:28:01.000Z</time>
      </trkpt>
      <trkpt lat="43.90519" lon="0.1541">
        <ele>234.92</ele>
        <time>2019-04-15T09:28:11.000Z</time>
      </trkpt>
      <trkpt lat="43.9051" lon="0.15407">
        <ele>235.75</ele>
        <time>2019-04-15T09:28:21.000Z</time>
      </trkpt>
      <trkpt lat="43.90501" lon="0.1541">
        <ele>236.6</ele>
        <time>2019-04-15T09:28:31.000Z</time>
      </trkpt>
      <trkpt lat="43.90492" lon="0.15413">
        <ele>238.22</ele>
        <time>2019-04-15T09:28:41.000Z</time>
      </trkpt>
      <trkpt lat="43.90484" lon="0.15412">
        <ele>239.42</ele>
        <time>2019-04-15T09:28:51.000Z</time>
      </trkpt>
      <trkpt lat="43.90476" lon="0.15413">
        <ele>240.22</ele>
        <time>2019-04-15T09:29:01.000Z</time>
      </trkpt>
      <trkpt lat="43.90473" lon="0.15412">
        <ele>240.16</ele>
        <time>2019-04-15T09:29:52.000Z</time>
      </trkpt>
      <trkpt lat="43.90463" lon="0.15413">
        <ele>240.06</ele>
        <time>2019-04-15T09:30:02.000Z</time>
      </trkpt>
      <trkpt lat="43.90453" lon="0.15419">
        <ele>239.84</ele>
        <time>2019-04-15T09:30:12.000Z</time>
      </trkpt>
      <trkpt lat="43.90445" lon="0.15428">
        <ele>239.78</ele>
        <time>2019-04-15T09:30:22.000Z</time>
      </trkpt>
      <trkpt lat="43.90439" lon="0.15439">
        <ele>239.79</ele>
        <time>2019-04-15T09:30:32.000Z</time>
      </trkpt>
      <trkpt lat="43.90434" lon="0.15453">
        <ele>240.23</ele>
        <time>2019-04-15T09:30:42.000Z</time>
      </trkpt>
      <trkpt lat="43.90437" lon="0.15443">
        <ele>239.62</ele>
        <time>2019-04-15T09:30:52.000Z</time>
      </trkpt>
      <trkpt lat="43.90442" lon="0.15433">
        <ele>238.74</ele>
        <time>2019-04-15T09:31:02.000Z</time>
      </trkpt>
      <trkpt lat="43.90444" lon="0.15422">
        <ele>237.65</ele>
        <time>2019-04-15T09:31:12.000Z</time>
      </trkpt>
      <trkpt lat="43.90446" lon="0.15409">
        <ele>236.56</ele>
        <time>2019-04-15T09:31:22.000Z</time>
      </trkpt>
      <trkpt lat="43.90444" lon="0.15395">
        <ele>235.45</ele>
        <time>2019-04-15T09:31:32.000Z</time>
      </trkpt>
      <trkpt lat="43.90441" lon="0.15381">
        <ele>234.69</ele>
        <time>2019-04-15T09:31:42.000Z</time>
      </trkpt>
      <trkpt lat="43.9044" lon="0.15374">
        <ele>234.48</ele>
        <time>2019-04-15T09:31:52.000Z</time>
      </trkpt>
      <trkpt lat="43.90444" lon="0.15365">
        <ele>233.62</ele>
        <time>2019-04-15T09:32:02.000Z</time>
      </trkpt>
      <trkpt lat="43.90445" lon="0.15355">
        <ele>232.67</ele>
        <time>2019-04-15T09:32:12.000Z</time>
      </trkpt>
      <trkpt lat="43.90449" lon="0.15357">
        <ele>231.89</ele>
        <time>2019-04-15T09:32:22.000Z</time>
      </trkpt>
      <trkpt lat="43.90452" lon="0.15356">
        <ele>231.61</ele>
        <time>2019-04-15T09:32:32.000Z</time>
      </trkpt>
      <trkpt lat="43.90453" lon="0.15357">
        <ele>231.59</ele>
        <time>2019-04-15T09:32:44.000Z</time>
      </trkpt>
      <trkpt lat="43.90455" lon="0.15355">
        <ele>231.26</ele>
        <time>2019-04-15T09:32:54.000Z</time>
      </trkpt>
      <trkpt lat="43.90454" lon="0.15354">
        <ele>231.63</ele>
        <time>2019-04-15T09:33:15.000Z</time>
      </trkpt>
      <trkpt lat="43.90453" lon="0.15355">
        <ele>231.83</ele>
        <time>2019-04-15T09:33:25.000Z</time>
      </trkpt>
      <trkpt lat="43.9045" lon="0.15354">
        <ele>231.32</ele>
        <time>2019-04-15T09:33:35.000Z</time>
      </trkpt>
      <trkpt lat="43.90444" lon="0.15356">
        <ele>231.4</ele>
        <time>2019-04-15T09:33:45.000Z</time>
      </trkpt>
      <trkpt lat="43.90436" lon="0.1536">
        <ele>231.72</ele>
        <time>2019-04-15T09:33:55.000Z</time>
      </trkpt>
      <trkpt lat="43.90447" lon="0.15365">
        <ele>231.44</ele>
        <time>2019-04-15T09:34:05.000Z</time>
      </trkpt>
      <trkpt lat="43.90456" lon="0.1536">
        <ele>230.02</ele>
        <time>2019-04-15T09:34:15.000Z</time>
      </trkpt>
      <trkpt lat="43.90463" lon="0.15353">
        <ele>228.99</ele>
        <time>2019-04-15T09:34:25.000Z</time>
      </trkpt>
      <trkpt lat="43.90467" lon="0.1534">
        <ele>227.83</ele>
        <time>2019-04-15T09:34:35.000Z</time>
      </trkpt>
      <trkpt lat="43.90466" lon="0.15327">
        <ele>226.74</ele>
        <time>2019-04-15T09:34:45.000Z</time>
      </trkpt>
      <trkpt lat="43.90466" lon="0.15315">
        <ele>225.38</ele>
        <time>2019-04-15T09:34:55.000Z</time>
      </trkpt>
      <trkpt lat="43.90465" lon="0.15304">
        <ele>223.86</ele>
        <time>2019-04-15T09:35:05.000Z</time>
      </trkpt>
      <trkpt lat="43.90464" lon="0.15292">
        <ele>222.21</ele>
        <time>2019-04-15T09:35:15.000Z</time>
      </trkpt>
      <trkpt lat="43.90464" lon="0.15279">
        <ele>221.09</ele>
        <time>2019-04-15T09:35:25.000Z</time>
      </trkpt>
      <trkpt lat="43.90464" lon="0.15268">
        <ele>219.17</ele>
        <time>2019-04-15T09:35:35.000Z</time>
      </trkpt>
      <trkpt lat="43.90461" lon="0.15255">
        <ele>218.17</ele>
        <time>2019-04-15T09:35:45.000Z</time>
      </trkpt>
      <trkpt lat="43.9046" lon="0.15246">
        <ele>216.59</ele>
        <time>2019-04-15T09:35:55.000Z</time>
      </trkpt>
      <trkpt lat="43.90458" lon="0.15237">
        <ele>214.9</ele>
        <time>2019-04-15T09:36:05.000Z</time>
      </trkpt>
      <trkpt lat="43.90458" lon="0.15227">
        <ele>213.17</ele>
        <time>2019-04-15T09:36:15.000Z</time>
      </trkpt>
      <trkpt lat="43.90455" lon="0.15215">
        <ele>211.83</ele>
        <time>2019-04-15T09:36:25.000Z</time>
      </trkpt>
      <trkpt lat="43.90454" lon="0.15204">
        <ele>210.38</ele>
        <time>2019-04-15T09:36:35.000Z</time>
      </trkpt>
      <trkpt lat="43.90452" lon="0.15192">
        <ele>209.14</ele>
        <time>2019-04-15T09:36:45.000Z</time>
      </trkpt>
      <trkpt lat="43.90451" lon="0.15179">
        <ele>207.76</ele>
        <time>2019-04-15T09:36:55.000Z</time>
      </trkpt>
      <trkpt lat="43.90447" lon="0.15169">
        <ele>206.4</ele>
        <time>2019-04-15T09:37:05.000Z</time>
      </trkpt>
      <trkpt lat="43.90438" lon="0.15159">
        <ele>205.56</ele>
        <time>2019-04-15T09:37:15.000Z</time>
      </trkpt>
      <trkpt lat="43.90428" lon="0.15152">
        <ele>204.52</ele>
        <time>2019-04-15T09:37:25.000Z</time>
      </trkpt>
      <trkpt lat="43.90419" lon="0.15149">
        <ele>203.45</ele>
        <time>2019-04-15T09:37:35.000Z</time>
      </trkpt>
      <trkpt lat="43.90409" lon="0.15149">
        <ele>202.74</ele>
        <time>2019-04-15T09:37:45.000Z</time>
      </trkpt>
      <trkpt lat="43.90408" lon="0.15151">
        <ele>202.67</ele>
        <time>2019-04-15T09:38:02.000Z</time>
      </trkpt>
      <trkpt lat="43.90408" lon="0.15148">
        <ele>202.92</ele>
        <time>2019-04-15T09:38:40.000Z</time>
      </trkpt>
      <trkpt lat="43.90406" lon="0.15141">
        <ele>202.74</ele>
        <time>2019-04-15T09:38:50.000Z</time>
      </trkpt>
      <trkpt lat="43.90402" lon="0.15132">
        <ele>202</ele>
        <time>2019-04-15T09:39:00.000Z</time>
      </trkpt>
      <trkpt lat="43.904" lon="0.15131">
        <ele>201.87</ele>
        <time>2019-04-15T09:39:50.000Z</time>
      </trkpt>
      <trkpt lat="43.90389" lon="0.1513">
        <ele>201.88</ele>
        <time>2019-04-15T09:40:00.000Z</time>
      </trkpt>
      <trkpt lat="43.90378" lon="0.15125">
        <ele>201.95</ele>
        <time>2019-04-15T09:40:10.000Z</time>
      </trkpt>
      <trkpt lat="43.90367" lon="0.15122">
        <ele>202.14</ele>
        <time>2019-04-15T09:40:20.000Z</time>
      </trkpt>
      <trkpt lat="43.90357" lon="0.15117">
        <ele>201.81</ele>
        <time>2019-04-15T09:40:30.000Z</time>
      </trkpt>
      <trkpt lat="43.90345" lon="0.15115">
        <ele>202.15</ele>
        <time>2019-04-15T09:40:40.000Z</time>
      </trkpt>
      <trkpt lat="43.90334" lon="0.15111">
        <ele>202.02</ele>
        <time>2019-04-15T09:40:50.000Z</time>
      </trkpt>
      <trkpt lat="43.90323" lon="0.15105">
        <ele>202.31</ele>
        <time>2019-04-15T09:41:00.000Z</time>
      </trkpt>
      <trkpt lat="43.90312" lon="0.15101">
        <ele>202.44</ele>
        <time>2019-04-15T09:41:10.000Z</time>
      </trkpt>
      <trkpt lat="43.903" lon="0.15096">
        <ele>202.71</ele>
        <time>2019-04-15T09:41:20.000Z</time>
      </trkpt>
      <trkpt lat="43.9029" lon="0.15093">
        <ele>202.31</ele>
        <time>2019-04-15T09:41:30.000Z</time>
      </trkpt>
      <trkpt lat="43.90279" lon="0.15086">
        <ele>202.55</ele>
        <time>2019-04-15T09:41:40.000Z</time>
      </trkpt>
      <trkpt lat="43.90269" lon="0.15079">
        <ele>202.92</ele>
        <time>2019-04-15T09:41:50.000Z</time>
      </trkpt>
      <trkpt lat="43.90258" lon="0.1507">
        <ele>203.28</ele>
        <time>2019-04-15T09:42:00.000Z</time>
      </trkpt>
      <trkpt lat="43.90248" lon="0.15063">
        <ele>203.11</ele>
        <time>2019-04-15T09:42:10.000Z</time>
      </trkpt>
      <trkpt lat="43.90238" lon="0.15057">
        <ele>203.21</ele>
        <time>2019-04-15T09:42:20.000Z</time>
      </trkpt>
      <trkpt lat="43.90227" lon="0.15051">
        <ele>203.38</ele>
        <time>2019-04-15T09:42:30.000Z</time>
      </trkpt>
      <trkpt lat="43.90216" lon="0.15042">
        <ele>203.35</ele>
        <time>2019-04-15T09:42:40.000Z</time>
      </trkpt>
      <trkpt lat="43.90206" lon="0.15035">
        <ele>203.52</ele>
        <time>2019-04-15T09:42:50.000Z</time>
      </trkpt>
      <trkpt lat="43.90196" lon="0.15026">
        <ele>203.65</ele>
        <time>2019-04-15T09:43:00.000Z</time>
      </trkpt>
      <trkpt lat="43.90188" lon="0.1502">
        <ele>204.04</ele>
        <time>2019-04-15T09:43:10.000Z</time>
      </trkpt>
      <trkpt lat="43.90179" lon="0.15011">
        <ele>204.71</ele>
        <time>2019-04-15T09:43:20.000Z</time>
      </trkpt>
      <trkpt lat="43.9017" lon="0.14999">
        <ele>204.01</ele>
        <time>2019-04-15T09:43:30.000Z</time>
      </trkpt>
      <trkpt lat="43.90161" lon="0.1499">
        <ele>204.14</ele>
        <time>2019-04-15T09:43:40.000Z</time>
      </trkpt>
      <trkpt lat="43.90152" lon="0.14978">
        <ele>204.83</ele>
        <time>2019-04-15T09:43:50.000Z</time>
      </trkpt>
      <trkpt lat="43.90144" lon="0.14966">
        <ele>204.6</ele>
        <time>2019-04-15T09:44:00.000Z</time>
      </trkpt>
      <trkpt lat="43.90134" lon="0.14956">
        <ele>204.89</ele>
        <time>2019-04-15T09:44:10.000Z</time>
      </trkpt>
      <trkpt lat="43.90127" lon="0.14945">
        <ele>205.58</ele>
        <time>2019-04-15T09:44:20.000Z</time>
      </trkpt>
      <trkpt lat="43.90118" lon="0.14936">
        <ele>205.56</ele>
        <time>2019-04-15T09:44:30.000Z</time>
      </trkpt>
      <trkpt lat="43.90112" lon="0.14926">
        <ele>205.99</ele>
        <time>2019-04-15T09:44:40.000Z</time>
      </trkpt>
      <trkpt lat="43.90103" lon="0.14912">
        <ele>206.18</ele>
        <time>2019-04-15T09:44:50.000Z</time>
      </trkpt>
      <trkpt lat="43.90096" lon="0.149">
        <ele>206.27</ele>
        <time>2019-04-15T09:45:00.000Z</time>
      </trkpt>
      <trkpt lat="43.90087" lon="0.14886">
        <ele>206.75</ele>
        <time>2019-04-15T09:45:10.000Z</time>
      </trkpt>
      <trkpt lat="43.9008" lon="0.14874">
        <ele>206.47</ele>
        <time>2019-04-15T09:45:20.000Z</time>
      </trkpt>
      <trkpt lat="43.90073" lon="0.14861">
        <ele>206.49</ele>
        <time>2019-04-15T09:45:30.000Z</time>
      </trkpt>
      <trkpt lat="43.90069" lon="0.14848">
        <ele>206.7</ele>
        <time>2019-04-15T09:45:40.000Z</time>
      </trkpt>
      <trkpt lat="43.90061" lon="0.14835">
        <ele>206.76</ele>
        <time>2019-04-15T09:45:50.000Z</time>
      </trkpt>
      <trkpt lat="43.90054" lon="0.1482">
        <ele>207.01</ele>
        <time>2019-04-15T09:46:00.000Z</time>
      </trkpt>
      <trkpt lat="43.90048" lon="0.14808">
        <ele>207.12</ele>
        <time>2019-04-15T09:46:10.000Z</time>
      </trkpt>
      <trkpt lat="43.90043" lon="0.14792">
        <ele>207.58</ele>
        <time>2019-04-15T09:46:20.000Z</time>
      </trkpt>
      <trkpt lat="43.90039" lon="0.14778">
        <ele>207.5</ele>
        <time>2019-04-15T09:46:30.000Z</time>
      </trkpt>
      <trkpt lat="43.90032" lon="0.14762">
        <ele>207.79</ele>
        <time>2019-04-15T09:46:40.000Z</time>
      </trkpt>
      <trkpt lat="43.90027" lon="0.14746">
        <ele>207.4</ele>
        <time>2019-04-15T09:46:50.000Z</time>
      </trkpt>
      <trkpt lat="43.90023" lon="0.14732">
        <ele>207.93</ele>
        <time>2019-04-15T09:47:00.000Z</time>
      </trkpt>
      <trkpt lat="43.90019" lon="0.14715">
        <ele>207.7</ele>
        <time>2019-04-15T09:47:10.000Z</time>
      </trkpt>
      <trkpt lat="43.90017" lon="0.14697">
        <ele>207.51</ele>
        <time>2019-04-15T09:47:20.000Z</time>
      </trkpt>
      <trkpt lat="43.90012" lon="0.14682">
        <ele>207.63</ele>
        <time>2019-04-15T09:47:30.000Z</time>
      </trkpt>
      <trkpt lat="43.90011" lon="0.14667">
        <ele>207.67</ele>
        <time>2019-04-15T09:47:40.000Z</time>
      </trkpt>
      <trkpt lat="43.90007" lon="0.14651">
        <ele>207.22</ele>
        <time>2019-04-15T09:47:50.000Z</time>
      </trkpt>
      <trkpt lat="43.90002" lon="0.14638">
        <ele>207.22</ele>
        <time>2019-04-15T09:48:00.000Z</time>
      </trkpt>
      <trkpt lat="43.9" lon="0.14622">
        <ele>207.17</ele>
        <time>2019-04-15T09:48:10.000Z</time>
      </trkpt>
      <trkpt lat="43.89997" lon="0.14605">
        <ele>207.24</ele>
        <time>2019-04-15T09:48:20.000Z</time>
      </trkpt>
      <trkpt lat="43.89995" lon="0.14586">
        <ele>207.27</ele>
        <time>2019-04-15T09:48:30.000Z</time>
      </trkpt>
      <trkpt lat="43.89994" lon="0.1457">
        <ele>207.11</ele>
        <time>2019-04-15T09:48:40.000Z</time>
      </trkpt>
      <trkpt lat="43.89993" lon="0.14554">
        <ele>207.12</ele>
        <time>2019-04-15T09:48:50.000Z</time>
      </trkpt>
      <trkpt lat="43.89991" lon="0.14537">
        <ele>207.47</ele>
        <time>2019-04-15T09:49:00.000Z</time>
      </trkpt>
      <trkpt lat="43.89989" lon="0.14518">
        <ele>207.75</ele>
        <time>2019-04-15T09:49:10.000Z</time>
      </trkpt>
      <trkpt lat="43.89988" lon="0.14505">
        <ele>207.32</ele>
        <time>2019-04-15T09:49:20.000Z</time>
      </trkpt>
      <trkpt lat="43.89987" lon="0.14486">
        <ele>207.17</ele>
        <time>2019-04-15T09:49:30.000Z</time>
      </trkpt>
      <trkpt lat="43.89985" lon="0.14469">
        <ele>206.92</ele>
        <time>2019-04-15T09:49:40.000Z</time>
      </trkpt>
      <trkpt lat="43.89985" lon="0.14453">
        <ele>207.39</ele>
        <time>2019-04-15T09:49:50.000Z</time>
      </trkpt>
      <trkpt lat="43.89983" lon="0.14436">
        <ele>207.38</ele>
        <time>2019-04-15T09:50:00.000Z</time>
      </trkpt>
      <trkpt lat="43.8998" lon="0.1442">
        <ele>207.37</ele>
        <time>2019-04-15T09:50:10.000Z</time>
      </trkpt>
      <trkpt lat="43.89979" lon="0.14404">
        <ele>206.98</ele>
        <time>2019-04-15T09:50:20.000Z</time>
      </trkpt>
      <trkpt lat="43.89978" lon="0.14389">
        <ele>207.17</ele>
        <time>2019-04-15T09:50:30.000Z</time>
      </trkpt>
      <trkpt lat="43.89977" lon="0.14371">
        <ele>207.59</ele>
        <time>2019-04-15T09:50:40.000Z</time>
      </trkpt>
      <trkpt lat="43.89974" lon="0.14353">
        <ele>207.52</ele>
        <time>2019-04-15T09:50:50.000Z</time>
      </trkpt>
      <trkpt lat="43.89971" lon="0.14334">
        <ele>207.31</ele>
        <time>2019-04-15T09:51:00.000Z</time>
      </trkpt>
      <trkpt lat="43.8997" lon="0.14319">
        <ele>207.3</ele>
        <time>2019-04-15T09:51:10.000Z</time>
      </trkpt>
      <trkpt lat="43.89969" lon="0.14303">
        <ele>207.25</ele>
        <time>2019-04-15T09:51:20.000Z</time>
      </trkpt>
      <trkpt lat="43.89966" lon="0.14286">
        <ele>207.14</ele>
        <time>2019-04-15T09:51:30.000Z</time>
      </trkpt>
      <trkpt lat="43.89965" lon="0.14271">
        <ele>207.73</ele>
        <time>2019-04-15T09:51:40.000Z</time>
      </trkpt>
      <trkpt lat="43.89963" lon="0.14254">
        <ele>207.95</ele>
        <time>2019-04-15T09:51:50.000Z</time>
      </trkpt>
      <trkpt lat="43.89965" lon="0.14237">
        <ele>208.06</ele>
        <time>2019-04-15T09:52:00.000Z</time>
      </trkpt>
      <trkpt lat="43.89963" lon="0.14222">
        <ele>208.62</ele>
        <time>2019-04-15T09:52:10.000Z</time>
      </trkpt>
      <trkpt lat="43.8996" lon="0.14206">
        <ele>208.07</ele>
        <time>2019-04-15T09:52:20.000Z</time>
      </trkpt>
      <trkpt lat="43.89958" lon="0.14189">
        <ele>208.21</ele>
        <time>2019-04-15T09:52:30.000Z</time>
      </trkpt>
      <trkpt lat="43.89954" lon="0.14175">
        <ele>207.9</ele>
        <time>2019-04-15T09:52:40.000Z</time>
      </trkpt>
      <trkpt lat="43.89953" lon="0.1416">
        <ele>207.88</ele>
        <time>2019-04-15T09:52:50.000Z</time>
      </trkpt>
      <trkpt lat="43.89953" lon="0.14145">
        <ele>207.99</ele>
        <time>2019-04-15T09:53:00.000Z</time>
      </trkpt>
      <trkpt lat="43.89951" lon="0.14128">
        <ele>208.24</ele>
        <time>2019-04-15T09:53:10.000Z</time>
      </trkpt>
      <trkpt lat="43.8995" lon="0.14111">
        <ele>207.96</ele>
        <time>2019-04-15T09:53:20.000Z</time>
      </trkpt>
      <trkpt lat="43.89949" lon="0.14095">
        <ele>207.99</ele>
        <time>2019-04-15T09:53:30.000Z</time>
      </trkpt>
      <trkpt lat="43.89947" lon="0.14078">
        <ele>208.37</ele>
        <time>2019-04-15T09:53:40.000Z</time>
      </trkpt>
      <trkpt lat="43.89943" lon="0.14066">
        <ele>208.57</ele>
        <time>2019-04-15T09:53:50.000Z</time>
      </trkpt>
      <trkpt lat="43.8994" lon="0.14048">
        <ele>208.26</ele>
        <time>2019-04-15T09:54:00.000Z</time>
      </trkpt>
      <trkpt lat="43.89939" lon="0.14032">
        <ele>207.92</ele>
        <time>2019-04-15T09:54:10.000Z</time>
      </trkpt>
      <trkpt lat="43.89937" lon="0.14016">
        <ele>208.23</ele>
        <time>2019-04-15T09:54:20.000Z</time>
      </trkpt>
      <trkpt lat="43.89936" lon="0.14001">
        <ele>207.89</ele>
        <time>2019-04-15T09:54:30.000Z</time>
      </trkpt>
      <trkpt lat="43.89934" lon="0.1399">
        <ele>208.01</ele>
        <time>2019-04-15T09:54:40.000Z</time>
      </trkpt>
      <trkpt lat="43.89932" lon="0.13971">
        <ele>207.96</ele>
        <time>2019-04-15T09:54:50.000Z</time>
      </trkpt>
      <trkpt lat="43.89931" lon="0.13954">
        <ele>208.13</ele>
        <time>2019-04-15T09:55:00.000Z</time>
      </trkpt>
      <trkpt lat="43.89929" lon="0.1394">
        <ele>207.33</ele>
        <time>2019-04-15T09:55:10.000Z</time>
      </trkpt>
      <trkpt lat="43.89927" lon="0.13927">
        <ele>207.45</ele>
        <time>2019-04-15T09:55:20.000Z</time>
      </trkpt>
      <trkpt lat="43.89926" lon="0.13911">
        <ele>207.28</ele>
        <time>2019-04-15T09:55:30.000Z</time>
      </trkpt>
      <trkpt lat="43.89923" lon="0.13896">
        <ele>207.57</ele>
        <time>2019-04-15T09:55:40.000Z</time>
      </trkpt>
      <trkpt lat="43.89923" lon="0.13881">
        <ele>207.8</ele>
        <time>2019-04-15T09:55:50.000Z</time>
      </trkpt>
      <trkpt lat="43.89921" lon="0.13866">
        <ele>207.25</ele>
        <time>2019-04-15T09:56:00.000Z</time>
      </trkpt>
      <trkpt lat="43.89919" lon="0.13851">
        <ele>207.93</ele>
        <time>2019-04-15T09:56:10.000Z</time>
      </trkpt>
      <trkpt lat="43.89918" lon="0.13835">
        <ele>208.36</ele>
        <time>2019-04-15T09:56:20.000Z</time>
      </trkpt>
      <trkpt lat="43.89918" lon="0.13816">
        <ele>208.5</ele>
        <time>2019-04-15T09:56:30.000Z</time>
      </trkpt>
      <trkpt lat="43.89915" lon="0.13803">
        <ele>208.2</ele>
        <time>2019-04-15T09:56:40.000Z</time>
      </trkpt>
      <trkpt lat="43.89914" lon="0.13793">
        <ele>208.26</ele>
        <time>2019-04-15T09:56:50.000Z</time>
      </trkpt>
      <trkpt lat="43.89913" lon="0.13778">
        <ele>208.94</ele>
        <time>2019-04-15T09:57:00.000Z</time>
      </trkpt>
      <trkpt lat="43.8992" lon="0.13774">
        <ele>209.44</ele>
        <time>2019-04-15T09:57:10.000Z</time>
      </trkpt>
      <trkpt lat="43.89921" lon="0.13762">
        <ele>209.67</ele>
        <time>2019-04-15T09:57:20.000Z</time>
      </trkpt>
      <trkpt lat="43.89922" lon="0.1375">
        <ele>209.22</ele>
        <time>2019-04-15T09:57:30.000Z</time>
      </trkpt>
      <trkpt lat="43.89922" lon="0.13739">
        <ele>208.46</ele>
        <time>2019-04-15T09:57:40.000Z</time>
      </trkpt>
      <trkpt lat="43.89921" lon="0.1374">
        <ele>208.92</ele>
        <time>2019-04-15T09:58:19.000Z</time>
      </trkpt>
      <trkpt lat="43.8992" lon="0.13738">
        <ele>209.16</ele>
        <time>2019-04-15T09:59:00.000Z</time>
      </trkpt>
      <trkpt lat="43.89918" lon="0.13736">
        <ele>209.25</ele>
        <time>2019-04-15T09:59:10.000Z</time>
      </trkpt>
      <trkpt lat="43.89924" lon="0.13738">
        <ele>208.92</ele>
        <time>2019-04-15T09:59:20.000Z</time>
      </trkpt>
      <trkpt lat="43.89921" lon="0.13735">
        <ele>208.51</ele>
        <time>2019-04-15T09:59:30.000Z</time>
      </trkpt>
      <trkpt lat="43.8992" lon="0.13735">
        <ele>208.16</ele>
        <time>2019-04-15T10:00:50.000Z</time>
      </trkpt>
      <trkpt lat="43.89919" lon="0.13733">
        <ele>208.16</ele>
        <time>2019-04-15T10:01:00.000Z</time>
      </trkpt>
      <trkpt lat="43.8992" lon="0.13736">
        <ele>208.26</ele>
        <time>2019-04-15T10:06:41.000Z</time>
      </trkpt>
      <trkpt lat="43.89919" lon="0.1374">
        <ele>208.03</ele>
        <time>2019-04-15T10:06:51.000Z</time>
      </trkpt>
      <trkpt lat="43.89919" lon="0.13739">
        <ele>210.96</ele>
        <time>2019-04-15T10:30:52.000Z</time>
      </trkpt>
      <trkpt lat="43.89918" lon="0.13737">
        <ele>211.5</ele>
        <time>2019-04-15T10:39:59.000Z</time>
      </trkpt>
      <trkpt lat="43.89918" lon="0.13738">
        <ele>212.19</ele>
        <time>2019-04-15T10:51:42.000Z</time>
      </trkpt>
      <trkpt lat="43.89917" lon="0.13739">
        <ele>212.06</ele>
        <time>2019-04-15T10:51:52.000Z</time>
      </trkpt>
      <trkpt lat="43.89918" lon="0.13747">
        <ele>212.26</ele>
        <time>2019-04-15T10:52:02.000Z</time>
      </trkpt>
      <trkpt lat="43.89918" lon="0.13757">
        <ele>212.34</ele>
        <time>2019-04-15T10:52:12.000Z</time>
      </trkpt>
      <trkpt lat="43.89919" lon="0.13763">
        <ele>212.99</ele>
        <time>2019-04-15T10:52:22.000Z</time>
      </trkpt>
      <trkpt lat="43.89922" lon="0.13751">
        <ele>212.53</ele>
        <time>2019-04-15T10:52:32.000Z</time>
      </trkpt>
      <trkpt lat="43.8992" lon="0.13742">
        <ele>211.97</ele>
        <time>2019-04-15T10:52:42.000Z</time>
      </trkpt>
      <trkpt lat="43.8992" lon="0.13737">
        <ele>212.41</ele>
        <time>2019-04-15T10:52:52.000Z</time>
      </trkpt>
      <trkpt lat="43.89921" lon="0.13738">
        <ele>212.6</ele>
        <time>2019-04-15T10:53:07.000Z</time>
      </trkpt>
      <trkpt lat="43.89919" lon="0.1374">
        <ele>212.86</ele>
        <time>2019-04-15T10:53:17.000Z</time>
      </trkpt>
      <trkpt lat="43.89918" lon="0.13741">
        <ele>212.5</ele>
        <time>2019-04-15T10:53:31.000Z</time>
      </trkpt>
      <trkpt lat="43.89917" lon="0.13738">
        <ele>212.68</ele>
        <time>2019-04-15T10:54:11.000Z</time>
      </trkpt>
      <trkpt lat="43.89913" lon="0.13729">
        <ele>212.32</ele>
        <time>2019-04-15T10:54:21.000Z</time>
      </trkpt>
      <trkpt lat="43.89906" lon="0.1372">
        <ele>211.95</ele>
        <time>2019-04-15T10:54:31.000Z</time>
      </trkpt>
      <trkpt lat="43.89905" lon="0.1371">
        <ele>212.05</ele>
        <time>2019-04-15T10:54:41.000Z</time>
      </trkpt>
      <trkpt lat="43.89903" lon="0.13698">
        <ele>212.39</ele>
        <time>2019-04-15T10:54:51.000Z</time>
      </trkpt>
      <trkpt lat="43.89904" lon="0.13686">
        <ele>212.27</ele>
        <time>2019-04-15T10:55:01.000Z</time>
      </trkpt>
      <trkpt lat="43.89905" lon="0.13672">
        <ele>211.8</ele>
        <time>2019-04-15T10:55:11.000Z</time>
      </trkpt>
      <trkpt lat="43.89905" lon="0.13658">
        <ele>212.09</ele>
        <time>2019-04-15T10:55:21.000Z</time>
      </trkpt>
      <trkpt lat="43.89903" lon="0.13643">
        <ele>212.25</ele>
        <time>2019-04-15T10:55:31.000Z</time>
      </trkpt>
      <trkpt lat="43.89903" lon="0.13632">
        <ele>212.58</ele>
        <time>2019-04-15T10:55:41.000Z</time>
      </trkpt>
      <trkpt lat="43.89902" lon="0.13618">
        <ele>212.54</ele>
        <time>2019-04-15T10:55:51.000Z</time>
      </trkpt>
      <trkpt lat="43.89902" lon="0.13603">
        <ele>212.49</ele>
        <time>2019-04-15T10:56:01.000Z</time>
      </trkpt>
      <trkpt lat="43.89902" lon="0.13587">
        <ele>213.01</ele>
        <time>2019-04-15T10:56:11.000Z</time>
      </trkpt>
      <trkpt lat="43.89901" lon="0.13571">
        <ele>213.16</ele>
        <time>2019-04-15T10:56:21.000Z</time>
      </trkpt>
      <trkpt lat="43.89901" lon="0.13557">
        <ele>213.54</ele>
        <time>2019-04-15T10:56:31.000Z</time>
      </trkpt>
      <trkpt lat="43.89901" lon="0.13543">
        <ele>213.92</ele>
        <time>2019-04-15T10:56:41.000Z</time>
      </trkpt>
      <trkpt lat="43.89901" lon="0.13529">
        <ele>213.93</ele>
        <time>2019-04-15T10:56:51.000Z</time>
      </trkpt>
      <trkpt lat="43.899" lon="0.13516">
        <ele>214.01</ele>
        <time>2019-04-15T10:57:01.000Z</time>
      </trkpt>
      <trkpt lat="43.89902" lon="0.135">
        <ele>214.47</ele>
        <time>2019-04-15T10:57:11.000Z</time>
      </trkpt>
      <trkpt lat="43.899" lon="0.13491">
        <ele>214.79</ele>
        <time>2019-04-15T10:57:21.000Z</time>
      </trkpt>
      <trkpt lat="43.899" lon="0.13486">
        <ele>214.83</ele>
        <time>2019-04-15T10:57:31.000Z</time>
      </trkpt>
      <trkpt lat="43.899" lon="0.1348">
        <ele>214.5</ele>
        <time>2019-04-15T10:57:41.000Z</time>
      </trkpt>
      <trkpt lat="43.89901" lon="0.13467">
        <ele>214.09</ele>
        <time>2019-04-15T10:57:51.000Z</time>
      </trkpt>
      <trkpt lat="43.899" lon="0.13456">
        <ele>214.8</ele>
        <time>2019-04-15T10:58:01.000Z</time>
      </trkpt>
      <trkpt lat="43.899" lon="0.13454">
        <ele>214.61</ele>
        <time>2019-04-15T10:58:44.000Z</time>
      </trkpt>
      <trkpt lat="43.89901" lon="0.13448">
        <ele>214.62</ele>
        <time>2019-04-15T10:58:54.000Z</time>
      </trkpt>
      <trkpt lat="43.89899" lon="0.13441">
        <ele>214.41</ele>
        <time>2019-04-15T10:59:04.000Z</time>
      </trkpt>
      <trkpt lat="43.89899" lon="0.13435">
        <ele>214.75</ele>
        <time>2019-04-15T10:59:14.000Z</time>
      </trkpt>
      <trkpt lat="43.89897" lon="0.13429">
        <ele>215.36</ele>
        <time>2019-04-15T10:59:24.000Z</time>
      </trkpt>
      <trkpt lat="43.89899" lon="0.13413">
        <ele>215.13</ele>
        <time>2019-04-15T10:59:34.000Z</time>
      </trkpt>
      <trkpt lat="43.89898" lon="0.13397">
        <ele>215.46</ele>
        <time>2019-04-15T10:59:44.000Z</time>
      </trkpt>
      <trkpt lat="43.89896" lon="0.13382">
        <ele>215.8</ele>
        <time>2019-04-15T10:59:54.000Z</time>
      </trkpt>
      <trkpt lat="43.89895" lon="0.13367">
        <ele>215.77</ele>
        <time>2019-04-15T11:00:04.000Z</time>
      </trkpt>
      <trkpt lat="43.89893" lon="0.13352">
        <ele>215.66</ele>
        <time>2019-04-15T11:00:14.000Z</time>
      </trkpt>
      <trkpt lat="43.8989" lon="0.13337">
        <ele>215.96</ele>
        <time>2019-04-15T11:00:24.000Z</time>
      </trkpt>
      <trkpt lat="43.89887" lon="0.13319">
        <ele>216.33</ele>
        <time>2019-04-15T11:00:34.000Z</time>
      </trkpt>
      <trkpt lat="43.89883" lon="0.13303">
        <ele>216.67</ele>
        <time>2019-04-15T11:00:44.000Z</time>
      </trkpt>
      <trkpt lat="43.89878" lon="0.13287">
        <ele>216.8</ele>
        <time>2019-04-15T11:00:54.000Z</time>
      </trkpt>
      <trkpt lat="43.89874" lon="0.13275">
        <ele>217.04</ele>
        <time>2019-04-15T11:01:04.000Z</time>
      </trkpt>
      <trkpt lat="43.89868" lon="0.13258">
        <ele>216.76</ele>
        <time>2019-04-15T11:01:14.000Z</time>
      </trkpt>
      <trkpt lat="43.89864" lon="0.13245">
        <ele>216.92</ele>
        <time>2019-04-15T11:01:24.000Z</time>
      </trkpt>
      <trkpt lat="43.89864" lon="0.13237">
        <ele>217.77</ele>
        <time>2019-04-15T11:01:34.000Z</time>
      </trkpt>
      <trkpt lat="43.89858" lon="0.13226">
        <ele>217.68</ele>
        <time>2019-04-15T11:01:44.000Z</time>
      </trkpt>
      <trkpt lat="43.89852" lon="0.13213">
        <ele>217.8</ele>
        <time>2019-04-15T11:01:54.000Z</time>
      </trkpt>
      <trkpt lat="43.89848" lon="0.13198">
        <ele>217.92</ele>
        <time>2019-04-15T11:02:04.000Z</time>
      </trkpt>
      <trkpt lat="43.89843" lon="0.13184">
        <ele>217.63</ele>
        <time>2019-04-15T11:02:14.000Z</time>
      </trkpt>
      <trkpt lat="43.89837" lon="0.13173">
        <ele>217.69</ele>
        <time>2019-04-15T11:02:24.000Z</time>
      </trkpt>
      <trkpt lat="43.89829" lon="0.1316">
        <ele>217.81</ele>
        <time>2019-04-15T11:02:34.000Z</time>
      </trkpt>
      <trkpt lat="43.89824" lon="0.13147">
        <ele>217.7</ele>
        <time>2019-04-15T11:02:44.000Z</time>
      </trkpt>
      <trkpt lat="43.89818" lon="0.13136">
        <ele>218.2</ele>
        <time>2019-04-15T11:02:54.000Z</time>
      </trkpt>
      <trkpt lat="43.8981" lon="0.1312">
        <ele>218.39</ele>
        <time>2019-04-15T11:03:04.000Z</time>
      </trkpt>
      <trkpt lat="43.89801" lon="0.13107">
        <ele>218.78</ele>
        <time>2019-04-15T11:03:14.000Z</time>
      </trkpt>
      <trkpt lat="43.89794" lon="0.13094">
        <ele>218.57</ele>
        <time>2019-04-15T11:03:24.000Z</time>
      </trkpt>
      <trkpt lat="43.89786" lon="0.13083">
        <ele>218.51</ele>
        <time>2019-04-15T11:03:34.000Z</time>
      </trkpt>
      <trkpt lat="43.8978" lon="0.13073">
        <ele>219.19</ele>
        <time>2019-04-15T11:03:44.000Z</time>
      </trkpt>
      <trkpt lat="43.89772" lon="0.13061">
        <ele>219.51</ele>
        <time>2019-04-15T11:03:54.000Z</time>
      </trkpt>
      <trkpt lat="43.89763" lon="0.13051">
        <ele>219.76</ele>
        <time>2019-04-15T11:04:04.000Z</time>
      </trkpt>
      <trkpt lat="43.89757" lon="0.13044">
        <ele>218.82</ele>
        <time>2019-04-15T11:04:14.000Z</time>
      </trkpt>
      <trkpt lat="43.89747" lon="0.13035">
        <ele>219.7</ele>
        <time>2019-04-15T11:04:24.000Z</time>
      </trkpt>
      <trkpt lat="43.89739" lon="0.13023">
        <ele>219.5</ele>
        <time>2019-04-15T11:04:34.000Z</time>
      </trkpt>
      <trkpt lat="43.89728" lon="0.13009">
        <ele>219.86</ele>
        <time>2019-04-15T11:04:44.000Z</time>
      </trkpt>
      <trkpt lat="43.8972" lon="0.12998">
        <ele>220.21</ele>
        <time>2019-04-15T11:04:54.000Z</time>
      </trkpt>
      <trkpt lat="43.8971" lon="0.12987">
        <ele>220.18</ele>
        <time>2019-04-15T11:05:04.000Z</time>
      </trkpt>
      <trkpt lat="43.897" lon="0.12976">
        <ele>221.07</ele>
        <time>2019-04-15T11:05:14.000Z</time>
      </trkpt>
      <trkpt lat="43.89692" lon="0.12965">
        <ele>221.25</ele>
        <time>2019-04-15T11:05:24.000Z</time>
      </trkpt>
      <trkpt lat="43.89684" lon="0.12955">
        <ele>220.83</ele>
        <time>2019-04-15T11:05:34.000Z</time>
      </trkpt>
      <trkpt lat="43.89675" lon="0.12946">
        <ele>220.66</ele>
        <time>2019-04-15T11:05:44.000Z</time>
      </trkpt>
      <trkpt lat="43.89668" lon="0.12938">
        <ele>221.2</ele>
        <time>2019-04-15T11:05:54.000Z</time>
      </trkpt>
      <trkpt lat="43.89658" lon="0.12926">
        <ele>221.89</ele>
        <time>2019-04-15T11:06:04.000Z</time>
      </trkpt>
      <trkpt lat="43.89649" lon="0.12914">
        <ele>221.55</ele>
        <time>2019-04-15T11:06:14.000Z</time>
      </trkpt>
      <trkpt lat="43.8964" lon="0.12904">
        <ele>221.96</ele>
        <time>2019-04-15T11:06:24.000Z</time>
      </trkpt>
      <trkpt lat="43.89632" lon="0.12894">
        <ele>222.44</ele>
        <time>2019-04-15T11:06:34.000Z</time>
      </trkpt>
      <trkpt lat="43.89623" lon="0.12882">
        <ele>222.32</ele>
        <time>2019-04-15T11:06:44.000Z</time>
      </trkpt>
      <trkpt lat="43.89616" lon="0.12873">
        <ele>222.54</ele>
        <time>2019-04-15T11:06:54.000Z</time>
      </trkpt>
      <trkpt lat="43.89608" lon="0.12866">
        <ele>222.75</ele>
        <time>2019-04-15T11:07:04.000Z</time>
      </trkpt>
      <trkpt lat="43.896" lon="0.12855">
        <ele>222.66</ele>
        <time>2019-04-15T11:07:14.000Z</time>
      </trkpt>
      <trkpt lat="43.8959" lon="0.12843">
        <ele>222.65</ele>
        <time>2019-04-15T11:07:24.000Z</time>
      </trkpt>
      <trkpt lat="43.8958" lon="0.12833">
        <ele>222.72</ele>
        <time>2019-04-15T11:07:34.000Z</time>
      </trkpt>
      <trkpt lat="43.89571" lon="0.12821">
        <ele>223.31</ele>
        <time>2019-04-15T11:07:44.000Z</time>
      </trkpt>
      <trkpt lat="43.89563" lon="0.1281">
        <ele>223.48</ele>
        <time>2019-04-15T11:07:54.000Z</time>
      </trkpt>
      <trkpt lat="43.89555" lon="0.12799">
        <ele>223.62</ele>
        <time>2019-04-15T11:08:04.000Z</time>
      </trkpt>
      <trkpt lat="43.89545" lon="0.12788">
        <ele>224.4</ele>
        <time>2019-04-15T11:08:14.000Z</time>
      </trkpt>
      <trkpt lat="43.89537" lon="0.12781">
        <ele>223.98</ele>
        <time>2019-04-15T11:08:24.000Z</time>
      </trkpt>
      <trkpt lat="43.89526" lon="0.1277">
        <ele>224.44</ele>
        <time>2019-04-15T11:08:34.000Z</time>
      </trkpt>
      <trkpt lat="43.89517" lon="0.1276">
        <ele>224.17</ele>
        <time>2019-04-15T11:08:44.000Z</time>
      </trkpt>
      <trkpt lat="43.8951" lon="0.12749">
        <ele>224.27</ele>
        <time>2019-04-15T11:08:54.000Z</time>
      </trkpt>
      <trkpt lat="43.89501" lon="0.1274">
        <ele>224.39</ele>
        <time>2019-04-15T11:09:04.000Z</time>
      </trkpt>
      <trkpt lat="43.8949" lon="0.12726">
        <ele>225.55</ele>
        <time>2019-04-15T11:09:14.000Z</time>
      </trkpt>
      <trkpt lat="43.89482" lon="0.12717">
        <ele>225.64</ele>
        <time>2019-04-15T11:09:24.000Z</time>
      </trkpt>
      <trkpt lat="43.89475" lon="0.12707">
        <ele>225.39</ele>
        <time>2019-04-15T11:09:34.000Z</time>
      </trkpt>
      <trkpt lat="43.89465" lon="0.12696">
        <ele>225.08</ele>
        <time>2019-04-15T11:09:44.000Z</time>
      </trkpt>
      <trkpt lat="43.89456" lon="0.12683">
        <ele>225.52</ele>
        <time>2019-04-15T11:09:54.000Z</time>
      </trkpt>
      <trkpt lat="43.89446" lon="0.12674">
        <ele>225.58</ele>
        <time>2019-04-15T11:10:04.000Z</time>
      </trkpt>
      <trkpt lat="43.89439" lon="0.12666">
        <ele>225.9</ele>
        <time>2019-04-15T11:10:14.000Z</time>
      </trkpt>
      <trkpt lat="43.89429" lon="0.12654">
        <ele>226.56</ele>
        <time>2019-04-15T11:10:24.000Z</time>
      </trkpt>
      <trkpt lat="43.8942" lon="0.1264">
        <ele>226.64</ele>
        <time>2019-04-15T11:10:34.000Z</time>
      </trkpt>
      <trkpt lat="43.8941" lon="0.12633">
        <ele>226.41</ele>
        <time>2019-04-15T11:10:44.000Z</time>
      </trkpt>
      <trkpt lat="43.89402" lon="0.1262">
        <ele>226.64</ele>
        <time>2019-04-15T11:10:54.000Z</time>
      </trkpt>
      <trkpt lat="43.89396" lon="0.12612">
        <ele>226.98</ele>
        <time>2019-04-15T11:11:04.000Z</time>
      </trkpt>
      <trkpt lat="43.89387" lon="0.12601">
        <ele>226.8</ele>
        <time>2019-04-15T11:11:14.000Z</time>
      </trkpt>
      <trkpt lat="43.89377" lon="0.12587">
        <ele>226.69</ele>
        <time>2019-04-15T11:11:24.000Z</time>
      </trkpt>
      <trkpt lat="43.89368" lon="0.12578">
        <ele>226.67</ele>
        <time>2019-04-15T11:11:34.000Z</time>
      </trkpt>
      <trkpt lat="43.8936" lon="0.12567">
        <ele>226.98</ele>
        <time>2019-04-15T11:11:44.000Z</time>
      </trkpt>
      <trkpt lat="43.8935" lon="0.12554">
        <ele>227.84</ele>
        <time>2019-04-15T11:11:54.000Z</time>
      </trkpt>
      <trkpt lat="43.89339" lon="0.12543">
        <ele>228.17</ele>
        <time>2019-04-15T11:12:04.000Z</time>
      </trkpt>
      <trkpt lat="43.89333" lon="0.1253">
        <ele>227.99</ele>
        <time>2019-04-15T11:12:14.000Z</time>
      </trkpt>
      <trkpt lat="43.89324" lon="0.12522">
        <ele>227.69</ele>
        <time>2019-04-15T11:12:24.000Z</time>
      </trkpt>
      <trkpt lat="43.89317" lon="0.12513">
        <ele>227.18</ele>
        <time>2019-04-15T11:12:34.000Z</time>
      </trkpt>
      <trkpt lat="43.89305" lon="0.12504">
        <ele>227.55</ele>
        <time>2019-04-15T11:12:44.000Z</time>
      </trkpt>
      <trkpt lat="43.893" lon="0.12498">
        <ele>227.31</ele>
        <time>2019-04-15T11:12:54.000Z</time>
      </trkpt>
      <trkpt lat="43.89293" lon="0.12488">
        <ele>227.49</ele>
        <time>2019-04-15T11:13:04.000Z</time>
      </trkpt>
      <trkpt lat="43.89286" lon="0.1248">
        <ele>227.33</ele>
        <time>2019-04-15T11:13:14.000Z</time>
      </trkpt>
      <trkpt lat="43.89279" lon="0.12468">
        <ele>227.27</ele>
        <time>2019-04-15T11:13:24.000Z</time>
      </trkpt>
      <trkpt lat="43.89272" lon="0.12456">
        <ele>227.57</ele>
        <time>2019-04-15T11:13:34.000Z</time>
      </trkpt>
      <trkpt lat="43.89262" lon="0.12444">
        <ele>227.89</ele>
        <time>2019-04-15T11:13:44.000Z</time>
      </trkpt>
      <trkpt lat="43.89255" lon="0.12434">
        <ele>228.46</ele>
        <time>2019-04-15T11:13:54.000Z</time>
      </trkpt>
      <trkpt lat="43.89246" lon="0.12423">
        <ele>228.06</ele>
        <time>2019-04-15T11:14:04.000Z</time>
      </trkpt>
      <trkpt lat="43.89238" lon="0.12411">
        <ele>228.28</ele>
        <time>2019-04-15T11:14:14.000Z</time>
      </trkpt>
      <trkpt lat="43.89228" lon="0.12402">
        <ele>228.64</ele>
        <time>2019-04-15T11:14:24.000Z</time>
      </trkpt>
      <trkpt lat="43.89222" lon="0.12389">
        <ele>228.95</ele>
        <time>2019-04-15T11:14:34.000Z</time>
      </trkpt>
      <trkpt lat="43.89215" lon="0.12377">
        <ele>229.39</ele>
        <time>2019-04-15T11:14:44.000Z</time>
      </trkpt>
      <trkpt lat="43.89207" lon="0.12363">
        <ele>228.62</ele>
        <time>2019-04-15T11:14:54.000Z</time>
      </trkpt>
      <trkpt lat="43.89197" lon="0.12352">
        <ele>228.98</ele>
        <time>2019-04-15T11:15:04.000Z</time>
      </trkpt>
      <trkpt lat="43.8919" lon="0.12339">
        <ele>229.23</ele>
        <time>2019-04-15T11:15:14.000Z</time>
      </trkpt>
      <trkpt lat="43.89181" lon="0.12326">
        <ele>229.35</ele>
        <time>2019-04-15T11:15:24.000Z</time>
      </trkpt>
      <trkpt lat="43.89173" lon="0.12314">
        <ele>229.27</ele>
        <time>2019-04-15T11:15:34.000Z</time>
      </trkpt>
      <trkpt lat="43.89164" lon="0.12303">
        <ele>229.58</ele>
        <time>2019-04-15T11:15:44.000Z</time>
      </trkpt>
      <trkpt lat="43.89157" lon="0.12289">
        <ele>230.28</ele>
        <time>2019-04-15T11:15:54.000Z</time>
      </trkpt>
      <trkpt lat="43.89148" lon="0.12278">
        <ele>230.15</ele>
        <time>2019-04-15T11:16:04.000Z</time>
      </trkpt>
      <trkpt lat="43.8914" lon="0.12265">
        <ele>230.64</ele>
        <time>2019-04-15T11:16:14.000Z</time>
      </trkpt>
      <trkpt lat="43.89131" lon="0.12254">
        <ele>230.23</ele>
        <time>2019-04-15T11:16:24.000Z</time>
      </trkpt>
      <trkpt lat="43.89125" lon="0.12242">
        <ele>230.66</ele>
        <time>2019-04-15T11:16:34.000Z</time>
      </trkpt>
      <trkpt lat="43.89116" lon="0.1223">
        <ele>231</ele>
        <time>2019-04-15T11:16:44.000Z</time>
      </trkpt>
      <trkpt lat="43.89109" lon="0.12214">
        <ele>231.23</ele>
        <time>2019-04-15T11:16:54.000Z</time>
      </trkpt>
      <trkpt lat="43.89101" lon="0.12202">
        <ele>231.03</ele>
        <time>2019-04-15T11:17:04.000Z</time>
      </trkpt>
      <trkpt lat="43.89093" lon="0.12188">
        <ele>231.29</ele>
        <time>2019-04-15T11:17:14.000Z</time>
      </trkpt>
      <trkpt lat="43.89083" lon="0.12177">
        <ele>231.44</ele>
        <time>2019-04-15T11:17:24.000Z</time>
      </trkpt>
      <trkpt lat="43.89075" lon="0.12165">
        <ele>231.77</ele>
        <time>2019-04-15T11:17:34.000Z</time>
      </trkpt>
      <trkpt lat="43.89068" lon="0.12154">
        <ele>231.57</ele>
        <time>2019-04-15T11:17:44.000Z</time>
      </trkpt>
      <trkpt lat="43.89061" lon="0.12143">
        <ele>231.55</ele>
        <time>2019-04-15T11:17:54.000Z</time>
      </trkpt>
      <trkpt lat="43.89053" lon="0.12131">
        <ele>232.24</ele>
        <time>2019-04-15T11:18:04.000Z</time>
      </trkpt>
      <trkpt lat="43.89045" lon="0.12117">
        <ele>231.9</ele>
        <time>2019-04-15T11:18:14.000Z</time>
      </trkpt>
      <trkpt lat="43.89037" lon="0.12103">
        <ele>231.66</ele>
        <time>2019-04-15T11:18:24.000Z</time>
      </trkpt>
      <trkpt lat="43.89031" lon="0.12089">
        <ele>231.66</ele>
        <time>2019-04-15T11:18:34.000Z</time>
      </trkpt>
      <trkpt lat="43.89021" lon="0.12079">
        <ele>231.32</ele>
        <time>2019-04-15T11:18:44.000Z</time>
      </trkpt>
      <trkpt lat="43.89016" lon="0.12064">
        <ele>231.71</ele>
        <time>2019-04-15T11:18:54.000Z</time>
      </trkpt>
      <trkpt lat="43.89008" lon="0.12048">
        <ele>232.37</ele>
        <time>2019-04-15T11:19:04.000Z</time>
      </trkpt>
      <trkpt lat="43.89003" lon="0.12038">
        <ele>232.31</ele>
        <time>2019-04-15T11:19:14.000Z</time>
      </trkpt>
      <trkpt lat="43.88995" lon="0.12026">
        <ele>232.89</ele>
        <time>2019-04-15T11:19:24.000Z</time>
      </trkpt>
      <trkpt lat="43.88987" lon="0.1201">
        <ele>233.29</ele>
        <time>2019-04-15T11:19:34.000Z</time>
      </trkpt>
      <trkpt lat="43.8898" lon="0.11997">
        <ele>233.06</ele>
        <time>2019-04-15T11:19:44.000Z</time>
      </trkpt>
      <trkpt lat="43.88972" lon="0.11982">
        <ele>233.19</ele>
        <time>2019-04-15T11:19:54.000Z</time>
      </trkpt>
      <trkpt lat="43.88967" lon="0.11969">
        <ele>233.53</ele>
        <time>2019-04-15T11:20:04.000Z</time>
      </trkpt>
      <trkpt lat="43.8896" lon="0.11955">
        <ele>233.8</ele>
        <time>2019-04-15T11:20:14.000Z</time>
      </trkpt>
      <trkpt lat="43.88952" lon="0.11942">
        <ele>233.89</ele>
        <time>2019-04-15T11:20:24.000Z</time>
      </trkpt>
      <trkpt lat="43.88946" lon="0.11926">
        <ele>234.09</ele>
        <time>2019-04-15T11:20:34.000Z</time>
      </trkpt>
      <trkpt lat="43.88939" lon="0.11913">
        <ele>234.74</ele>
        <time>2019-04-15T11:20:44.000Z</time>
      </trkpt>
      <trkpt lat="43.88933" lon="0.11901">
        <ele>234.45</ele>
        <time>2019-04-15T11:20:54.000Z</time>
      </trkpt>
      <trkpt lat="43.88925" lon="0.11885">
        <ele>234.37</ele>
        <time>2019-04-15T11:21:04.000Z</time>
      </trkpt>
      <trkpt lat="43.88917" lon="0.11873">
        <ele>235.1</ele>
        <time>2019-04-15T11:21:14.000Z</time>
      </trkpt>
      <trkpt lat="43.88909" lon="0.11859">
        <ele>235.01</ele>
        <time>2019-04-15T11:21:24.000Z</time>
      </trkpt>
      <trkpt lat="43.88903" lon="0.11844">
        <ele>235.5</ele>
        <time>2019-04-15T11:21:34.000Z</time>
      </trkpt>
      <trkpt lat="43.88895" lon="0.11828">
        <ele>235.33</ele>
        <time>2019-04-15T11:21:44.000Z</time>
      </trkpt>
      <trkpt lat="43.8889" lon="0.11814">
        <ele>235.17</ele>
        <time>2019-04-15T11:21:54.000Z</time>
      </trkpt>
      <trkpt lat="43.88883" lon="0.118">
        <ele>235.58</ele>
        <time>2019-04-15T11:22:04.000Z</time>
      </trkpt>
      <trkpt lat="43.88878" lon="0.11784">
        <ele>236.03</ele>
        <time>2019-04-15T11:22:14.000Z</time>
      </trkpt>
      <trkpt lat="43.88869" lon="0.11768">
        <ele>236.34</ele>
        <time>2019-04-15T11:22:24.000Z</time>
      </trkpt>
      <trkpt lat="43.88862" lon="0.11753">
        <ele>236.42</ele>
        <time>2019-04-15T11:22:34.000Z</time>
      </trkpt>
      <trkpt lat="43.88854" lon="0.11742">
        <ele>236.87</ele>
        <time>2019-04-15T11:22:44.000Z</time>
      </trkpt>
      <trkpt lat="43.88849" lon="0.11728">
        <ele>236.64</ele>
        <time>2019-04-15T11:22:54.000Z</time>
      </trkpt>
      <trkpt lat="43.88845" lon="0.11715">
        <ele>237.19</ele>
        <time>2019-04-15T11:23:04.000Z</time>
      </trkpt>
      <trkpt lat="43.88837" lon="0.11701">
        <ele>236.84</ele>
        <time>2019-04-15T11:23:14.000Z</time>
      </trkpt>
      <trkpt lat="43.88832" lon="0.11687">
        <ele>237.18</ele>
        <time>2019-04-15T11:23:24.000Z</time>
      </trkpt>
      <trkpt lat="43.88825" lon="0.11675">
        <ele>237.72</ele>
        <time>2019-04-15T11:23:34.000Z</time>
      </trkpt>
      <trkpt lat="43.88818" lon="0.11657">
        <ele>237.4</ele>
        <time>2019-04-15T11:23:44.000Z</time>
      </trkpt>
      <trkpt lat="43.88813" lon="0.1164">
        <ele>237.64</ele>
        <time>2019-04-15T11:23:54.000Z</time>
      </trkpt>
      <trkpt lat="43.88804" lon="0.11624">
        <ele>238.13</ele>
        <time>2019-04-15T11:24:04.000Z</time>
      </trkpt>
      <trkpt lat="43.888" lon="0.11611">
        <ele>238.57</ele>
        <time>2019-04-15T11:24:14.000Z</time>
      </trkpt>
      <trkpt lat="43.88797" lon="0.11598">
        <ele>238.88</ele>
        <time>2019-04-15T11:24:24.000Z</time>
      </trkpt>
      <trkpt lat="43.88789" lon="0.11583">
        <ele>239.07</ele>
        <time>2019-04-15T11:24:34.000Z</time>
      </trkpt>
      <trkpt lat="43.88784" lon="0.11569">
        <ele>239.08</ele>
        <time>2019-04-15T11:24:44.000Z</time>
      </trkpt>
      <trkpt lat="43.88778" lon="0.11551">
        <ele>239.5</ele>
        <time>2019-04-15T11:24:54.000Z</time>
      </trkpt>
      <trkpt lat="43.88771" lon="0.11539">
        <ele>239.69</ele>
        <time>2019-04-15T11:25:04.000Z</time>
      </trkpt>
      <trkpt lat="43.88766" lon="0.11523">
        <ele>239.83</ele>
        <time>2019-04-15T11:25:14.000Z</time>
      </trkpt>
      <trkpt lat="43.8876" lon="0.11506">
        <ele>240.22</ele>
        <time>2019-04-15T11:25:24.000Z</time>
      </trkpt>
      <trkpt lat="43.88753" lon="0.1149">
        <ele>240.35</ele>
        <time>2019-04-15T11:25:34.000Z</time>
      </trkpt>
      <trkpt lat="43.88749" lon="0.11474">
        <ele>240.59</ele>
        <time>2019-04-15T11:25:44.000Z</time>
      </trkpt>
      <trkpt lat="43.88742" lon="0.11461">
        <ele>240.91</ele>
        <time>2019-04-15T11:25:54.000Z</time>
      </trkpt>
      <trkpt lat="43.88737" lon="0.11445">
        <ele>241.47</ele>
        <time>2019-04-15T11:26:04.000Z</time>
      </trkpt>
      <trkpt lat="43.8873" lon="0.11429">
        <ele>240.83</ele>
        <time>2019-04-15T11:26:14.000Z</time>
      </trkpt>
      <trkpt lat="43.88725" lon="0.11413">
        <ele>241.7</ele>
        <time>2019-04-15T11:26:24.000Z</time>
      </trkpt>
      <trkpt lat="43.88719" lon="0.11398">
        <ele>241.53</ele>
        <time>2019-04-15T11:26:34.000Z</time>
      </trkpt>
      <trkpt lat="43.88714" lon="0.11384">
        <ele>241.82</ele>
        <time>2019-04-15T11:26:44.000Z</time>
      </trkpt>
      <trkpt lat="43.88711" lon="0.1137">
        <ele>242.11</ele>
        <time>2019-04-15T11:26:54.000Z</time>
      </trkpt>
      <trkpt lat="43.88706" lon="0.11354">
        <ele>242.33</ele>
        <time>2019-04-15T11:27:04.000Z</time>
      </trkpt>
      <trkpt lat="43.88703" lon="0.1134">
        <ele>242.62</ele>
        <time>2019-04-15T11:27:14.000Z</time>
      </trkpt>
      <trkpt lat="43.88697" lon="0.11324">
        <ele>242.67</ele>
        <time>2019-04-15T11:27:24.000Z</time>
      </trkpt>
      <trkpt lat="43.88692" lon="0.11308">
        <ele>242.62</ele>
        <time>2019-04-15T11:27:34.000Z</time>
      </trkpt>
      <trkpt lat="43.88687" lon="0.11292">
        <ele>243</ele>
        <time>2019-04-15T11:27:44.000Z</time>
      </trkpt>
      <trkpt lat="43.88684" lon="0.11278">
        <ele>243.23</ele>
        <time>2019-04-15T11:27:54.000Z</time>
      </trkpt>
      <trkpt lat="43.88678" lon="0.11262">
        <ele>243.61</ele>
        <time>2019-04-15T11:28:04.000Z</time>
      </trkpt>
      <trkpt lat="43.88675" lon="0.11247">
        <ele>243.98</ele>
        <time>2019-04-15T11:28:14.000Z</time>
      </trkpt>
      <trkpt lat="43.8867" lon="0.1123">
        <ele>243.99</ele>
        <time>2019-04-15T11:28:24.000Z</time>
      </trkpt>
      <trkpt lat="43.88667" lon="0.11214">
        <ele>244.18</ele>
        <time>2019-04-15T11:28:34.000Z</time>
      </trkpt>
      <trkpt lat="43.88663" lon="0.11197">
        <ele>244.6</ele>
        <time>2019-04-15T11:28:44.000Z</time>
      </trkpt>
      <trkpt lat="43.8866" lon="0.11183">
        <ele>244.85</ele>
        <time>2019-04-15T11:28:54.000Z</time>
      </trkpt>
      <trkpt lat="43.88655" lon="0.11167">
        <ele>245</ele>
        <time>2019-04-15T11:29:04.000Z</time>
      </trkpt>
      <trkpt lat="43.88651" lon="0.11153">
        <ele>244.69</ele>
        <time>2019-04-15T11:29:14.000Z</time>
      </trkpt>
      <trkpt lat="43.88646" lon="0.11136">
        <ele>244.83</ele>
        <time>2019-04-15T11:29:24.000Z</time>
      </trkpt>
      <trkpt lat="43.88643" lon="0.1112">
        <ele>245.51</ele>
        <time>2019-04-15T11:29:34.000Z</time>
      </trkpt>
      <trkpt lat="43.88638" lon="0.11102">
        <ele>245.86</ele>
        <time>2019-04-15T11:29:44.000Z</time>
      </trkpt>
      <trkpt lat="43.88633" lon="0.11085">
        <ele>245.76</ele>
        <time>2019-04-15T11:29:54.000Z</time>
      </trkpt>
      <trkpt lat="43.8863" lon="0.11071">
        <ele>246.05</ele>
        <time>2019-04-15T11:30:04.000Z</time>
      </trkpt>
      <trkpt lat="43.88629" lon="0.11052">
        <ele>246.19</ele>
        <time>2019-04-15T11:30:14.000Z</time>
      </trkpt>
      <trkpt lat="43.88623" lon="0.11037">
        <ele>246.04</ele>
        <time>2019-04-15T11:30:24.000Z</time>
      </trkpt>
      <trkpt lat="43.88622" lon="0.1102">
        <ele>246.16</ele>
        <time>2019-04-15T11:30:34.000Z</time>
      </trkpt>
      <trkpt lat="43.88618" lon="0.11005">
        <ele>246.28</ele>
        <time>2019-04-15T11:30:44.000Z</time>
      </trkpt>
      <trkpt lat="43.88616" lon="0.10992">
        <ele>246.45</ele>
        <time>2019-04-15T11:30:54.000Z</time>
      </trkpt>
      <trkpt lat="43.88615" lon="0.10982">
        <ele>246.28</ele>
        <time>2019-04-15T11:31:04.000Z</time>
      </trkpt>
      <trkpt lat="43.88613" lon="0.10973">
        <ele>246.2</ele>
        <time>2019-04-15T11:31:14.000Z</time>
      </trkpt>
      <trkpt lat="43.88614" lon="0.10965">
        <ele>246.58</ele>
        <time>2019-04-15T11:31:24.000Z</time>
      </trkpt>
      <trkpt lat="43.88614" lon="0.1096">
        <ele>246.33</ele>
        <time>2019-04-15T11:31:34.000Z</time>
      </trkpt>
      <trkpt lat="43.88611" lon="0.10956">
        <ele>247.14</ele>
        <time>2019-04-15T11:31:44.000Z</time>
      </trkpt>
      <trkpt lat="43.88611" lon="0.10955">
        <ele>246.89</ele>
        <time>2019-04-15T11:32:40.000Z</time>
      </trkpt>
      <trkpt lat="43.88609" lon="0.10951">
        <ele>246.51</ele>
        <time>2019-04-15T11:32:50.000Z</time>
      </trkpt>
      <trkpt lat="43.88608" lon="0.10946">
        <ele>247.05</ele>
        <time>2019-04-15T11:33:00.000Z</time>
      </trkpt>
      <trkpt lat="43.8861" lon="0.1095">
        <ele>246.91</ele>
        <time>2019-04-15T11:33:10.000Z</time>
      </trkpt>
      <trkpt lat="43.88612" lon="0.10948">
        <ele>246.56</ele>
        <time>2019-04-15T11:33:20.000Z</time>
      </trkpt>
      <trkpt lat="43.88609" lon="0.10935">
        <ele>246.69</ele>
        <time>2019-04-15T11:33:30.000Z</time>
      </trkpt>
      <trkpt lat="43.88607" lon="0.10922">
        <ele>246.63</ele>
        <time>2019-04-15T11:33:40.000Z</time>
      </trkpt>
      <trkpt lat="43.88605" lon="0.10908">
        <ele>246.28</ele>
        <time>2019-04-15T11:33:50.000Z</time>
      </trkpt>
      <trkpt lat="43.88601" lon="0.10893">
        <ele>246.41</ele>
        <time>2019-04-15T11:34:00.000Z</time>
      </trkpt>
      <trkpt lat="43.88598" lon="0.10874">
        <ele>246.69</ele>
        <time>2019-04-15T11:34:10.000Z</time>
      </trkpt>
      <trkpt lat="43.88597" lon="0.10858">
        <ele>246.83</ele>
        <time>2019-04-15T11:34:20.000Z</time>
      </trkpt>
      <trkpt lat="43.88595" lon="0.10842">
        <ele>247.08</ele>
        <time>2019-04-15T11:34:30.000Z</time>
      </trkpt>
      <trkpt lat="43.88593" lon="0.10829">
        <ele>246.86</ele>
        <time>2019-04-15T11:34:40.000Z</time>
      </trkpt>
      <trkpt lat="43.88589" lon="0.10813">
        <ele>246.24</ele>
        <time>2019-04-15T11:34:50.000Z</time>
      </trkpt>
      <trkpt lat="43.88586" lon="0.10797">
        <ele>246.2</ele>
        <time>2019-04-15T11:35:00.000Z</time>
      </trkpt>
      <trkpt lat="43.88583" lon="0.10782">
        <ele>246.38</ele>
        <time>2019-04-15T11:35:10.000Z</time>
      </trkpt>
      <trkpt lat="43.88578" lon="0.10767">
        <ele>246.26</ele>
        <time>2019-04-15T11:35:20.000Z</time>
      </trkpt>
      <trkpt lat="43.88573" lon="0.10753">
        <ele>246.6</ele>
        <time>2019-04-15T11:35:30.000Z</time>
      </trkpt>
      <trkpt lat="43.88568" lon="0.1074">
        <ele>246.02</ele>
        <time>2019-04-15T11:35:40.000Z</time>
      </trkpt>
      <trkpt lat="43.88561" lon="0.1072">
        <ele>246.33</ele>
        <time>2019-04-15T11:35:50.000Z</time>
      </trkpt>
      <trkpt lat="43.88557" lon="0.10706">
        <ele>246.28</ele>
        <time>2019-04-15T11:36:00.000Z</time>
      </trkpt>
      <trkpt lat="43.88547" lon="0.10693">
        <ele>246.45</ele>
        <time>2019-04-15T11:36:10.000Z</time>
      </trkpt>
      <trkpt lat="43.88539" lon="0.10682">
        <ele>246.35</ele>
        <time>2019-04-15T11:36:20.000Z</time>
      </trkpt>
      <trkpt lat="43.8853" lon="0.10667">
        <ele>246.33</ele>
        <time>2019-04-15T11:36:30.000Z</time>
      </trkpt>
      <trkpt lat="43.88523" lon="0.10657">
        <ele>246.3</ele>
        <time>2019-04-15T11:36:40.000Z</time>
      </trkpt>
      <trkpt lat="43.88513" lon="0.10645">
        <ele>245.77</ele>
        <time>2019-04-15T11:36:50.000Z</time>
      </trkpt>
      <trkpt lat="43.88508" lon="0.10632">
        <ele>245.81</ele>
        <time>2019-04-15T11:37:00.000Z</time>
      </trkpt>
      <trkpt lat="43.88498" lon="0.10621">
        <ele>246.03</ele>
        <time>2019-04-15T11:37:10.000Z</time>
      </trkpt>
      <trkpt lat="43.88488" lon="0.10612">
        <ele>245.5</ele>
        <time>2019-04-15T11:37:20.000Z</time>
      </trkpt>
      <trkpt lat="43.88477" lon="0.10603">
        <ele>245.51</ele>
        <time>2019-04-15T11:37:30.000Z</time>
      </trkpt>
      <trkpt lat="43.88467" lon="0.10594">
        <ele>244.89</ele>
        <time>2019-04-15T11:37:40.000Z</time>
      </trkpt>
      <trkpt lat="43.88454" lon="0.10582">
        <ele>244.9</ele>
        <time>2019-04-15T11:37:50.000Z</time>
      </trkpt>
      <trkpt lat="43.88442" lon="0.10574">
        <ele>245.17</ele>
        <time>2019-04-15T11:38:00.000Z</time>
      </trkpt>
      <trkpt lat="43.88431" lon="0.10567">
        <ele>244.8</ele>
        <time>2019-04-15T11:38:10.000Z</time>
      </trkpt>
      <trkpt lat="43.8842" lon="0.1056">
        <ele>245.13</ele>
        <time>2019-04-15T11:38:20.000Z</time>
      </trkpt>
      <trkpt lat="43.88407" lon="0.10557">
        <ele>244.96</ele>
        <time>2019-04-15T11:38:30.000Z</time>
      </trkpt>
      <trkpt lat="43.88394" lon="0.10552">
        <ele>244.7</ele>
        <time>2019-04-15T11:38:40.000Z</time>
      </trkpt>
      <trkpt lat="43.88382" lon="0.10548">
        <ele>244.41</ele>
        <time>2019-04-15T11:38:50.000Z</time>
      </trkpt>
      <trkpt lat="43.88369" lon="0.10544">
        <ele>244.6</ele>
        <time>2019-04-15T11:39:00.000Z</time>
      </trkpt>
      <trkpt lat="43.88359" lon="0.1054">
        <ele>244.29</ele>
        <time>2019-04-15T11:39:10.000Z</time>
      </trkpt>
      <trkpt lat="43.88345" lon="0.10537">
        <ele>244.23</ele>
        <time>2019-04-15T11:39:20.000Z</time>
      </trkpt>
      <trkpt lat="43.88334" lon="0.10535">
        <ele>244.23</ele>
        <time>2019-04-15T11:39:30.000Z</time>
      </trkpt>
      <trkpt lat="43.88322" lon="0.10534">
        <ele>243.98</ele>
        <time>2019-04-15T11:39:40.000Z</time>
      </trkpt>
      <trkpt lat="43.88309" lon="0.10535">
        <ele>243.65</ele>
        <time>2019-04-15T11:39:50.000Z</time>
      </trkpt>
      <trkpt lat="43.88296" lon="0.10538">
        <ele>243.56</ele>
        <time>2019-04-15T11:40:00.000Z</time>
      </trkpt>
      <trkpt lat="43.88283" lon="0.10539">
        <ele>243.09</ele>
        <time>2019-04-15T11:40:10.000Z</time>
      </trkpt>
      <trkpt lat="43.88271" lon="0.1054">
        <ele>242.97</ele>
        <time>2019-04-15T11:40:20.000Z</time>
      </trkpt>
      <trkpt lat="43.88261" lon="0.10544">
        <ele>243.29</ele>
        <time>2019-04-15T11:40:30.000Z</time>
      </trkpt>
      <trkpt lat="43.88248" lon="0.1055">
        <ele>242.67</ele>
        <time>2019-04-15T11:40:40.000Z</time>
      </trkpt>
      <trkpt lat="43.88238" lon="0.10553">
        <ele>242.88</ele>
        <time>2019-04-15T11:40:50.000Z</time>
      </trkpt>
      <trkpt lat="43.88226" lon="0.10557">
        <ele>242.47</ele>
        <time>2019-04-15T11:41:00.000Z</time>
      </trkpt>
      <trkpt lat="43.88214" lon="0.10561">
        <ele>242.64</ele>
        <time>2019-04-15T11:41:10.000Z</time>
      </trkpt>
      <trkpt lat="43.88202" lon="0.10563">
        <ele>242.6</ele>
        <time>2019-04-15T11:41:20.000Z</time>
      </trkpt>
      <trkpt lat="43.88191" lon="0.10569">
        <ele>242.37</ele>
        <time>2019-04-15T11:41:30.000Z</time>
      </trkpt>
      <trkpt lat="43.88178" lon="0.10571">
        <ele>241.71</ele>
        <time>2019-04-15T11:41:40.000Z</time>
      </trkpt>
      <trkpt lat="43.88165" lon="0.10574">
        <ele>241.61</ele>
        <time>2019-04-15T11:41:50.000Z</time>
      </trkpt>
      <trkpt lat="43.88153" lon="0.10576">
        <ele>241.5</ele>
        <time>2019-04-15T11:42:00.000Z</time>
      </trkpt>
      <trkpt lat="43.88143" lon="0.10581">
        <ele>241.04</ele>
        <time>2019-04-15T11:42:10.000Z</time>
      </trkpt>
      <trkpt lat="43.8813" lon="0.10583">
        <ele>241.07</ele>
        <time>2019-04-15T11:42:20.000Z</time>
      </trkpt>
      <trkpt lat="43.88119" lon="0.10588">
        <ele>240.86</ele>
        <time>2019-04-15T11:42:30.000Z</time>
      </trkpt>
      <trkpt lat="43.88108" lon="0.10593">
        <ele>240.73</ele>
        <time>2019-04-15T11:42:40.000Z</time>
      </trkpt>
      <trkpt lat="43.88096" lon="0.10594">
        <ele>240.47</ele>
        <time>2019-04-15T11:42:50.000Z</time>
      </trkpt>
      <trkpt lat="43.88083" lon="0.106">
        <ele>240.63</ele>
        <time>2019-04-15T11:43:00.000Z</time>
      </trkpt>
      <trkpt lat="43.8807" lon="0.106">
        <ele>239.95</ele>
        <time>2019-04-15T11:43:10.000Z</time>
      </trkpt>
      <trkpt lat="43.88057" lon="0.10603">
        <ele>240.13</ele>
        <time>2019-04-15T11:43:20.000Z</time>
      </trkpt>
      <trkpt lat="43.88046" lon="0.10607">
        <ele>239.75</ele>
        <time>2019-04-15T11:43:30.000Z</time>
      </trkpt>
      <trkpt lat="43.88033" lon="0.1061">
        <ele>239.83</ele>
        <time>2019-04-15T11:43:40.000Z</time>
      </trkpt>
      <trkpt lat="43.88022" lon="0.10615">
        <ele>239.62</ele>
        <time>2019-04-15T11:43:50.000Z</time>
      </trkpt>
      <trkpt lat="43.88011" lon="0.10618">
        <ele>239.68</ele>
        <time>2019-04-15T11:44:00.000Z</time>
      </trkpt>
      <trkpt lat="43.87999" lon="0.10622">
        <ele>239.45</ele>
        <time>2019-04-15T11:44:10.000Z</time>
      </trkpt>
      <trkpt lat="43.87986" lon="0.10625">
        <ele>239.16</ele>
        <time>2019-04-15T11:44:20.000Z</time>
      </trkpt>
      <trkpt lat="43.87975" lon="0.1063">
        <ele>238.58</ele>
        <time>2019-04-15T11:44:30.000Z</time>
      </trkpt>
      <trkpt lat="43.87962" lon="0.10632">
        <ele>238.57</ele>
        <time>2019-04-15T11:44:40.000Z</time>
      </trkpt>
      <trkpt lat="43.87951" lon="0.10638">
        <ele>238.63</ele>
        <time>2019-04-15T11:44:50.000Z</time>
      </trkpt>
      <trkpt lat="43.87938" lon="0.10641">
        <ele>238.28</ele>
        <time>2019-04-15T11:45:00.000Z</time>
      </trkpt>
      <trkpt lat="43.87925" lon="0.10644">
        <ele>238.26</ele>
        <time>2019-04-15T11:45:10.000Z</time>
      </trkpt>
      <trkpt lat="43.87914" lon="0.10645">
        <ele>238.01</ele>
        <time>2019-04-15T11:45:20.000Z</time>
      </trkpt>
      <trkpt lat="43.87902" lon="0.1065">
        <ele>237.72</ele>
        <time>2019-04-15T11:45:30.000Z</time>
      </trkpt>
      <trkpt lat="43.87897" lon="0.10653">
        <ele>237.75</ele>
        <time>2019-04-15T11:45:40.000Z</time>
      </trkpt>
      <trkpt lat="43.87886" lon="0.10657">
        <ele>237.45</ele>
        <time>2019-04-15T11:45:50.000Z</time>
      </trkpt>
      <trkpt lat="43.87875" lon="0.1066">
        <ele>237.49</ele>
        <time>2019-04-15T11:46:00.000Z</time>
      </trkpt>
      <trkpt lat="43.87865" lon="0.10666">
        <ele>237.32</ele>
        <time>2019-04-15T11:46:10.000Z</time>
      </trkpt>
      <trkpt lat="43.87852" lon="0.10669">
        <ele>237.17</ele>
        <time>2019-04-15T11:46:20.000Z</time>
      </trkpt>
      <trkpt lat="43.87842" lon="0.10675">
        <ele>237.18</ele>
        <time>2019-04-15T11:46:30.000Z</time>
      </trkpt>
      <trkpt lat="43.87829" lon="0.10676">
        <ele>236.96</ele>
        <time>2019-04-15T11:46:40.000Z</time>
      </trkpt>
      <trkpt lat="43.87817" lon="0.10679">
        <ele>236.59</ele>
        <time>2019-04-15T11:46:50.000Z</time>
      </trkpt>
      <trkpt lat="43.87805" lon="0.10681">
        <ele>236.37</ele>
        <time>2019-04-15T11:47:00.000Z</time>
      </trkpt>
      <trkpt lat="43.87791" lon="0.10679">
        <ele>236.32</ele>
        <time>2019-04-15T11:47:10.000Z</time>
      </trkpt>
      <trkpt lat="43.87778" lon="0.1068">
        <ele>236.25</ele>
        <time>2019-04-15T11:47:20.000Z</time>
      </trkpt>
      <trkpt lat="43.87767" lon="0.10681">
        <ele>235.77</ele>
        <time>2019-04-15T11:47:30.000Z</time>
      </trkpt>
      <trkpt lat="43.87755" lon="0.10682">
        <ele>235.82</ele>
        <time>2019-04-15T11:47:40.000Z</time>
      </trkpt>
      <trkpt lat="43.87743" lon="0.10682">
        <ele>236</ele>
        <time>2019-04-15T11:47:50.000Z</time>
      </trkpt>
      <trkpt lat="43.87729" lon="0.1068">
        <ele>235.63</ele>
        <time>2019-04-15T11:48:00.000Z</time>
      </trkpt>
      <trkpt lat="43.87715" lon="0.10682">
        <ele>235.26</ele>
        <time>2019-04-15T11:48:10.000Z</time>
      </trkpt>
      <trkpt lat="43.87702" lon="0.10682">
        <ele>234.95</ele>
        <time>2019-04-15T11:48:20.000Z</time>
      </trkpt>
      <trkpt lat="43.8769" lon="0.10685">
        <ele>234.85</ele>
        <time>2019-04-15T11:48:30.000Z</time>
      </trkpt>
      <trkpt lat="43.87676" lon="0.10687">
        <ele>234.94</ele>
        <time>2019-04-15T11:48:40.000Z</time>
      </trkpt>
      <trkpt lat="43.87664" lon="0.10689">
        <ele>234.96</ele>
        <time>2019-04-15T11:48:50.000Z</time>
      </trkpt>
      <trkpt lat="43.87652" lon="0.1069">
        <ele>235.07</ele>
        <time>2019-04-15T11:49:00.000Z</time>
      </trkpt>
      <trkpt lat="43.87642" lon="0.10694">
        <ele>235.03</ele>
        <time>2019-04-15T11:49:10.000Z</time>
      </trkpt>
      <trkpt lat="43.87629" lon="0.10697">
        <ele>234.69</ele>
        <time>2019-04-15T11:49:20.000Z</time>
      </trkpt>
      <trkpt lat="43.87617" lon="0.10702">
        <ele>234.45</ele>
        <time>2019-04-15T11:49:30.000Z</time>
      </trkpt>
      <trkpt lat="43.87605" lon="0.10706">
        <ele>234.34</ele>
        <time>2019-04-15T11:49:40.000Z</time>
      </trkpt>
      <trkpt lat="43.87594" lon="0.10714">
        <ele>233.65</ele>
        <time>2019-04-15T11:49:50.000Z</time>
      </trkpt>
      <trkpt lat="43.87584" lon="0.10719">
        <ele>233.53</ele>
        <time>2019-04-15T11:50:00.000Z</time>
      </trkpt>
      <trkpt lat="43.87571" lon="0.10725">
        <ele>233.28</ele>
        <time>2019-04-15T11:50:10.000Z</time>
      </trkpt>
      <trkpt lat="43.87559" lon="0.10729">
        <ele>233.44</ele>
        <time>2019-04-15T11:50:20.000Z</time>
      </trkpt>
      <trkpt lat="43.87549" lon="0.10735">
        <ele>233.17</ele>
        <time>2019-04-15T11:50:30.000Z</time>
      </trkpt>
      <trkpt lat="43.87536" lon="0.10742">
        <ele>232.91</ele>
        <time>2019-04-15T11:50:40.000Z</time>
      </trkpt>
      <trkpt lat="43.87525" lon="0.1075">
        <ele>232.56</ele>
        <time>2019-04-15T11:50:50.000Z</time>
      </trkpt>
      <trkpt lat="43.87514" lon="0.10755">
        <ele>232.74</ele>
        <time>2019-04-15T11:51:00.000Z</time>
      </trkpt>
      <trkpt lat="43.87503" lon="0.1076">
        <ele>232.81</ele>
        <time>2019-04-15T11:51:10.000Z</time>
      </trkpt>
      <trkpt lat="43.87492" lon="0.10767">
        <ele>232.59</ele>
        <time>2019-04-15T11:51:20.000Z</time>
      </trkpt>
      <trkpt lat="43.8748" lon="0.10775">
        <ele>232.33</ele>
        <time>2019-04-15T11:51:30.000Z</time>
      </trkpt>
      <trkpt lat="43.87468" lon="0.10782">
        <ele>231.69</ele>
        <time>2019-04-15T11:51:40.000Z</time>
      </trkpt>
      <trkpt lat="43.87457" lon="0.10787">
        <ele>231.4</ele>
        <time>2019-04-15T11:51:50.000Z</time>
      </trkpt>
      <trkpt lat="43.87444" lon="0.10795">
        <ele>231.37</ele>
        <time>2019-04-15T11:52:00.000Z</time>
      </trkpt>
      <trkpt lat="43.87432" lon="0.108">
        <ele>231.31</ele>
        <time>2019-04-15T11:52:10.000Z</time>
      </trkpt>
      <trkpt lat="43.8742" lon="0.10807">
        <ele>231.24</ele>
        <time>2019-04-15T11:52:20.000Z</time>
      </trkpt>
      <trkpt lat="43.8741" lon="0.10813">
        <ele>231.37</ele>
        <time>2019-04-15T11:52:30.000Z</time>
      </trkpt>
      <trkpt lat="43.87398" lon="0.10815">
        <ele>231.31</ele>
        <time>2019-04-15T11:52:40.000Z</time>
      </trkpt>
      <trkpt lat="43.87384" lon="0.10822">
        <ele>231.21</ele>
        <time>2019-04-15T11:52:50.000Z</time>
      </trkpt>
      <trkpt lat="43.87374" lon="0.10829">
        <ele>231.22</ele>
        <time>2019-04-15T11:53:00.000Z</time>
      </trkpt>
      <trkpt lat="43.87365" lon="0.10834">
        <ele>230.79</ele>
        <time>2019-04-15T11:53:10.000Z</time>
      </trkpt>
      <trkpt lat="43.87359" lon="0.10836">
        <ele>230.28</ele>
        <time>2019-04-15T11:53:20.000Z</time>
      </trkpt>
      <trkpt lat="43.87358" lon="0.10835">
        <ele>231.4</ele>
        <time>2019-04-15T11:53:30.000Z</time>
      </trkpt>
      <trkpt lat="43.87359" lon="0.10836">
        <ele>231.57</ele>
        <time>2019-04-15T11:53:41.000Z</time>
      </trkpt>
      <trkpt lat="43.87354" lon="0.10841">
        <ele>230.88</ele>
        <time>2019-04-15T11:53:51.000Z</time>
      </trkpt>
      <trkpt lat="43.87345" lon="0.10844">
        <ele>230.61</ele>
        <time>2019-04-15T11:54:01.000Z</time>
      </trkpt>
      <trkpt lat="43.8734" lon="0.10842">
        <ele>230.21</ele>
        <time>2019-04-15T11:54:11.000Z</time>
      </trkpt>
      <trkpt lat="43.87333" lon="0.10843">
        <ele>230.05</ele>
        <time>2019-04-15T11:54:21.000Z</time>
      </trkpt>
      <trkpt lat="43.87322" lon="0.10847">
        <ele>229.73</ele>
        <time>2019-04-15T11:54:31.000Z</time>
      </trkpt>
      <trkpt lat="43.87309" lon="0.10848">
        <ele>229.42</ele>
        <time>2019-04-15T11:54:41.000Z</time>
      </trkpt>
      <trkpt lat="43.87297" lon="0.1085">
        <ele>229.13</ele>
        <time>2019-04-15T11:54:51.000Z</time>
      </trkpt>
      <trkpt lat="43.87285" lon="0.1085">
        <ele>229.03</ele>
        <time>2019-04-15T11:55:01.000Z</time>
      </trkpt>
      <trkpt lat="43.87272" lon="0.10848">
        <ele>229.13</ele>
        <time>2019-04-15T11:55:11.000Z</time>
      </trkpt>
      <trkpt lat="43.87259" lon="0.10846">
        <ele>228.5</ele>
        <time>2019-04-15T11:55:21.000Z</time>
      </trkpt>
      <trkpt lat="43.87246" lon="0.10842">
        <ele>228.2</ele>
        <time>2019-04-15T11:55:31.000Z</time>
      </trkpt>
      <trkpt lat="43.87235" lon="0.10842">
        <ele>228.05</ele>
        <time>2019-04-15T11:55:41.000Z</time>
      </trkpt>
      <trkpt lat="43.87224" lon="0.10839">
        <ele>227.86</ele>
        <time>2019-04-15T11:55:51.000Z</time>
      </trkpt>
      <trkpt lat="43.87211" lon="0.10834">
        <ele>228.27</ele>
        <time>2019-04-15T11:56:01.000Z</time>
      </trkpt>
      <trkpt lat="43.872" lon="0.10829">
        <ele>228.02</ele>
        <time>2019-04-15T11:56:11.000Z</time>
      </trkpt>
      <trkpt lat="43.87187" lon="0.10823">
        <ele>227.85</ele>
        <time>2019-04-15T11:56:21.000Z</time>
      </trkpt>
      <trkpt lat="43.87174" lon="0.10818">
        <ele>227.64</ele>
        <time>2019-04-15T11:56:31.000Z</time>
      </trkpt>
      <trkpt lat="43.87165" lon="0.10815">
        <ele>227.19</ele>
        <time>2019-04-15T11:56:41.000Z</time>
      </trkpt>
      <trkpt lat="43.87155" lon="0.10812">
        <ele>227.19</ele>
        <time>2019-04-15T11:56:51.000Z</time>
      </trkpt>
      <trkpt lat="43.87143" lon="0.10807">
        <ele>227.23</ele>
        <time>2019-04-15T11:57:01.000Z</time>
      </trkpt>
      <trkpt lat="43.87132" lon="0.10802">
        <ele>227.06</ele>
        <time>2019-04-15T11:57:11.000Z</time>
      </trkpt>
      <trkpt lat="43.87121" lon="0.10797">
        <ele>226.85</ele>
        <time>2019-04-15T11:57:21.000Z</time>
      </trkpt>
      <trkpt lat="43.87108" lon="0.1079">
        <ele>226.35</ele>
        <time>2019-04-15T11:57:31.000Z</time>
      </trkpt>
      <trkpt lat="43.87097" lon="0.10785">
        <ele>226.32</ele>
        <time>2019-04-15T11:57:41.000Z</time>
      </trkpt>
      <trkpt lat="43.87085" lon="0.10779">
        <ele>226.17</ele>
        <time>2019-04-15T11:57:51.000Z</time>
      </trkpt>
      <trkpt lat="43.87072" lon="0.10774">
        <ele>226.06</ele>
        <time>2019-04-15T11:58:01.000Z</time>
      </trkpt>
      <trkpt lat="43.8706" lon="0.10771">
        <ele>226.46</ele>
        <time>2019-04-15T11:58:11.000Z</time>
      </trkpt>
      <trkpt lat="43.8705" lon="0.10765">
        <ele>226.3</ele>
        <time>2019-04-15T11:58:21.000Z</time>
      </trkpt>
      <trkpt lat="43.87039" lon="0.1076">
        <ele>226.12</ele>
        <time>2019-04-15T11:58:31.000Z</time>
      </trkpt>
      <trkpt lat="43.87027" lon="0.10753">
        <ele>226.22</ele>
        <time>2019-04-15T11:58:41.000Z</time>
      </trkpt>
      <trkpt lat="43.87015" lon="0.10748">
        <ele>226.03</ele>
        <time>2019-04-15T11:58:51.000Z</time>
      </trkpt>
      <trkpt lat="43.87004" lon="0.10742">
        <ele>225.71</ele>
        <time>2019-04-15T11:59:01.000Z</time>
      </trkpt>
      <trkpt lat="43.86992" lon="0.10738">
        <ele>226.11</ele>
        <time>2019-04-15T11:59:11.000Z</time>
      </trkpt>
      <trkpt lat="43.86981" lon="0.10732">
        <ele>225.99</ele>
        <time>2019-04-15T11:59:21.000Z</time>
      </trkpt>
      <trkpt lat="43.8697" lon="0.10729">
        <ele>226.1</ele>
        <time>2019-04-15T11:59:31.000Z</time>
      </trkpt>
      <trkpt lat="43.86963" lon="0.10724">
        <ele>226.18</ele>
        <time>2019-04-15T11:59:41.000Z</time>
      </trkpt>
      <trkpt lat="43.8695" lon="0.1072">
        <ele>226.32</ele>
        <time>2019-04-15T11:59:51.000Z</time>
      </trkpt>
      <trkpt lat="43.86938" lon="0.10713">
        <ele>226.28</ele>
        <time>2019-04-15T12:00:01.000Z</time>
      </trkpt>
      <trkpt lat="43.86926" lon="0.10706">
        <ele>226.71</ele>
        <time>2019-04-15T12:00:11.000Z</time>
      </trkpt>
      <trkpt lat="43.86912" lon="0.10699">
        <ele>227.23</ele>
        <time>2019-04-15T12:00:21.000Z</time>
      </trkpt>
      <trkpt lat="43.869" lon="0.10694">
        <ele>227.51</ele>
        <time>2019-04-15T12:00:31.000Z</time>
      </trkpt>
      <trkpt lat="43.86886" lon="0.10687">
        <ele>227.77</ele>
        <time>2019-04-15T12:00:41.000Z</time>
      </trkpt>
      <trkpt lat="43.86877" lon="0.10682">
        <ele>228.27</ele>
        <time>2019-04-15T12:00:51.000Z</time>
      </trkpt>
      <trkpt lat="43.86865" lon="0.10678">
        <ele>228.33</ele>
        <time>2019-04-15T12:01:01.000Z</time>
      </trkpt>
      <trkpt lat="43.86852" lon="0.10671">
        <ele>228.34</ele>
        <time>2019-04-15T12:01:11.000Z</time>
      </trkpt>
      <trkpt lat="43.86841" lon="0.10664">
        <ele>228.09</ele>
        <time>2019-04-15T12:01:21.000Z</time>
      </trkpt>
      <trkpt lat="43.86831" lon="0.1066">
        <ele>228.55</ele>
        <time>2019-04-15T12:01:31.000Z</time>
      </trkpt>
      <trkpt lat="43.86821" lon="0.10655">
        <ele>228.24</ele>
        <time>2019-04-15T12:01:41.000Z</time>
      </trkpt>
      <trkpt lat="43.8681" lon="0.10653">
        <ele>228.59</ele>
        <time>2019-04-15T12:01:51.000Z</time>
      </trkpt>
      <trkpt lat="43.86798" lon="0.10649">
        <ele>228.89</ele>
        <time>2019-04-15T12:02:01.000Z</time>
      </trkpt>
      <trkpt lat="43.86787" lon="0.10641">
        <ele>228.85</ele>
        <time>2019-04-15T12:02:11.000Z</time>
      </trkpt>
      <trkpt lat="43.86773" lon="0.10635">
        <ele>228.87</ele>
        <time>2019-04-15T12:02:21.000Z</time>
      </trkpt>
      <trkpt lat="43.86761" lon="0.10629">
        <ele>229.08</ele>
        <time>2019-04-15T12:02:31.000Z</time>
      </trkpt>
      <trkpt lat="43.8675" lon="0.10624">
        <ele>229.19</ele>
        <time>2019-04-15T12:02:41.000Z</time>
      </trkpt>
      <trkpt lat="43.86738" lon="0.10621">
        <ele>229.32</ele>
        <time>2019-04-15T12:02:51.000Z</time>
      </trkpt>
      <trkpt lat="43.86727" lon="0.10611">
        <ele>229.71</ele>
        <time>2019-04-15T12:03:01.000Z</time>
      </trkpt>
      <trkpt lat="43.86725" lon="0.1061">
        <ele>230.13</ele>
        <time>2019-04-15T12:03:11.000Z</time>
      </trkpt>
      <trkpt lat="43.86719" lon="0.10607">
        <ele>230.5</ele>
        <time>2019-04-15T12:03:21.000Z</time>
      </trkpt>
      <trkpt lat="43.86708" lon="0.10605">
        <ele>230.32</ele>
        <time>2019-04-15T12:03:31.000Z</time>
      </trkpt>
      <trkpt lat="43.86696" lon="0.10599">
        <ele>230.18</ele>
        <time>2019-04-15T12:03:41.000Z</time>
      </trkpt>
      <trkpt lat="43.86686" lon="0.10595">
        <ele>230.44</ele>
        <time>2019-04-15T12:03:51.000Z</time>
      </trkpt>
      <trkpt lat="43.86674" lon="0.10592">
        <ele>230.97</ele>
        <time>2019-04-15T12:04:01.000Z</time>
      </trkpt>
      <trkpt lat="43.86662" lon="0.10588">
        <ele>231.27</ele>
        <time>2019-04-15T12:04:11.000Z</time>
      </trkpt>
      <trkpt lat="43.86651" lon="0.10583">
        <ele>231.01</ele>
        <time>2019-04-15T12:04:21.000Z</time>
      </trkpt>
      <trkpt lat="43.8664" lon="0.10581">
        <ele>231.25</ele>
        <time>2019-04-15T12:04:31.000Z</time>
      </trkpt>
      <trkpt lat="43.86627" lon="0.10579">
        <ele>231.61</ele>
        <time>2019-04-15T12:04:41.000Z</time>
      </trkpt>
      <trkpt lat="43.86615" lon="0.10578">
        <ele>231.53</ele>
        <time>2019-04-15T12:04:51.000Z</time>
      </trkpt>
      <trkpt lat="43.86613" lon="0.10576">
        <ele>231.5</ele>
        <time>2019-04-15T12:05:01.000Z</time>
      </trkpt>
      <trkpt lat="43.86608" lon="0.10579">
        <ele>232.01</ele>
        <time>2019-04-15T12:05:11.000Z</time>
      </trkpt>
      <trkpt lat="43.86598" lon="0.1058">
        <ele>231.74</ele>
        <time>2019-04-15T12:05:21.000Z</time>
      </trkpt>
      <trkpt lat="43.86585" lon="0.10575">
        <ele>231.9</ele>
        <time>2019-04-15T12:05:31.000Z</time>
      </trkpt>
      <trkpt lat="43.86575" lon="0.10576">
        <ele>232.09</ele>
        <time>2019-04-15T12:05:41.000Z</time>
      </trkpt>
      <trkpt lat="43.86563" lon="0.10577">
        <ele>233.01</ele>
        <time>2019-04-15T12:05:51.000Z</time>
      </trkpt>
      <trkpt lat="43.8655" lon="0.10578">
        <ele>232.97</ele>
        <time>2019-04-15T12:06:01.000Z</time>
      </trkpt>
      <trkpt lat="43.86538" lon="0.10581">
        <ele>232.9</ele>
        <time>2019-04-15T12:06:11.000Z</time>
      </trkpt>
      <trkpt lat="43.86526" lon="0.10585">
        <ele>233.03</ele>
        <time>2019-04-15T12:06:21.000Z</time>
      </trkpt>
      <trkpt lat="43.86513" lon="0.10588">
        <ele>233.7</ele>
        <time>2019-04-15T12:06:31.000Z</time>
      </trkpt>
      <trkpt lat="43.86502" lon="0.10592">
        <ele>233.68</ele>
        <time>2019-04-15T12:06:41.000Z</time>
      </trkpt>
      <trkpt lat="43.86491" lon="0.10596">
        <ele>233.81</ele>
        <time>2019-04-15T12:06:51.000Z</time>
      </trkpt>
      <trkpt lat="43.86481" lon="0.10603">
        <ele>234.23</ele>
        <time>2019-04-15T12:07:01.000Z</time>
      </trkpt>
      <trkpt lat="43.8647" lon="0.10609">
        <ele>234.13</ele>
        <time>2019-04-15T12:07:11.000Z</time>
      </trkpt>
      <trkpt lat="43.86458" lon="0.10615">
        <ele>234.16</ele>
        <time>2019-04-15T12:07:21.000Z</time>
      </trkpt>
      <trkpt lat="43.86445" lon="0.10617">
        <ele>234.41</ele>
        <time>2019-04-15T12:07:31.000Z</time>
      </trkpt>
      <trkpt lat="43.86434" lon="0.10626">
        <ele>234.83</ele>
        <time>2019-04-15T12:07:41.000Z</time>
      </trkpt>
      <trkpt lat="43.86426" lon="0.10633">
        <ele>235.1</ele>
        <time>2019-04-15T12:07:51.000Z</time>
      </trkpt>
      <trkpt lat="43.86416" lon="0.10641">
        <ele>234.82</ele>
        <time>2019-04-15T12:08:01.000Z</time>
      </trkpt>
      <trkpt lat="43.86405" lon="0.10648">
        <ele>235.39</ele>
        <time>2019-04-15T12:08:11.000Z</time>
      </trkpt>
      <trkpt lat="43.86392" lon="0.10654">
        <ele>235.16</ele>
        <time>2019-04-15T12:08:21.000Z</time>
      </trkpt>
      <trkpt lat="43.86382" lon="0.10664">
        <ele>235.21</ele>
        <time>2019-04-15T12:08:31.000Z</time>
      </trkpt>
      <trkpt lat="43.86373" lon="0.10675">
        <ele>235.48</ele>
        <time>2019-04-15T12:08:41.000Z</time>
      </trkpt>
      <trkpt lat="43.86363" lon="0.10687">
        <ele>236.18</ele>
        <time>2019-04-15T12:08:51.000Z</time>
      </trkpt>
      <trkpt lat="43.86354" lon="0.10699">
        <ele>235.98</ele>
        <time>2019-04-15T12:09:01.000Z</time>
      </trkpt>
      <trkpt lat="43.86347" lon="0.10709">
        <ele>236.03</ele>
        <time>2019-04-15T12:09:11.000Z</time>
      </trkpt>
      <trkpt lat="43.86337" lon="0.10718">
        <ele>236.09</ele>
        <time>2019-04-15T12:09:21.000Z</time>
      </trkpt>
      <trkpt lat="43.86329" lon="0.10729">
        <ele>236.95</ele>
        <time>2019-04-15T12:09:31.000Z</time>
      </trkpt>
      <trkpt lat="43.86321" lon="0.1074">
        <ele>236.55</ele>
        <time>2019-04-15T12:09:41.000Z</time>
      </trkpt>
      <trkpt lat="43.86311" lon="0.10743">
        <ele>236.75</ele>
        <time>2019-04-15T12:09:51.000Z</time>
      </trkpt>
      <trkpt lat="43.86304" lon="0.10743">
        <ele>237.15</ele>
        <time>2019-04-15T12:10:01.000Z</time>
      </trkpt>
      <trkpt lat="43.86293" lon="0.10736">
        <ele>237.16</ele>
        <time>2019-04-15T12:10:11.000Z</time>
      </trkpt>
      <trkpt lat="43.86281" lon="0.10731">
        <ele>237.07</ele>
        <time>2019-04-15T12:10:21.000Z</time>
      </trkpt>
      <trkpt lat="43.86269" lon="0.10723">
        <ele>237.29</ele>
        <time>2019-04-15T12:10:31.000Z</time>
      </trkpt>
      <trkpt lat="43.86261" lon="0.10718">
        <ele>237.96</ele>
        <time>2019-04-15T12:10:41.000Z</time>
      </trkpt>
      <trkpt lat="43.86253" lon="0.10708">
        <ele>239.13</ele>
        <time>2019-04-15T12:10:51.000Z</time>
      </trkpt>
      <trkpt lat="43.86243" lon="0.107">
        <ele>239.25</ele>
        <time>2019-04-15T12:11:01.000Z</time>
      </trkpt>
      <trkpt lat="43.86234" lon="0.10687">
        <ele>240.13</ele>
        <time>2019-04-15T12:11:11.000Z</time>
      </trkpt>
      <trkpt lat="43.86223" lon="0.10679">
        <ele>240.46</ele>
        <time>2019-04-15T12:11:21.000Z</time>
      </trkpt>
      <trkpt lat="43.86216" lon="0.1067">
        <ele>241.05</ele>
        <time>2019-04-15T12:11:31.000Z</time>
      </trkpt>
      <trkpt lat="43.86208" lon="0.10659">
        <ele>241.38</ele>
        <time>2019-04-15T12:11:41.000Z</time>
      </trkpt>
      <trkpt lat="43.862" lon="0.10646">
        <ele>241.75</ele>
        <time>2019-04-15T12:11:51.000Z</time>
      </trkpt>
      <trkpt lat="43.86193" lon="0.10636">
        <ele>242.14</ele>
        <time>2019-04-15T12:12:01.000Z</time>
      </trkpt>
      <trkpt lat="43.86187" lon="0.10623">
        <ele>242.82</ele>
        <time>2019-04-15T12:12:11.000Z</time>
      </trkpt>
      <trkpt lat="43.8618" lon="0.1061">
        <ele>243.66</ele>
        <time>2019-04-15T12:12:21.000Z</time>
      </trkpt>
      <trkpt lat="43.86174" lon="0.10597">
        <ele>243.64</ele>
        <time>2019-04-15T12:12:31.000Z</time>
      </trkpt>
      <trkpt lat="43.86169" lon="0.10589">
        <ele>243.86</ele>
        <time>2019-04-15T12:12:41.000Z</time>
      </trkpt>
      <trkpt lat="43.86164" lon="0.10575">
        <ele>244.3</ele>
        <time>2019-04-15T12:12:51.000Z</time>
      </trkpt>
      <trkpt lat="43.86158" lon="0.10558">
        <ele>244.82</ele>
        <time>2019-04-15T12:13:01.000Z</time>
      </trkpt>
      <trkpt lat="43.86155" lon="0.10543">
        <ele>245.53</ele>
        <time>2019-04-15T12:13:11.000Z</time>
      </trkpt>
      <trkpt lat="43.86153" lon="0.1053">
        <ele>245.65</ele>
        <time>2019-04-15T12:13:21.000Z</time>
      </trkpt>
      <trkpt lat="43.86152" lon="0.10516">
        <ele>246.24</ele>
        <time>2019-04-15T12:13:31.000Z</time>
      </trkpt>
      <trkpt lat="43.86148" lon="0.10501">
        <ele>246.76</ele>
        <time>2019-04-15T12:13:41.000Z</time>
      </trkpt>
      <trkpt lat="43.86146" lon="0.10486">
        <ele>247.68</ele>
        <time>2019-04-15T12:13:51.000Z</time>
      </trkpt>
      <trkpt lat="43.86143" lon="0.10472">
        <ele>247.59</ele>
        <time>2019-04-15T12:14:01.000Z</time>
      </trkpt>
      <trkpt lat="43.86141" lon="0.10457">
        <ele>248.06</ele>
        <time>2019-04-15T12:14:11.000Z</time>
      </trkpt>
      <trkpt lat="43.86138" lon="0.10443">
        <ele>248.53</ele>
        <time>2019-04-15T12:14:21.000Z</time>
      </trkpt>
      <trkpt lat="43.86134" lon="0.10431">
        <ele>249.26</ele>
        <time>2019-04-15T12:14:31.000Z</time>
      </trkpt>
      <trkpt lat="43.86129" lon="0.10419">
        <ele>249.61</ele>
        <time>2019-04-15T12:14:41.000Z</time>
      </trkpt>
      <trkpt lat="43.86127" lon="0.10407">
        <ele>250.44</ele>
        <time>2019-04-15T12:14:51.000Z</time>
      </trkpt>
      <trkpt lat="43.86122" lon="0.10397">
        <ele>251.09</ele>
        <time>2019-04-15T12:15:01.000Z</time>
      </trkpt>
      <trkpt lat="43.8612" lon="0.10376">
        <ele>250.74</ele>
        <time>2019-04-15T12:15:11.000Z</time>
      </trkpt>
      <trkpt lat="43.86114" lon="0.10368">
        <ele>250.98</ele>
        <time>2019-04-15T12:15:21.000Z</time>
      </trkpt>
      <trkpt lat="43.86115" lon="0.10356">
        <ele>252.34</ele>
        <time>2019-04-15T12:15:31.000Z</time>
      </trkpt>
      <trkpt lat="43.86111" lon="0.10339">
        <ele>253.75</ele>
        <time>2019-04-15T12:15:41.000Z</time>
      </trkpt>
      <trkpt lat="43.86116" lon="0.10324">
        <ele>254.49</ele>
        <time>2019-04-15T12:15:51.000Z</time>
      </trkpt>
      <trkpt lat="43.86118" lon="0.10313">
        <ele>253.95</ele>
        <time>2019-04-15T12:16:01.000Z</time>
      </trkpt>
      <trkpt lat="43.86116" lon="0.10313">
        <ele>254.41</ele>
        <time>2019-04-15T12:16:11.000Z</time>
      </trkpt>
      <trkpt lat="43.86115" lon="0.10311">
        <ele>254.57</ele>
        <time>2019-04-15T12:16:21.000Z</time>
      </trkpt>
      <trkpt lat="43.86114" lon="0.10309">
        <ele>253.85</ele>
        <time>2019-04-15T12:16:47.000Z</time>
      </trkpt>
      <trkpt lat="43.86116" lon="0.1031">
        <ele>253.63</ele>
        <time>2019-04-15T12:16:57.000Z</time>
      </trkpt>
      <trkpt lat="43.86117" lon="0.10311">
        <ele>253.2</ele>
        <time>2019-04-15T12:17:19.000Z</time>
      </trkpt>
      <trkpt lat="43.86117" lon="0.10302">
        <ele>253.5</ele>
        <time>2019-04-15T12:17:29.000Z</time>
      </trkpt>
      <trkpt lat="43.86114" lon="0.103">
        <ele>253.88</ele>
        <time>2019-04-15T12:17:39.000Z</time>
      </trkpt>
      <trkpt lat="43.8611" lon="0.10304">
        <ele>253.65</ele>
        <time>2019-04-15T12:17:49.000Z</time>
      </trkpt>
      <trkpt lat="43.86105" lon="0.1029">
        <ele>254.27</ele>
        <time>2019-04-15T12:17:59.000Z</time>
      </trkpt>
      <trkpt lat="43.86099" lon="0.10275">
        <ele>254.68</ele>
        <time>2019-04-15T12:18:09.000Z</time>
      </trkpt>
      <trkpt lat="43.86097" lon="0.10261">
        <ele>255.61</ele>
        <time>2019-04-15T12:18:19.000Z</time>
      </trkpt>
      <trkpt lat="43.86096" lon="0.10247">
        <ele>255.81</ele>
        <time>2019-04-15T12:18:29.000Z</time>
      </trkpt>
      <trkpt lat="43.86096" lon="0.1023">
        <ele>256.61</ele>
        <time>2019-04-15T12:18:39.000Z</time>
      </trkpt>
      <trkpt lat="43.86098" lon="0.10215">
        <ele>256.81</ele>
        <time>2019-04-15T12:18:49.000Z</time>
      </trkpt>
      <trkpt lat="43.86099" lon="0.10205">
        <ele>257.1</ele>
        <time>2019-04-15T12:18:59.000Z</time>
      </trkpt>
      <trkpt lat="43.86097" lon="0.102">
        <ele>257.46</ele>
        <time>2019-04-15T12:19:09.000Z</time>
      </trkpt>
      <trkpt lat="43.86098" lon="0.10189">
        <ele>256.81</ele>
        <time>2019-04-15T12:19:19.000Z</time>
      </trkpt>
      <trkpt lat="43.86098" lon="0.10178">
        <ele>257.05</ele>
        <time>2019-04-15T12:19:29.000Z</time>
      </trkpt>
      <trkpt lat="43.86098" lon="0.10167">
        <ele>257.53</ele>
        <time>2019-04-15T12:19:39.000Z</time>
      </trkpt>
      <trkpt lat="43.86093" lon="0.10155">
        <ele>258.41</ele>
        <time>2019-04-15T12:19:49.000Z</time>
      </trkpt>
      <trkpt lat="43.86087" lon="0.10139">
        <ele>258.93</ele>
        <time>2019-04-15T12:19:59.000Z</time>
      </trkpt>
      <trkpt lat="43.86085" lon="0.10125">
        <ele>259.04</ele>
        <time>2019-04-15T12:20:09.000Z</time>
      </trkpt>
      <trkpt lat="43.86081" lon="0.10108">
        <ele>258.99</ele>
        <time>2019-04-15T12:20:19.000Z</time>
      </trkpt>
      <trkpt lat="43.86086" lon="0.10091">
        <ele>259.21</ele>
        <time>2019-04-15T12:20:29.000Z</time>
      </trkpt>
      <trkpt lat="43.8608" lon="0.10079">
        <ele>259.1</ele>
        <time>2019-04-15T12:20:39.000Z</time>
      </trkpt>
      <trkpt lat="43.86078" lon="0.10079">
        <ele>259.53</ele>
        <time>2019-04-15T12:20:49.000Z</time>
      </trkpt>
      <trkpt lat="43.86075" lon="0.10077">
        <ele>259</ele>
        <time>2019-04-15T12:20:59.000Z</time>
      </trkpt>
      <trkpt lat="43.86061" lon="0.1008">
        <ele>258.86</ele>
        <time>2019-04-15T12:21:09.000Z</time>
      </trkpt>
      <trkpt lat="43.86049" lon="0.10087">
        <ele>258.5</ele>
        <time>2019-04-15T12:21:19.000Z</time>
      </trkpt>
      <trkpt lat="43.86045" lon="0.10088">
        <ele>258.6</ele>
        <time>2019-04-15T12:21:29.000Z</time>
      </trkpt>
      <trkpt lat="43.86045" lon="0.10091">
        <ele>258.81</ele>
        <time>2019-04-15T12:21:39.000Z</time>
      </trkpt>
      <trkpt lat="43.86044" lon="0.10094">
        <ele>258.73</ele>
        <time>2019-04-15T12:21:49.000Z</time>
      </trkpt>
      <trkpt lat="43.86031" lon="0.10107">
        <ele>259.03</ele>
        <time>2019-04-15T12:21:59.000Z</time>
      </trkpt>
      <trkpt lat="43.86026" lon="0.10119">
        <ele>258.99</ele>
        <time>2019-04-15T12:22:09.000Z</time>
      </trkpt>
      <trkpt lat="43.86021" lon="0.10132">
        <ele>258.52</ele>
        <time>2019-04-15T12:22:19.000Z</time>
      </trkpt>
      <trkpt lat="43.86011" lon="0.10143">
        <ele>257.92</ele>
        <time>2019-04-15T12:22:29.000Z</time>
      </trkpt>
      <trkpt lat="43.86003" lon="0.10146">
        <ele>257.61</ele>
        <time>2019-04-15T12:22:39.000Z</time>
      </trkpt>
      <trkpt lat="43.85999" lon="0.10149">
        <ele>257.48</ele>
        <time>2019-04-15T12:22:49.000Z</time>
      </trkpt>
      <trkpt lat="43.85991" lon="0.10155">
        <ele>257.01</ele>
        <time>2019-04-15T12:22:59.000Z</time>
      </trkpt>
      <trkpt lat="43.85982" lon="0.10157">
        <ele>256.44</ele>
        <time>2019-04-15T12:23:09.000Z</time>
      </trkpt>
      <trkpt lat="43.85971" lon="0.10158">
        <ele>256.14</ele>
        <time>2019-04-15T12:23:19.000Z</time>
      </trkpt>
      <trkpt lat="43.85968" lon="0.10147">
        <ele>256.2</ele>
        <time>2019-04-15T12:23:29.000Z</time>
      </trkpt>
      <trkpt lat="43.85965" lon="0.10134">
        <ele>255.66</ele>
        <time>2019-04-15T12:23:39.000Z</time>
      </trkpt>
      <trkpt lat="43.85965" lon="0.10122">
        <ele>254.95</ele>
        <time>2019-04-15T12:23:49.000Z</time>
      </trkpt>
      <trkpt lat="43.85959" lon="0.10118">
        <ele>254.87</ele>
        <time>2019-04-15T12:23:59.000Z</time>
      </trkpt>
      <trkpt lat="43.85958" lon="0.10109">
        <ele>254.82</ele>
        <time>2019-04-15T12:24:09.000Z</time>
      </trkpt>
      <trkpt lat="43.85949" lon="0.10104">
        <ele>254.99</ele>
        <time>2019-04-15T12:24:19.000Z</time>
      </trkpt>
      <trkpt lat="43.8595" lon="0.10099">
        <ele>254.88</ele>
        <time>2019-04-15T12:24:29.000Z</time>
      </trkpt>
      <trkpt lat="43.85952" lon="0.1009">
        <ele>255.01</ele>
        <time>2019-04-15T12:24:39.000Z</time>
      </trkpt>
      <trkpt lat="43.85948" lon="0.10084">
        <ele>255.16</ele>
        <time>2019-04-15T12:24:49.000Z</time>
      </trkpt>
      <trkpt lat="43.85948" lon="0.10082">
        <ele>255.55</ele>
        <time>2019-04-15T12:29:43.000Z</time>
      </trkpt>
      <trkpt lat="43.85947" lon="0.10071">
        <ele>255.54</ele>
        <time>2019-04-15T12:29:53.000Z</time>
      </trkpt>
      <trkpt lat="43.85951" lon="0.10058">
        <ele>255.44</ele>
        <time>2019-04-15T12:30:03.000Z</time>
      </trkpt>
      <trkpt lat="43.85947" lon="0.10049">
        <ele>255.62</ele>
        <time>2019-04-15T12:30:13.000Z</time>
      </trkpt>
      <trkpt lat="43.85946" lon="0.10043">
        <ele>255.57</ele>
        <time>2019-04-15T12:30:23.000Z</time>
      </trkpt>
      <trkpt lat="43.85942" lon="0.10031">
        <ele>254.86</ele>
        <time>2019-04-15T12:30:33.000Z</time>
      </trkpt>
      <trkpt lat="43.85944" lon="0.10018">
        <ele>254.35</ele>
        <time>2019-04-15T12:30:43.000Z</time>
      </trkpt>
      <trkpt lat="43.85948" lon="0.10007">
        <ele>254.05</ele>
        <time>2019-04-15T12:30:53.000Z</time>
      </trkpt>
      <trkpt lat="43.85946" lon="0.09995">
        <ele>253.8</ele>
        <time>2019-04-15T12:31:03.000Z</time>
      </trkpt>
      <trkpt lat="43.85945" lon="0.09983">
        <ele>253.44</ele>
        <time>2019-04-15T12:31:13.000Z</time>
      </trkpt>
      <trkpt lat="43.85948" lon="0.09969">
        <ele>253.19</ele>
        <time>2019-04-15T12:31:23.000Z</time>
      </trkpt>
      <trkpt lat="43.85949" lon="0.09956">
        <ele>252.76</ele>
        <time>2019-04-15T12:31:33.000Z</time>
      </trkpt>
      <trkpt lat="43.85943" lon="0.09943">
        <ele>253.03</ele>
        <time>2019-04-15T12:31:43.000Z</time>
      </trkpt>
      <trkpt lat="43.85938" lon="0.09929">
        <ele>252.52</ele>
        <time>2019-04-15T12:31:53.000Z</time>
      </trkpt>
      <trkpt lat="43.85931" lon="0.09913">
        <ele>252.76</ele>
        <time>2019-04-15T12:32:03.000Z</time>
      </trkpt>
      <trkpt lat="43.85925" lon="0.099">
        <ele>252.48</ele>
        <time>2019-04-15T12:32:13.000Z</time>
      </trkpt>
      <trkpt lat="43.85921" lon="0.09885">
        <ele>252.31</ele>
        <time>2019-04-15T12:32:23.000Z</time>
      </trkpt>
      <trkpt lat="43.85916" lon="0.0987">
        <ele>252.68</ele>
        <time>2019-04-15T12:32:33.000Z</time>
      </trkpt>
      <trkpt lat="43.8591" lon="0.09858">
        <ele>252.6</ele>
        <time>2019-04-15T12:32:43.000Z</time>
      </trkpt>
      <trkpt lat="43.85905" lon="0.09844">
        <ele>252.46</ele>
        <time>2019-04-15T12:32:53.000Z</time>
      </trkpt>
      <trkpt lat="43.85898" lon="0.09831">
        <ele>252.35</ele>
        <time>2019-04-15T12:33:03.000Z</time>
      </trkpt>
      <trkpt lat="43.85896" lon="0.09819">
        <ele>252.08</ele>
        <time>2019-04-15T12:33:13.000Z</time>
      </trkpt>
      <trkpt lat="43.85889" lon="0.09805">
        <ele>252.63</ele>
        <time>2019-04-15T12:33:23.000Z</time>
      </trkpt>
      <trkpt lat="43.85887" lon="0.09793">
        <ele>252.47</ele>
        <time>2019-04-15T12:33:33.000Z</time>
      </trkpt>
      <trkpt lat="43.85886" lon="0.09797">
        <ele>252.87</ele>
        <time>2019-04-15T12:33:43.000Z</time>
      </trkpt>
      <trkpt lat="43.85884" lon="0.09798">
        <ele>253.19</ele>
        <time>2019-04-15T12:33:53.000Z</time>
      </trkpt>
      <trkpt lat="43.85884" lon="0.09799">
        <ele>252.75</ele>
        <time>2019-04-15T12:34:03.000Z</time>
      </trkpt>
      <trkpt lat="43.85882" lon="0.09795">
        <ele>252.87</ele>
        <time>2019-04-15T12:34:13.000Z</time>
      </trkpt>
      <trkpt lat="43.85878" lon="0.09793">
        <ele>252.5</ele>
        <time>2019-04-15T12:34:23.000Z</time>
      </trkpt>
      <trkpt lat="43.85876" lon="0.09778">
        <ele>252.3</ele>
        <time>2019-04-15T12:34:33.000Z</time>
      </trkpt>
      <trkpt lat="43.85873" lon="0.09764">
        <ele>252.13</ele>
        <time>2019-04-15T12:34:43.000Z</time>
      </trkpt>
      <trkpt lat="43.8587" lon="0.09753">
        <ele>251.5</ele>
        <time>2019-04-15T12:34:53.000Z</time>
      </trkpt>
      <trkpt lat="43.85864" lon="0.0974">
        <ele>251.48</ele>
        <time>2019-04-15T12:35:03.000Z</time>
      </trkpt>
      <trkpt lat="43.85858" lon="0.09729">
        <ele>251.23</ele>
        <time>2019-04-15T12:35:13.000Z</time>
      </trkpt>
      <trkpt lat="43.85852" lon="0.09715">
        <ele>250.7</ele>
        <time>2019-04-15T12:35:23.000Z</time>
      </trkpt>
      <trkpt lat="43.85846" lon="0.09701">
        <ele>249.97</ele>
        <time>2019-04-15T12:35:33.000Z</time>
      </trkpt>
      <trkpt lat="43.85842" lon="0.09687">
        <ele>249.57</ele>
        <time>2019-04-15T12:35:43.000Z</time>
      </trkpt>
      <trkpt lat="43.85837" lon="0.09674">
        <ele>249.52</ele>
        <time>2019-04-15T12:35:53.000Z</time>
      </trkpt>
      <trkpt lat="43.85832" lon="0.09661">
        <ele>248.84</ele>
        <time>2019-04-15T12:36:03.000Z</time>
      </trkpt>
      <trkpt lat="43.85826" lon="0.09648">
        <ele>248.9</ele>
        <time>2019-04-15T12:36:13.000Z</time>
      </trkpt>
      <trkpt lat="43.85821" lon="0.09635">
        <ele>248.83</ele>
        <time>2019-04-15T12:36:23.000Z</time>
      </trkpt>
      <trkpt lat="43.85814" lon="0.0962">
        <ele>248.61</ele>
        <time>2019-04-15T12:36:33.000Z</time>
      </trkpt>
      <trkpt lat="43.85809" lon="0.09605">
        <ele>248.88</ele>
        <time>2019-04-15T12:36:43.000Z</time>
      </trkpt>
      <trkpt lat="43.85803" lon="0.0959">
        <ele>248.92</ele>
        <time>2019-04-15T12:36:53.000Z</time>
      </trkpt>
      <trkpt lat="43.85798" lon="0.09577">
        <ele>248.93</ele>
        <time>2019-04-15T12:37:03.000Z</time>
      </trkpt>
      <trkpt lat="43.85792" lon="0.09563">
        <ele>249.47</ele>
        <time>2019-04-15T12:37:13.000Z</time>
      </trkpt>
      <trkpt lat="43.85789" lon="0.0955">
        <ele>250.44</ele>
        <time>2019-04-15T12:37:23.000Z</time>
      </trkpt>
      <trkpt lat="43.85785" lon="0.09535">
        <ele>250.96</ele>
        <time>2019-04-15T12:37:33.000Z</time>
      </trkpt>
      <trkpt lat="43.85779" lon="0.09522">
        <ele>251.26</ele>
        <time>2019-04-15T12:37:43.000Z</time>
      </trkpt>
      <trkpt lat="43.85773" lon="0.09508">
        <ele>252.13</ele>
        <time>2019-04-15T12:37:53.000Z</time>
      </trkpt>
      <trkpt lat="43.85769" lon="0.09494">
        <ele>252.66</ele>
        <time>2019-04-15T12:38:03.000Z</time>
      </trkpt>
      <trkpt lat="43.85763" lon="0.09482">
        <ele>253.56</ele>
        <time>2019-04-15T12:38:13.000Z</time>
      </trkpt>
      <trkpt lat="43.85758" lon="0.09468">
        <ele>254.07</ele>
        <time>2019-04-15T12:38:23.000Z</time>
      </trkpt>
      <trkpt lat="43.85753" lon="0.09457">
        <ele>254.84</ele>
        <time>2019-04-15T12:38:33.000Z</time>
      </trkpt>
      <trkpt lat="43.85747" lon="0.09442">
        <ele>255.39</ele>
        <time>2019-04-15T12:38:43.000Z</time>
      </trkpt>
      <trkpt lat="43.85742" lon="0.09429">
        <ele>256.04</ele>
        <time>2019-04-15T12:38:53.000Z</time>
      </trkpt>
      <trkpt lat="43.85737" lon="0.09415">
        <ele>256.45</ele>
        <time>2019-04-15T12:39:03.000Z</time>
      </trkpt>
      <trkpt lat="43.85731" lon="0.09402">
        <ele>257.12</ele>
        <time>2019-04-15T12:39:13.000Z</time>
      </trkpt>
      <trkpt lat="43.85725" lon="0.09389">
        <ele>257.93</ele>
        <time>2019-04-15T12:39:23.000Z</time>
      </trkpt>
      <trkpt lat="43.85721" lon="0.09376">
        <ele>258.04</ele>
        <time>2019-04-15T12:39:33.000Z</time>
      </trkpt>
      <trkpt lat="43.85715" lon="0.09362">
        <ele>258.38</ele>
        <time>2019-04-15T12:39:43.000Z</time>
      </trkpt>
      <trkpt lat="43.85709" lon="0.09348">
        <ele>258.15</ele>
        <time>2019-04-15T12:39:53.000Z</time>
      </trkpt>
      <trkpt lat="43.85703" lon="0.09337">
        <ele>258.52</ele>
        <time>2019-04-15T12:40:03.000Z</time>
      </trkpt>
      <trkpt lat="43.85698" lon="0.09324">
        <ele>258.29</ele>
        <time>2019-04-15T12:40:13.000Z</time>
      </trkpt>
      <trkpt lat="43.85692" lon="0.09316">
        <ele>258.73</ele>
        <time>2019-04-15T12:40:23.000Z</time>
      </trkpt>
      <trkpt lat="43.85687" lon="0.09304">
        <ele>258.56</ele>
        <time>2019-04-15T12:40:33.000Z</time>
      </trkpt>
      <trkpt lat="43.8568" lon="0.09297">
        <ele>258.52</ele>
        <time>2019-04-15T12:40:43.000Z</time>
      </trkpt>
      <trkpt lat="43.85675" lon="0.09297">
        <ele>259.67</ele>
        <time>2019-04-15T12:40:53.000Z</time>
      </trkpt>
      <trkpt lat="43.85674" lon="0.09302">
        <ele>259.6</ele>
        <time>2019-04-15T12:41:03.000Z</time>
      </trkpt>
      <trkpt lat="43.85675" lon="0.09303">
        <ele>259.58</ele>
        <time>2019-04-15T12:41:13.000Z</time>
      </trkpt>
      <trkpt lat="43.85675" lon="0.09303">
        <ele>260.22</ele>
        <time>2019-04-15T12:41:35.000Z</time>
      </trkpt>
    </trkseg>
  </trk>
</gpx>